Date StartTime U_cm/s V_cm/s W_cm/s Ustd_cm/s Vstd_cm/s Wstd_cm/s Uvar_(cm/s)^2 Vvar_(cm/s)^2 Wvar_(cm/s)^2 KE_(m/s)^2 TurbulentKE_(m/s)^2 HorizWindSpeed_cm/s FrictionSpeec_cm/s DragCoef SpeedOfSound_m/s SonicTemperature_C Pressure_mb 
11/27/2014  00:00:00      -18.106       39.648       -4.620       15.552       12.094        6.226      241.875      146.259       38.757        0.117        0.021       43.587        7.640        0.031      340.296       14.219      868.076
11/27/2014  00:01:00      -96.687       29.819      -18.155       34.574       35.030       12.616     1195.347     1227.095      159.168        0.657        0.129      101.181       13.399        0.018      339.490       12.861      868.051
11/27/2014  00:02:00      -78.713      -12.844      -13.646       77.437       36.171       26.829     5996.540     1308.306      719.810        0.728        0.401       79.754       32.441        0.165      338.169       10.637      868.076
11/27/2014  00:03:00      -10.400      -68.286       -2.264       36.434       44.143       25.893     1327.403     1948.626      670.462        0.436        0.197       69.073       23.575        0.116      337.827       10.063      868.149
11/27/2014  00:04:00     -121.380      -63.359      -21.122       56.550       31.429       19.406     3197.899      987.759      376.588        1.188        0.228      136.921       13.338        0.009      337.749        9.934      868.257
11/27/2014  00:05:00     -120.155        1.585      -25.280       41.930       27.231       18.450     1758.089      741.539      340.390        0.896        0.142      120.165       14.192        0.014      338.541       11.264      868.256
11/27/2014  00:06:00     -113.425       -4.334      -15.162       33.076       27.795       20.834     1094.037      772.568      434.045        0.771        0.115      113.508       14.612        0.017      339.032       12.087      868.201
11/27/2014  00:07:00      -78.227       30.594      -18.427       25.792       23.247       12.744      665.222      540.401      162.419        0.438        0.068       83.997       10.082        0.014      339.334       12.598      868.184
11/27/2014  00:08:00       -7.164       40.005        2.558       18.822       23.165       11.941      354.249      536.630      142.598        0.135        0.052       40.641        6.140        0.023      340.613       14.755      868.156
11/27/2014  00:09:00     -186.941      -59.371      -20.574       73.126       31.736       23.102     5347.389     1007.184      533.712        2.289        0.344      196.142       33.247        0.029      337.988       10.332      868.127
11/27/2014  00:10:00     -170.983       -6.531       -4.136       84.122       71.100       42.866     7076.510     5055.226     1837.486        2.163        0.698      171.108       31.823        0.035      338.109       10.536      868.149
11/27/2014  00:11:00     -253.168       52.960      -33.245       52.760       62.021       39.011     2783.613     3846.632     1521.865        3.808        0.408      258.648       25.670        0.010      338.366       10.964      868.185
11/27/2014  00:12:00     -220.119       28.614      -30.776       46.315       30.955       32.174     2145.079      958.193     1035.182        2.718        0.207      221.971       27.758        0.016      338.172       10.639      868.198
11/27/2014  00:13:00      -95.157      -12.581       -4.515       48.311       38.298       26.871     2333.974     1466.751      722.030        0.688        0.226       95.985       23.563        0.060      338.062       10.458      868.206
11/27/2014  00:14:00     -115.944      -12.060       -9.259       60.267       38.459       27.955     3632.152     1479.116      781.484        0.978        0.295      116.570       30.898        0.070      338.191       10.674      868.223
11/27/2014  00:15:00     -127.938      -42.879      -13.393       54.107       42.674       24.525     2927.604     1821.090      601.465        1.187        0.268      134.932       23.841        0.031      337.775        9.976      868.246
11/27/2014  00:16:00     -157.311      -14.442      -16.052       35.436       51.586       31.666     1255.723     2661.083     1002.724        1.507        0.246      157.973       21.152        0.018      338.009       10.370      868.210
11/27/2014  00:17:00     -142.286       22.450      -13.703       42.846       48.250       28.954     1835.818     2328.039      838.310        1.297        0.250      144.046       22.309        0.024      339.010       12.052      868.174
11/27/2014  00:18:00     -112.883        6.937       -0.755       39.927       34.787       28.040     1594.179     1210.110      786.231        0.819        0.180      113.096       21.689        0.037      339.095       12.194      868.152
11/27/2014  00:19:00      -65.465      -20.514      -10.590       40.126       28.254       22.338     1610.107      798.288      498.967        0.386        0.145       68.604        9.065        0.017      338.514       11.219      868.130
11/27/2014  00:20:00     -165.919      -34.570      -19.230       67.010       75.538       35.573     4490.330     5705.961     1265.436        2.028        0.573      169.482       29.314        0.030      338.163       10.627      868.156
11/27/2014  00:21:00     -217.625        6.086      -23.952       69.701       50.750       38.682     4858.222     2575.594     1496.332        2.845        0.447      217.710       35.288        0.026      338.227       10.732      868.208
11/27/2014  00:22:00     -155.572      -31.973       -5.449       55.721       50.491       34.879     3104.800     2549.345     1216.532        1.606        0.344      158.824       35.526        0.050      337.983       10.325      868.243
11/27/2014  00:23:00     -150.548      -17.417       -7.862       43.352       36.671       25.640     1879.432     1344.759      657.393        1.345        0.194      151.552       18.059        0.014      337.964       10.294      868.270
11/27/2014  00:24:00     -124.102      -14.150      -12.725       29.461       30.238       19.971      867.972      914.322      398.825        0.897        0.109      124.906       14.343        0.013      338.342       10.928      868.245
11/27/2014  00:25:00     -105.206      -35.520       -8.523       20.665       25.629       13.035      427.022      656.861      169.919        0.683        0.063      111.040       10.414        0.009      338.049       10.435      868.217
11/27/2014  00:26:00     -113.361      -10.463      -10.408       35.201       33.141       14.464     1239.130     1098.342      209.204        0.781        0.127      113.843       13.728        0.015      338.430       11.076      868.168
11/27/2014  00:27:00      -31.963      -24.987       -5.394       49.169       50.028       23.497     2417.557     2502.846      552.124        0.357        0.274       40.571       21.081        0.270      338.386       11.004      868.125
11/27/2014  00:28:00      -72.203      -37.748        0.948       57.172       50.999       28.760     3268.636     2600.932      827.142        0.667        0.335       81.475       29.799        0.134      338.308       10.872      868.139
11/27/2014  00:29:00     -151.077      -45.432      -24.118       50.093       40.909       29.314     2509.330     1673.583      859.327        1.526        0.252      157.760       27.955        0.031      338.520       11.226      868.163
11/27/2014  00:30:00     -118.343      -36.532       -5.281       68.968       61.634       35.162     4756.624     3798.739     1236.358        1.258        0.490      123.853       35.725        0.083      338.541       11.262      868.173
11/27/2014  00:31:00     -121.602        7.686      -21.618       52.538       45.744       26.551     2760.216     2092.499      704.930        1.043        0.278      121.845       27.772        0.052      338.796       11.692      868.133
11/27/2014  00:32:00     -147.906      -28.577      -10.798       43.979       36.980       26.324     1934.115     1367.540      692.974        1.340        0.200      150.641       24.332        0.026      338.375       10.983      868.095
11/27/2014  00:33:00     -189.816      -37.487      -21.465       26.241       23.494       22.370      688.588      551.982      500.397        1.982        0.087      193.482       16.099        0.007      338.124       10.562      868.091
11/27/2014  00:34:00     -200.153      -21.958      -14.297       46.013       31.528       28.163     2117.154      994.039      793.150        2.233        0.195      201.354       25.375        0.016      338.083       10.492      868.096
11/27/2014  00:35:00     -204.860      -24.063      -11.399       62.685       43.227       36.831     3929.463     1868.539     1356.490        2.491        0.358      206.269       39.175        0.036      338.138       10.583      868.129
11/27/2014  00:36:00     -177.120      -15.381       -1.870       94.905       56.444       50.510     9006.974     3185.878     2551.213        2.317        0.737      177.786       58.461        0.108      338.442       11.095      868.149
11/27/2014  00:37:00     -108.462       -8.988        6.821       71.945       49.094       37.188     5176.014     2410.220     1382.946        1.043        0.448      108.833       36.820        0.114      338.403       11.031      868.141
11/27/2014  00:38:00     -146.277      -27.434      -15.580       32.239       26.447       19.392     1039.340      699.438      376.068        1.225        0.106      148.828       10.946        0.005      338.292       10.844      868.116
11/27/2014  00:39:00     -141.529      -11.934      -12.851       72.914       36.365       27.302     5316.407     1322.438      745.386        1.386        0.369      142.031       34.766        0.060      338.171       10.640      868.068
11/27/2014  00:40:00     -147.366      -20.913       -6.649       49.811       47.975       33.250     2481.155     2301.603     1105.587        1.404        0.294      148.842       30.907        0.043      338.305       10.865      868.059
11/27/2014  00:41:00      -97.428       -1.136       -7.522       56.139       43.983       21.750     3151.576     1934.496      473.069        0.755        0.278       97.434       21.252        0.048      338.427       11.072      868.087
11/27/2014  00:42:00      -49.471      -28.685       14.024       61.371       36.719       29.250     3766.403     1348.268      855.557        0.472        0.299       57.186       32.328        0.320      338.150       10.606      868.109
11/27/2014  00:43:00     -155.596      -71.456      -14.523       37.762       29.529       18.810     1425.943      871.990      353.806        1.609        0.133      171.219       14.724        0.007      338.718       11.560      868.077
11/27/2014  00:44:00     -136.403      -43.235       -7.859       60.221       52.104       23.663     3626.605     2714.781      559.938        1.372        0.345      143.091       21.159        0.022      338.843       11.768      868.036
11/27/2014  00:45:00     -146.890      -37.300      -12.925       46.283       37.989       21.826     2142.083     1443.168      476.374        1.360        0.203      151.552       21.533        0.020      338.423       11.064      868.011
11/27/2014  00:46:00     -166.848      -24.492      -15.234       38.001       35.280       24.854     1444.100     1244.671      617.721        1.599        0.165      168.636       22.766        0.018      338.364       10.967      868.014
11/27/2014  00:47:00     -149.368       -6.303      -12.998       40.120       47.662       28.328     1609.652     2271.704      802.470        1.360        0.234      149.501       24.550        0.027      338.503       11.198      867.988
11/27/2014  00:48:00     -147.088      -32.551      -14.031       55.842       48.717       25.860     3118.279     2373.302      668.755        1.452        0.308      150.647       26.336        0.031      338.772       11.651      867.981
11/27/2014  00:49:00     -132.365      -80.076       -2.678       45.220       36.977       25.731     2044.843     1367.333      662.073        1.401        0.204      154.702       23.546        0.023      338.149       10.605      867.999
11/27/2014  00:50:00      -82.961      -71.889       10.030       75.763       60.457       38.202     5739.970     3655.011     1459.377        1.150        0.543      109.775       44.226        0.162      338.349       10.940      868.029
11/27/2014  00:51:00      -66.927      -41.874        4.862       66.144       42.404       20.430     4375.028     1798.131      417.398        0.642        0.330       78.948       23.843        0.091      338.456       11.119      867.998
11/27/2014  00:52:00      -28.165      -60.376        3.502       43.087       28.443       20.984     1856.464      809.005      440.341        0.378        0.155       66.622       18.638        0.078      338.635       11.421      867.978
11/27/2014  00:53:00     -100.898      -67.399      -18.329       25.725       25.852       11.059      661.783      668.350      122.311        0.826        0.073      121.338        6.834        0.003      338.706       11.539      867.903
11/27/2014  00:54:00     -154.547      -50.851      -12.256       19.337       20.149        9.889      373.909      405.963       97.795        1.375        0.044      162.698        5.213        0.001      338.372       10.979      867.863
11/27/2014  00:55:00     -179.553      -55.311       -9.566       38.640       35.256       20.566     1493.026     1242.963      422.957        1.927        0.158      187.879       20.102        0.011      338.382       10.993      867.893
11/27/2014  00:56:00     -113.231      -12.337      -12.658       46.667       33.943       27.082     2177.804     1152.160      733.421        0.860        0.203      113.901       29.871        0.069      338.538       11.257      867.914
11/27/2014  00:57:00     -108.035      -54.117      -11.000       19.592       18.869       11.802      383.834      356.023      139.288        0.780        0.044      120.831        7.510        0.004      338.199       10.688      867.945
11/27/2014  00:58:00     -108.915      -72.158       -1.613       37.092       28.417       21.413     1375.847      807.534      458.534        0.986        0.132      130.649       16.446        0.016      338.320       10.891      867.960
11/27/2014  00:59:00     -161.117      -72.601      -10.681       46.785       58.526       26.476     2188.790     3425.319      700.983        1.883        0.316      176.719       24.366        0.019      338.509       11.208      867.922
11/27/2014  01:00:00     -218.738      -29.066      -17.141       32.464       27.456       21.281     1053.920      753.829      452.867        2.562        0.113      220.660       12.634        0.003      338.512       11.213      867.840
11/27/2014  01:01:00     -136.954        7.765       -2.140       55.932       42.499       32.535     3128.401     1806.177     1058.533        1.241        0.300      137.174       30.960        0.051      338.647       11.440      867.806
11/27/2014  01:02:00     -112.015      -53.547        0.744       74.211       42.634       28.246     5507.208     1817.694      797.811        1.177        0.406      124.156       35.503        0.082      338.278       10.821      867.826
11/27/2014  01:03:00      -88.651      -24.271       -1.868       49.463       44.062       27.861     2446.610     1941.484      776.244        0.681        0.258       91.914       22.547        0.060      338.173       10.645      867.848
11/27/2014  01:04:00      -60.264       19.757      -10.841       65.072       41.425       25.195     4234.365     1715.994      634.788        0.536        0.329       63.420        8.701        0.019      338.505       11.204      867.829
11/27/2014  01:05:00       27.404      -20.560      -13.632       17.407       25.880       11.750      302.990      669.758      138.062        0.123        0.056       34.259        6.064        0.031      338.229       10.739      867.817
11/27/2014  01:06:00      -32.823      -19.318        4.878       34.039       26.172       17.873     1158.647      684.961      319.436        0.182        0.108       38.085       14.912        0.153      338.319       10.889      867.805
11/27/2014  01:07:00      -40.818      -66.305       -2.467       24.336       23.638        9.678      592.234      558.732       93.672        0.366        0.062       77.862        6.430        0.007      338.474       11.149      867.822
11/27/2014  01:08:00     -133.534      -28.881      -15.319       24.803       16.209       14.773      615.192      262.724      218.229        1.000        0.055      136.622       12.883        0.009      338.157       10.617      867.811
11/27/2014  01:09:00      -97.945      -10.577       -2.270       43.850       32.060       22.052     1922.825     1027.849      486.300        0.657        0.172       98.515       23.799        0.058      338.381       10.993      867.804
11/27/2014  01:10:00      -83.520      -60.598       -2.214       37.518       27.243       21.124     1407.593      742.202      446.209        0.662        0.130      103.187       12.258        0.014      337.957       10.282      867.830
11/27/2014  01:11:00     -113.123      -56.450       -7.428       67.066       28.377       26.904     4497.902      805.229      723.800        1.103        0.301      126.426       35.203        0.078      338.140       10.591      867.836
11/27/2014  01:12:00      -27.979      -56.252       -0.568       35.562       22.830       12.975     1264.690      521.195      168.341        0.295        0.098       62.826        7.949        0.016      338.108       10.534      867.829
11/27/2014  01:13:00     -116.488     -113.343       -7.346       50.870       64.664       27.111     2587.783     4181.451      735.031        1.699        0.375      162.531       25.628        0.025      338.314       10.881      867.833
11/27/2014  01:14:00     -156.238     -107.968       -3.879       69.750       56.927       38.966     4865.068     3240.671     1518.360        2.285        0.481      189.914       35.359        0.035      338.290       10.837      867.827
11/27/2014  01:15:00      -50.010      -70.453        1.918       46.166       46.048       22.130     2131.288     2120.436      489.740        0.610        0.237       86.398       12.987        0.023      338.348       10.938      867.808
11/27/2014  01:16:00       24.101      -45.045        6.534       44.024       43.728       29.894     1938.155     1912.165      893.625        0.370        0.237       51.087       31.924        0.390      338.093       10.512      867.803
11/27/2014  01:17:00     -106.880      -57.207      -12.210       99.045       40.885       20.639     9809.883     1671.570      425.948        1.337        0.595      121.227       29.523        0.059      338.521       11.230      867.795
11/27/2014  01:18:00     -111.974       44.896       -5.770       29.513       37.336       25.724      870.991     1393.966      661.736        0.876        0.146      120.640       14.896        0.015      338.729       11.579      867.774
11/27/2014  01:19:00     -124.070        0.710      -12.874       26.597       25.518       15.011      707.383      651.167      225.318        0.857        0.079      124.072       12.799        0.011      338.200       10.691      867.811
11/27/2014  01:20:00     -197.226      -54.002       -7.151       73.019       49.943       33.001     5331.756     2494.319     1089.063        2.539        0.446      204.486       28.965        0.020      337.995       10.345      867.817
11/27/2014  01:21:00     -168.705      -24.985       -5.517       66.005       65.914       39.715     4356.630     4344.660     1577.318        1.970        0.514      170.545       36.639        0.046      338.270       10.806      867.776
11/27/2014  01:22:00     -144.154      -50.184      -11.152       43.253       42.484       28.651     1870.828     1804.892      820.873        1.396        0.225      152.639       22.473        0.022      338.537       11.256      867.751
11/27/2014  01:23:00      -10.942      -58.180       21.482       58.324       38.487       34.054     3401.697     1481.211     1159.649        0.500        0.302       59.200       30.755        0.270      338.197       10.685      867.778
11/27/2014  01:24:00       12.010        2.090       15.348       16.279       36.384       15.953      265.002     1323.766      254.500        0.111        0.092       12.190       11.210        0.846      338.116       10.550      867.788
11/27/2014  01:25:00      -36.998       25.599        4.215       52.295       29.714       22.002     2734.796      882.920      484.104        0.307        0.205       44.991       26.576        0.349      338.432       11.080      867.769
11/27/2014  01:26:00     -151.142      -35.718      -18.636       30.131       46.545       18.174      907.886     2166.418      330.277        1.394        0.170      155.305       15.822        0.010      338.332       10.912      867.797
11/27/2014  01:27:00     -157.637        4.312       -5.072       42.720       54.295       25.190     1824.993     2947.986      634.528        1.515        0.270      157.696       12.625        0.006      338.587       11.340      867.795
11/27/2014  01:28:00      -63.869      -36.492       -0.121       49.951       30.938       25.574     2495.084      957.158      654.049        0.476        0.205       73.559       22.190        0.091      338.010       10.370      867.858
11/27/2014  01:29:00      -29.016       -2.389       -0.390       33.569       26.501       21.683     1126.895      702.297      470.153        0.157        0.115       29.114       16.697        0.329      338.311       10.877      867.842
11/27/2014  01:30:00      -17.404       22.570       -3.797       22.318       31.407       13.562      498.093      986.402      183.935        0.125        0.083       28.501       11.364        0.159      338.359       10.956      867.829
11/27/2014  01:31:00      -27.944      -91.867      -13.276       35.023       35.993       19.340     1226.609     1295.519      374.017        0.615        0.145       96.023       19.594        0.042      338.120       10.555      867.872
11/27/2014  01:32:00      -74.348      -57.261      -13.751       21.153       26.044       13.649      447.437      678.275      186.288        0.515        0.066       93.842        5.238        0.003      338.278       10.822      867.898
11/27/2014  01:33:00     -129.725      -25.122      -15.948       28.788       29.335       19.444      828.758      860.549      378.065        0.989        0.103      132.135       19.705        0.022      338.534       11.252      867.890
11/27/2014  01:34:00     -208.744       22.303      -15.498       54.918       28.190       19.211     3015.982      794.675      369.071        2.424        0.209      209.932       18.148        0.007      338.911       11.882      867.848
11/27/2014  01:35:00     -199.203      -14.411      -13.654       68.711       45.480       34.412     4721.159     2068.472     1184.218        2.402        0.399      199.724       34.139        0.029      338.495       11.183      867.818
11/27/2014  01:36:00     -143.384        4.295       -4.918       68.976       47.342       28.306     4757.725     2241.300      801.213        1.420        0.390      143.448       32.269        0.051      339.131       12.254      867.805
11/27/2014  01:37:00       14.637      -53.722       11.014       32.466       42.006       21.905     1054.063     1764.542      479.836        0.326        0.165       55.680       18.394        0.109      338.594       11.352      867.802
11/27/2014  01:38:00       28.333      -25.892       10.155       30.560       38.092       29.925      933.904     1451.027      895.501        0.243        0.164       38.381       21.574        0.316      338.440       11.093      867.847
11/27/2014  01:39:00      -78.248      -43.030        4.663       60.316       24.261       24.445     3637.990      588.573      597.550        0.641        0.241       89.299       33.157        0.138      338.364       10.964      867.882
11/27/2014  01:40:00      -69.561      -57.244       -0.781       26.254       19.529       20.494      689.289      381.387      419.996        0.480        0.075       90.087       17.793        0.039      338.304       10.865      867.900
11/27/2014  01:41:00      -78.549      -35.597       -4.008       30.139       25.467       13.134      908.380      648.563      172.502        0.459        0.086       86.239       14.448        0.028      338.489       11.176      867.868
11/27/2014  01:42:00     -107.578      -23.061      -13.757       30.414       23.569       16.365      925.015      555.486      267.829        0.702        0.087      110.022       13.327        0.015      338.242       10.760      867.859
11/27/2014  01:43:00     -104.672        3.279       -4.678       34.409       27.466       20.127     1184.012      754.402      405.087        0.667        0.117      104.723       13.943        0.018      338.694       11.520      867.830
11/27/2014  01:44:00     -141.394      -21.740       -3.978       80.273       52.096       28.639     6443.689     2713.997      820.206        1.523        0.499      143.056       34.094        0.057      338.606       11.369      867.796
11/27/2014  01:45:00     -127.307      -35.185        6.072       65.993       53.353       34.406     4355.087     2846.519     1183.782        1.293        0.419      132.080       35.640        0.073      338.380       10.991      867.801
11/27/2014  01:46:00     -141.842      -36.239        9.047       83.669       79.604       45.831     7000.422     6336.807     2100.522        1.847        0.772      146.398       43.730        0.089      339.343       12.610      867.776
11/27/2014  01:47:00      -59.731      -55.755        7.367       51.818       50.134       30.977     2685.067     2513.387      959.568        0.644        0.308       81.710       31.438        0.148      339.107       12.214      867.786
11/27/2014  01:48:00      -60.431      -31.691        3.242       41.181       39.277       20.078     1695.886     1542.719      403.128        0.415        0.182       68.237       15.338        0.051      339.042       12.104      867.760
11/27/2014  01:49:00      -29.610      -32.213        1.119       50.874       27.791       15.278     2588.187      772.341      233.431        0.275        0.180       43.754       19.823        0.205      339.004       12.041      867.735
11/27/2014  01:50:00       35.728      -29.290       21.556       28.422       54.943       41.895      807.820     3018.784     1755.174        0.409        0.279       46.199       45.645        0.976      338.511       11.212      867.735
11/27/2014  01:51:00       17.017       28.794       23.981       24.002       26.534       29.922      576.074      704.037      895.337        0.193        0.109       33.446       24.603        0.541      338.399       11.024      867.724
11/27/2014  01:52:00      -49.064       69.382       -8.474       26.210       35.691       14.156      686.943     1273.840      200.389        0.473        0.108       84.978       16.605        0.038      338.752       11.615      867.676
11/27/2014  01:53:00      -45.452       71.708       -2.584       29.710       24.595       21.340      882.683      604.932      455.406        0.458        0.097       84.899       19.266        0.051      338.204       10.698      867.671
11/27/2014  01:54:00        5.824      -17.316        2.503       11.313       27.481       10.256      127.979      755.206      105.182        0.066        0.049       18.269        2.545        0.019      338.156       10.616      867.705
11/27/2014  01:55:00      -24.960      -54.593        5.144       45.047       46.277       14.446     2029.197     2141.524      208.700        0.400        0.219       60.028       15.957        0.071      338.317       10.886      867.748
11/27/2014  01:56:00     -119.435      -57.717       -2.299       67.633       73.412       31.219     4574.279     5389.288      974.624        1.427        0.547      132.650       33.459        0.064      338.501       11.194      867.743
11/27/2014  01:57:00     -135.293      -26.048       -9.981       43.104       42.801       25.353     1857.989     1831.945      642.758        1.171        0.217      137.778       26.070        0.036      338.858       11.796      867.711
11/27/2014  01:58:00     -119.515      -27.729       -1.030       46.192       33.899       22.539     2133.667     1149.156      507.988        0.942        0.190      122.689       21.531        0.031      338.384       10.998      867.715
11/27/2014  01:59:00      -78.427        4.100        0.679       49.804       45.478       28.358     2480.484     2068.290      804.166        0.576        0.268       78.535       26.259        0.112      338.810       11.714      867.707
11/27/2014  02:00:00      -57.653      -42.320        6.603       35.230       30.844       20.361     1241.187      951.332      414.567        0.388        0.130       71.519       16.527        0.053      338.353       10.946      867.715
11/27/2014  02:01:00      -94.224      -28.749       -5.022       28.492       25.637       14.308      811.773      657.248      204.715        0.570        0.084       98.513       13.565        0.019      338.444       11.098      867.742
11/27/2014  02:02:00     -108.864       51.393      -10.753       31.658       41.762       20.983     1002.257     1744.041      440.299        0.890        0.159      120.385        7.881        0.004      338.660       11.461      867.727
11/27/2014  02:03:00      -92.838        8.021      -10.743       47.882       42.404       22.613     2292.662     1798.136      511.367        0.670        0.230       93.184       12.203        0.017      338.485       11.169      867.722
11/27/2014  02:04:00      -39.674       -8.463       -2.878       27.402       30.802       20.353      750.891      948.740      414.258        0.188        0.106       40.567       10.523        0.067      338.350       10.942      867.718
11/27/2014  02:05:00      -81.399        7.681       -9.421       35.652       47.031       19.532     1271.070     2211.936      381.507        0.532        0.193       81.760       12.981        0.025      338.720       11.564      867.699
11/27/2014  02:06:00      -75.170      -56.604        2.452       48.149       26.541       20.380     2318.340      704.414      415.354        0.615        0.172       94.098        8.285        0.008      337.923       10.224      867.729
11/27/2014  02:07:00      -11.612      -51.397       -5.280       24.246       27.412       17.698      587.893      751.424      313.204        0.223        0.083       52.693       11.937        0.051      337.877       10.150      867.744
11/27/2014  02:08:00     -140.241      -11.245      -16.862       50.215       38.844       23.208     2521.524     1508.860      538.611        1.232        0.228      140.691       26.230        0.035      338.523       11.233      867.742
11/27/2014  02:09:00      -27.548      -50.031       -1.739       51.078       48.774       28.432     2608.977     2378.921      808.387        0.453        0.290       57.114       11.984        0.044      338.684       11.505      867.763
11/27/2014  02:10:00        2.434       17.558       33.109       26.788       39.345       24.785      717.615     1548.016      614.285        0.214        0.144       17.726       20.953        1.397      338.186       10.666      867.767
11/27/2014  02:11:00      -57.815      -23.267       -0.946       29.747       22.366       10.755      884.864      500.230      115.667        0.269        0.075       62.321        9.774        0.025      338.176       10.651      867.759
11/27/2014  02:12:00      -32.973      -15.396       -8.020       31.044       12.654        9.830      963.759      160.127       96.629        0.130        0.061       36.390       11.131        0.094      338.440       11.094      867.738
11/27/2014  02:13:00      -46.143       -3.064       -9.435       19.620       22.503        6.620      384.957      506.372       43.821        0.158        0.047       46.245        6.477        0.020      338.786       11.674      867.696
11/27/2014  02:14:00      -17.136      -19.776        4.846       23.641       32.132       14.226      558.919     1032.448      202.366        0.125        0.090       26.167       11.616        0.197      338.840       11.765      867.654
11/27/2014  02:15:00       -3.196      -24.896        4.033       18.248       49.352       14.809      332.998     2435.620      219.317        0.182        0.149       25.100       24.926        0.986      338.251       10.777      867.601
11/27/2014  02:16:00       19.682       37.343       12.769       23.417       14.310       15.481      548.354      204.790      239.661        0.147        0.050       42.213       15.262        0.131      338.560       11.294      867.502
11/27/2014  02:17:00      -50.361      -44.468       -7.425       33.046       39.017       14.029     1092.032     1522.320      196.819        0.369        0.141       67.184       15.120        0.051      338.339       10.923      867.517
11/27/2014  02:18:00      -26.140      -80.599       -3.410       44.008       61.777       30.400     1936.716     3816.438      924.147        0.693        0.334       84.732       19.190        0.051      338.034       10.412      867.571
11/27/2014  02:19:00       -8.908       41.259        9.472       42.369       43.236       29.239     1795.137     1869.374      854.924        0.319        0.226       42.209       36.728        0.757      338.300       10.859      867.499
11/27/2014  02:20:00      -54.568       49.774      -13.883       28.492       46.021       17.207      811.807     2117.890      296.088        0.444        0.161       73.859       19.396        0.069      338.441       11.094      867.486
11/27/2014  02:21:00      -27.313      -57.336       -4.789       33.428       27.156       13.640     1117.400      737.453      186.055        0.305        0.102       63.509       15.378        0.059      338.454       11.117      867.496
11/27/2014  02:22:00     -107.514     -100.162      -11.590       42.596       35.315       21.324     1814.427     1247.166      454.718        1.262        0.176      146.941       22.632        0.024      338.588       11.342      867.522
11/27/2014  02:23:00     -132.692      -30.636      -16.021       33.722       30.174       16.033     1137.168      910.495      257.066        1.055        0.115      136.183       13.375        0.010      338.678       11.494      867.447
11/27/2014  02:24:00      -87.976       -9.789        0.830       34.351       21.411       23.036     1179.957      458.436      530.649        0.500        0.108       88.519       19.602        0.049      338.782       11.667      867.428
11/27/2014  02:25:00       -1.651      -47.603        6.870       56.556       34.634       19.844     3198.536     1199.510      393.797        0.355        0.240       47.632       22.081        0.215      338.462       11.129      867.427
11/27/2014  02:26:00       33.262      -29.156        4.982       34.899       53.012       42.031     1217.934     2810.288     1766.627        0.389        0.290       44.232       41.674        0.888      337.979       10.319      867.460
11/27/2014  02:27:00      -23.151       25.478       27.612       15.829       19.438       30.593      250.559      377.846      935.911        0.176        0.078       34.425       16.802        0.238      338.235       10.751      867.506
11/27/2014  02:28:00      -23.214       -6.501        0.850       17.053       25.047       16.652      290.792      627.360      277.294        0.089        0.060       24.107        9.379        0.151      338.712       11.550      867.526
11/27/2014  02:29:00      -35.913      -15.066       -4.247       14.225       27.486       14.101      202.348      755.456      198.832        0.135        0.058       38.945        9.009        0.054      338.291       10.844      867.505
11/27/2014  02:30:00       15.624       24.145        9.178       20.929       22.441       15.090      438.020      503.620      227.705        0.104        0.058       28.760       14.937        0.270      338.756       11.623      867.442
11/27/2014  02:31:00       28.352       68.144       -9.168       11.236       11.916        9.452      126.256      141.999       89.343        0.294        0.018       73.807        7.150        0.009      338.748       11.611      867.416
11/27/2014  02:32:00       30.338       46.225      -13.926       15.171        9.266        6.508      230.170       85.863       42.355        0.180        0.018       55.292        5.093        0.008      338.872       11.819      867.432
11/27/2014  02:33:00      -21.158       24.424       -5.796       12.712       13.645        8.364      161.602      186.185       69.953        0.075        0.021       32.314        6.838        0.045      338.951       11.952      867.469
11/27/2014  02:34:00        8.316       -4.459       -0.254       21.476       25.652       15.210      461.234      658.039      231.345        0.072        0.068        9.436       13.644        2.091      338.569       11.310      867.482
11/27/2014  02:35:00       45.285      -16.323        2.209       12.136       20.064       12.457      147.286      402.554      155.168        0.151        0.035       48.137       13.108        0.074      338.220       10.724      867.466
11/27/2014  02:36:00       58.569       38.561       18.073       14.926       17.544       11.136      222.790      307.776      124.002        0.295        0.033       70.124        8.980        0.016      338.709       11.545      867.431
11/27/2014  02:37:00       68.102       42.440       11.341       28.272       21.362       17.088      799.305      456.332      292.009        0.406        0.077       80.244       15.508        0.037      338.660       11.463      867.381
11/27/2014  02:38:00       31.059       30.988        2.629       46.995       40.051       24.861     2208.550     1604.073      618.084        0.318        0.222       43.874       17.867        0.166      338.683       11.501      867.309
11/27/2014  02:39:00      -42.613      -42.437      -14.186       23.782       16.370       14.556      565.576      267.969      211.882        0.243        0.052       60.139       14.981        0.062      338.452       11.113      867.390
11/27/2014  02:40:00      -75.909      -38.829      -13.935       10.084       12.649        7.452      101.688      159.998       55.533        0.389        0.016       85.263        2.647        0.001      338.307       10.870      867.455
11/27/2014  02:41:00      -42.301      -16.938       -6.258       26.066       13.807        9.912      679.429      190.632       98.242        0.154        0.048       45.566       14.389        0.100      338.810       11.714      867.445
11/27/2014  02:42:00       38.470        8.384        0.464       26.586       17.120       15.593      706.817      293.097      243.126        0.140        0.062       39.373       14.520        0.136      338.412       11.046      867.424
11/27/2014  02:43:00       26.393       38.079       43.116       29.012       28.990       27.935      841.699      840.421      780.345        0.323        0.123       46.332       22.214        0.230      337.859       10.118      867.381
11/27/2014  02:44:00       14.992       41.651       21.480       19.139       26.202       29.307      366.293      686.563      858.895        0.217        0.096       44.267       22.131        0.250      337.937       10.249      867.331
11/27/2014  02:45:00       -0.050       41.281        6.079        8.685       18.446       12.808       75.421      340.260      164.045        0.116        0.029       41.281       12.706        0.095      338.654       11.454      867.289
11/27/2014  02:46:00        5.864       39.155        2.401        5.702        7.262        6.230       32.514       52.742       38.811        0.085        0.006       39.592        5.026        0.016      338.795       11.690      867.295
11/27/2014  02:47:00       -8.704       -1.114        7.441       21.877        6.700       12.230      478.612       44.888      149.565        0.040        0.034        8.775       14.819        2.852      338.342       10.930      867.305
11/27/2014  02:48:00      -63.850      -21.911      -15.780       19.525       18.488       10.925      381.215      341.802      119.345        0.282        0.042       67.505       10.197        0.023      338.464       11.134      867.317
11/27/2014  02:49:00      -40.668      -12.574      -10.847       17.250       17.691       13.319      297.556      312.968      177.390        0.136        0.039       42.567        7.967        0.035      338.312       10.878      867.312
11/27/2014  02:50:00      -56.162      -33.769       -7.731       12.802       11.047        8.238      163.899      122.029       67.863        0.235        0.018       65.532        6.417        0.010      338.032       10.408      867.291
11/27/2014  02:51:00        1.722        0.185       -1.693       25.529       14.541        8.361      651.708      211.430       69.903        0.047        0.047        1.732        8.179       22.309      338.583       11.334      867.267
11/27/2014  02:52:00        0.380        5.849        6.054        9.536       17.739        6.658       90.936      314.683       44.332        0.026        0.022        5.862        6.671        1.295      338.719       11.561      867.236
11/27/2014  02:53:00      -28.968       16.831       -4.896       16.284       12.507        6.887      265.158      156.416       47.432        0.081        0.023       33.503        6.477        0.037      338.859       11.798      867.227
11/27/2014  02:54:00      -53.054      -26.312      -10.777       14.185       23.162        8.795      201.224      536.489       77.350        0.222        0.041       59.220       10.832        0.033      338.328       10.904      867.219
11/27/2014  02:55:00      -48.209      -39.651      -10.458        9.334        7.260        5.958       87.124       52.712       35.493        0.209        0.009       62.421        2.653        0.002      338.102       10.526      867.238
11/27/2014  02:56:00      -29.642      -28.950       -3.774        8.134       10.658        4.351       66.156      113.597       18.930        0.096        0.010       41.434        3.018        0.005      338.206       10.699      867.270
11/27/2014  02:57:00      -66.554      -14.991      -12.940       43.890       11.730       10.950     1926.298      137.582      119.904        0.350        0.109       68.221       15.959        0.055      338.276       10.818      867.298
11/27/2014  02:58:00     -135.539       -3.016      -21.553       36.662       27.310       19.126     1344.080      745.832      365.792        1.065        0.123      135.573       21.241        0.025      337.903       10.191      867.294
11/27/2014  02:59:00      -69.589       44.052      -17.252       24.642       33.956       17.956      607.226     1153.008      322.402        0.458        0.104       82.360       10.919        0.018      338.765       11.638      867.259
11/27/2014  03:00:00      -48.455       48.795      -17.045        8.514       14.928        6.991       72.494      222.859       48.878        0.268        0.017       68.766        7.703        0.013      339.170       12.321      867.210
11/27/2014  03:01:00      -46.421      -21.168      -12.232       12.947       39.125       11.654      167.617     1530.741      135.809        0.229        0.092       51.019        9.443        0.034      338.554       11.286      867.218
11/27/2014  03:02:00      -28.765      -18.055      -13.149       15.087       44.292       10.692      227.619     1961.737      114.324        0.181        0.115       33.962       10.376        0.093      338.498       11.190      867.227
11/27/2014  03:03:00      -16.295       22.719       -2.607       20.520       29.593       12.137      421.065      875.767      147.302        0.112        0.072       27.959       10.793        0.149      339.323       12.579      867.212
11/27/2014  03:04:00     -123.879      -33.269      -20.304       38.041       22.988       12.394     1447.104      528.428      153.611        0.950        0.106      128.269       14.491        0.013      337.734        9.910      867.198
11/27/2014  03:05:00     -104.605      -12.162      -33.601       41.432       16.917       16.243     1716.597      286.187      263.844        0.724        0.113      105.310       20.631        0.038      338.045       10.432      867.192
11/27/2014  03:06:00       -5.187       30.688       -5.586       29.197       19.078       11.568      852.479      363.953      133.829        0.117        0.068       31.123       16.200        0.271      339.742       13.285      867.207
11/27/2014  03:07:00       -6.049      -14.422        4.586       30.657       10.075       10.995      939.824      101.501      120.892        0.071        0.058       15.639       15.275        0.954      339.194       12.360      867.212
11/27/2014  03:08:00     -110.157       -8.267      -25.076       30.657       12.807       12.361      939.833      164.030      152.782        0.704        0.063      110.466       14.461        0.017      337.857       10.115      867.188
11/27/2014  03:09:00     -178.817      -37.955      -34.303       44.070       24.661       16.725     1942.195      608.154      279.739        1.871        0.142      182.800       13.523        0.005      337.604        9.690      867.175
11/27/2014  03:10:00     -186.152      -37.159      -12.088       69.585       41.519       33.816     4842.080     1723.808     1143.520        2.194        0.385      189.824       35.726        0.035      337.499        9.513      867.169
11/27/2014  03:11:00      -91.938      -10.487        9.033       59.363       61.623       36.992     3523.979     3797.342     1368.397        0.867        0.434       92.534       32.650        0.125      337.846       10.098      867.170
11/27/2014  03:12:00      -38.425       21.256        5.577       92.539       46.679       32.374     8563.542     2178.904     1048.052        0.687        0.590       43.913       44.108        1.009      338.033       10.409      867.181
11/27/2014  03:13:00      -58.361       -4.692        2.240       58.325       51.276       32.643     3401.762     2629.206     1065.547        0.526        0.355       58.549       37.519        0.411      338.079       10.487      867.185
11/27/2014  03:14:00     -105.925      -29.793      -12.000       36.391       30.748       19.702     1324.305      945.444      388.186        0.745        0.133      110.035       14.639        0.018      337.699        9.850      867.213
11/27/2014  03:15:00      -90.066      -27.498      -23.531       31.334       33.697       18.902      981.790     1135.500      357.283        0.595        0.124       94.170       20.539        0.048      337.546        9.595      867.244
11/27/2014  03:16:00      -96.622      -44.022      -14.939       30.459       36.793       21.748      927.732     1353.736      472.962        0.713        0.138      106.178       14.335        0.018      337.547        9.594      867.259
11/27/2014  03:17:00     -100.652       -9.412      -19.273       44.383       30.692       19.227     1969.876      942.012      369.669        0.694        0.164      101.092       16.058        0.025      337.841       10.088      867.236
11/27/2014  03:18:00      -57.962      -19.342      -13.625       26.265       26.778       22.234      689.860      717.070      494.372        0.291        0.095       61.104       15.816        0.067      337.887       10.164      867.212
11/27/2014  03:19:00      -96.650      -25.025      -20.701       20.862       20.908       19.830      435.236      437.153      393.211        0.583        0.063       99.838        9.122        0.008      338.327       10.903      867.194
11/27/2014  03:20:00     -102.267      -53.915      -25.926       15.847       26.709       13.240      251.129      713.389      175.285        0.759        0.057      115.608        4.461        0.001      338.122       10.559      867.186
11/27/2014  03:21:00      -87.299      -76.334      -25.588       36.248       39.498       23.213     1313.935     1560.111      538.824        0.876        0.171      115.965        9.529        0.007      337.801       10.022      867.206
11/27/2014  03:22:00      -94.171       -8.300      -24.192       32.216       16.062       16.053     1037.897      257.996      257.712        0.554        0.078       94.536       12.802        0.018      338.532       11.247      867.178
11/27/2014  03:23:00      -33.858       16.984      -13.429       20.932       21.024       11.789      438.152      442.013      138.978        0.132        0.051       37.879       11.470        0.092      339.163       12.309      867.141
11/27/2014  03:24:00      -49.365       50.144      -19.397       17.270       27.621       14.890      298.248      762.923      221.705        0.330        0.064       70.366       15.563        0.049      339.484       12.849      867.120
11/27/2014  03:25:00      -63.875      -28.506      -11.689       22.054       33.345       13.908      486.390     1111.858      193.433        0.341        0.090       69.947       12.430        0.032      338.654       11.452      867.132
11/27/2014  03:26:00     -108.482      -63.200      -23.650       29.088       22.810       18.693      846.120      520.290      349.414        0.902        0.086      125.549        5.403        0.002      337.659        9.782      867.191
11/27/2014  03:27:00     -106.583      -14.292       -3.559       77.127       47.169       42.559     5948.613     2224.911     1811.290        1.078        0.499      107.537       45.575        0.180      337.891       10.173      867.239
11/27/2014  03:28:00     -200.533       48.465      -18.230       74.433       48.787       30.017     5540.203     2380.158      901.013        2.586        0.441      206.306       29.492        0.020      338.503       11.197      867.228
11/27/2014  03:29:00     -181.671       25.397      -22.679       70.208       59.094       33.303     4929.136     3492.119     1109.113        2.185        0.477      183.437       33.830        0.034      338.344       10.931      867.184
11/27/2014  03:30:00      -94.952      -33.036      -10.736       45.246       39.723       28.576     2047.164     1577.919      816.593        0.733        0.222      100.535       20.096        0.040      338.261       10.793      867.124
11/27/2014  03:31:00      -98.397      -48.293      -29.435       27.752       30.559       18.415      770.183      933.882      339.110        0.746        0.102      109.609        8.058        0.005      337.865       10.128      867.096
11/27/2014  03:32:00     -113.479      -25.837      -24.034       31.783       33.188       21.268     1010.183     1101.422      452.325        0.834        0.128      116.384       18.748        0.026      337.946       10.263      867.096
11/27/2014  03:33:00     -136.539      -33.138      -31.442       38.806       23.263       20.836     1505.877      541.149      434.124        1.160        0.124      140.502       21.910        0.024      337.999       10.353      867.114
11/27/2014  03:34:00     -130.642      -19.636      -31.353       29.880       28.300       18.043      892.835      800.865      325.542        1.023        0.101      132.109       11.485        0.008      338.078       10.484      867.129
11/27/2014  03:35:00     -158.866      -24.763      -34.308       55.236       25.235       22.581     3051.019      636.790      509.912        1.561        0.210      160.784       21.570        0.018      338.170       10.641      867.116
11/27/2014  03:36:00     -144.600      -28.154      -15.372       62.615       57.742       33.588     3920.632     3334.093     1128.152        1.516        0.419      147.316       29.844        0.041      338.131       10.573      867.110
11/27/2014  03:37:00     -245.682       71.026      -18.550       96.137       47.463       35.168     9242.318     2252.775     1236.778        3.924        0.637      255.743       42.178        0.027      338.862       11.798      867.100
11/27/2014  03:38:00     -247.904       87.822      -27.338       62.984       43.532       35.494     3966.934     1895.064     1259.826        3.852        0.356      263.000       23.662        0.008      338.833       11.749      867.065
11/27/2014  03:39:00      -90.817       50.562      -10.595       67.242       58.457       34.570     4521.527     3417.233     1195.056        1.002        0.457      103.944       34.349        0.109      338.961       11.968      867.020
11/27/2014  03:40:00      -73.845        8.351      -17.614       41.259       44.445       29.038     1702.289     1975.375      843.202        0.518        0.226       74.316       24.232        0.106      338.664       11.470      867.016
11/27/2014  03:41:00     -113.780      -23.186      -12.858       53.049       38.621       28.150     2814.144     1491.565      792.433        0.937        0.255      116.119       21.942        0.036      338.298       10.854      867.015
11/27/2014  03:42:00     -108.390      -40.275      -11.520       46.888       33.014       24.400     2198.512     1089.943      595.336        0.869        0.194      115.631       11.823        0.010      338.056       10.449      867.010
11/27/2014  03:43:00      -79.395      -17.680      -21.190       60.212       26.448       24.622     3625.486      699.507      606.255        0.600        0.247       81.340       24.246        0.089      338.061       10.458      867.020
11/27/2014  03:44:00       -0.147       -0.368       11.532       20.903       22.996       20.762      436.951      528.806      431.063        0.076        0.070        0.396       15.181     1470.166      338.005       10.363      867.044
11/27/2014  03:45:00        6.028        4.649        5.673       32.100       33.607       23.489     1030.380     1129.452      551.745        0.140        0.136        7.613       21.548        8.011      338.214       10.714      867.073
11/27/2014  03:46:00     -127.872       54.937      -43.280       58.298       72.419       35.076     3398.605     5244.576     1230.325        1.556        0.494      139.173       28.175        0.041      338.656       11.456      867.078
11/27/2014  03:47:00      -93.167       42.857      -12.937       50.059       32.596       24.728     2505.936     1062.468      611.497        0.743        0.209      102.552       19.388        0.036      338.599       11.362      867.102
11/27/2014  03:48:00      -98.503      -15.468      -21.320       47.619       59.417       25.200     2267.546     3530.349      635.041        0.841        0.322       99.710       19.117        0.037      338.319       10.890      867.146
11/27/2014  03:49:00     -154.342      -27.353      -22.100       22.918       23.916       13.946      525.219      571.957      194.484        1.317        0.065      156.747       10.691        0.005      338.192       10.677      867.143
11/27/2014  03:50:00     -138.335       -2.859      -14.888       42.963       28.904       31.059     1845.779      835.448      964.679        1.151        0.182      138.365       26.230        0.036      338.551       11.279      867.083
11/27/2014  03:51:00     -100.644       22.114        2.348       40.493       31.908       30.127     1639.651     1018.149      907.645        0.709        0.178      103.045       22.583        0.048      338.933       11.920      866.998
11/27/2014  03:52:00      -88.252       -0.391       -2.853       54.519       40.454       28.992     2972.345     1636.518      840.533        0.662        0.272       88.253       28.778        0.106      338.698       11.527      866.964
11/27/2014  03:53:00      -91.098      -28.611       -4.893       44.425       19.118       23.033     1973.559      365.512      530.505        0.600        0.143       95.485       24.432        0.065      338.265       10.800      866.992
11/27/2014  03:54:00      -87.159       -9.682      -12.370       26.766       29.416       17.062      716.406      865.288      291.103        0.486        0.094       87.695       11.854        0.018      338.396       11.020      867.006
11/27/2014  03:55:00      -90.756       40.959      -18.042       33.955       37.118       24.836     1152.911     1377.756      616.833        0.669        0.157       99.570       18.939        0.036      338.951       11.951      866.998
11/27/2014  03:56:00      -51.709      130.831      -32.509       28.877       18.000        8.516      833.892      324.014       72.525        1.104        0.062      140.679        6.714        0.002      340.336       14.288      866.989
11/27/2014  03:57:00        8.002      163.670      -25.525       18.407       18.323        8.539      338.802      335.729       72.917        1.413        0.037      163.865        6.882        0.002      340.852       15.159      866.970
11/27/2014  03:58:00       -0.907      146.151      -22.164       42.934       57.252       11.770     1843.313     3277.840      138.528        1.355        0.263      146.154       11.758        0.006      340.582       14.703      866.944
11/27/2014  03:59:00     -111.147      -48.179        5.074       87.310       72.277       38.725     7623.023     5223.999     1499.595        1.452        0.717      121.140       41.826        0.119      338.399       11.023      866.979
11/27/2014  04:00:00     -182.370     -129.680       -3.396       93.468       92.341       46.083     8736.312     8526.918     2123.659        3.473        0.969      223.776       48.355        0.047      338.415       11.048      867.000
11/27/2014  04:01:00     -127.519      -26.442        0.578       75.691       58.275       32.638     5729.198     3395.930     1065.232        1.357        0.510      130.231       40.591        0.097      338.491       11.178      867.010
11/27/2014  04:02:00      -91.835      -41.663        1.513       76.879       53.236       35.551     5910.348     2834.035     1263.870        1.009        0.500      100.843       35.261        0.122      338.575       11.319      867.006
11/27/2014  04:03:00      -53.225       -1.552        4.985       48.329       30.769       23.862     2335.676      946.706      569.373        0.336        0.193       53.248       27.331        0.263      338.771       11.649      866.978
11/27/2014  04:04:00      -76.592      108.092      -19.089       28.503       26.517       23.118      812.444      703.174      534.441        0.998        0.103      132.477       18.768        0.020      338.656       11.456      866.921
11/27/2014  04:05:00     -107.625       66.505      -19.475       46.202       46.187       33.488     2134.666     2133.232     1121.416        1.089        0.269      126.515       29.103        0.053      339.164       12.310      866.872
11/27/2014  04:06:00     -132.355       36.274      -28.056       71.879       50.549       33.863     5166.535     2555.224     1146.717        1.424        0.443      137.236       31.507        0.053      339.436       12.767      866.865
11/27/2014  04:07:00     -149.571      -31.884       -8.894       90.414       78.780       41.597     8174.612     6206.350     1730.324        1.979        0.806      152.932       45.555        0.089      339.062       12.136      866.908
11/27/2014  04:08:00     -131.483      -38.510      -15.270       73.170       54.168       35.882     5353.911     2934.136     1287.501        1.429        0.479      137.007       35.636        0.068      339.061       12.136      866.987
11/27/2014  04:09:00      -98.824      -38.701       -3.991       39.742       48.942       30.429     1579.404     2395.366      925.924        0.809        0.245      106.132       19.594        0.034      338.831       11.750      867.048
11/27/2014  04:10:00      -42.481      -47.203       -3.073       46.189       30.458       22.386     2133.451      927.703      501.141        0.380        0.178       63.504       21.886        0.119      338.757       11.624      867.070
11/27/2014  04:11:00      -41.703      -77.087      -11.894       24.331       27.565       21.207      592.009      759.850      449.758        0.481        0.090       87.645       13.565        0.024      339.204       12.377      867.044
11/27/2014  04:12:00      -10.845      -23.124      -13.489       24.740       25.271       23.596      612.073      638.615      556.795        0.132        0.090       25.541       14.146        0.307      339.211       12.389      866.988
11/27/2014  04:13:00      -63.916       59.639      -11.775       43.746       23.244       23.298     1913.688      540.296      542.780        0.539        0.150       87.419       27.052        0.096      339.089       12.183      866.933
11/27/2014  04:14:00      -82.177       -4.768       -6.987       40.114       40.389       21.542     1609.098     1631.248      464.041        0.526        0.185       82.315       23.085        0.079      339.088       12.182      866.898
11/27/2014  04:15:00      -82.707      -49.329       -9.726       28.568       19.335       12.513      816.146      373.830      156.574        0.536        0.067       96.300        7.738        0.006      338.666       11.473      866.912
11/27/2014  04:16:00      -56.061      -65.789        2.670       42.905       34.050       28.011     1840.812     1159.419      784.609        0.563        0.189       86.436       23.967        0.077      338.606       11.371      866.978
11/27/2014  04:17:00     -158.877      -96.576       -3.085       75.666       41.039       33.329     5725.276     1684.240     1110.834        2.155        0.426      185.927       36.396        0.038      338.644       11.433      867.043
11/27/2014  04:18:00     -193.628      -24.974      -14.194       51.987       45.712       33.129     2702.603     2089.544     1097.556        2.210        0.294      195.232       29.998        0.024      338.630       11.410      867.081
11/27/2014  04:19:00     -258.727       13.396      -25.663       69.690       54.083       44.123     4856.697     2924.949     1946.852        3.875        0.486      259.074       38.717        0.022      338.869       11.810      867.079
11/27/2014  04:20:00     -253.957       89.626      -32.319       82.920       63.539       49.864     6875.743     4037.241     2486.406        4.348        0.670      269.308       37.229        0.019      338.706       11.536      867.055
11/27/2014  04:21:00     -229.141       76.187      -27.633       95.063       56.103       35.806     9037.026     3147.503     1282.100        3.627        0.673      241.475       28.497        0.014      338.667       11.471      867.025
11/27/2014  04:22:00     -180.886       27.916      -23.393       83.739       55.272       40.142     7012.172     3055.045     1611.404        2.286        0.584      183.027       39.963        0.048      338.714       11.551      867.030
11/27/2014  04:23:00      -17.691      -48.873       -8.879       69.676       49.449       29.082     4854.799     2445.215      845.752        0.546        0.407       51.976       21.765        0.175      338.287       10.836      867.077
11/27/2014  04:24:00     -106.656      -63.068      -16.170       56.115       40.825       22.086     3148.884     1666.719      487.777        1.046        0.265      123.908       14.105        0.013      338.169       10.639      867.134
11/27/2014  04:25:00      -28.780      -70.334      -14.386       28.488       27.599       18.919      811.552      761.691      357.912        0.396        0.097       75.995       15.719        0.043      338.453       11.115      867.136
11/27/2014  04:26:00        9.126      -36.538        6.836       22.890       28.913       17.049      523.958      835.941      290.665        0.156        0.083       37.661       14.014        0.138      338.543       11.266      867.077
11/27/2014  04:27:00       17.887       -3.960       -6.685       25.883       24.160       19.552      669.924      583.707      382.262        0.101        0.082       18.320       11.425        0.389      339.188       12.351      867.011
11/27/2014  04:28:00      -23.964       48.988      -12.831       25.266       30.585       19.132      638.352      935.415      366.037        0.254        0.097       54.535       12.427        0.052      339.060       12.134      866.940
11/27/2014  04:29:00      -24.155       39.754      -14.282       12.282       14.328        8.752      150.838      205.288       76.599        0.140        0.022       46.517        6.218        0.018      338.933       11.921      866.899
11/27/2014  04:30:00      -19.216      -11.462       -3.998       11.223       18.160       10.181      125.964      329.799      103.659        0.054        0.028       22.375        6.310        0.080      338.977       11.992      866.897
11/27/2014  04:31:00     -133.992      -50.145      -20.437       44.489       18.091       14.068     1979.279      327.286      197.923        1.169        0.125      143.068       10.830        0.006      338.329       10.905      866.929
11/27/2014  04:32:00     -249.782      -89.927       -9.799       21.331       24.630       18.714      455.006      606.645      350.218        3.599        0.071      265.477        7.783        0.001      338.183       10.655      866.953
11/27/2014  04:33:00     -244.858      -51.520      -12.888       55.200       43.886       31.623     3046.999     1926.003     1000.029        3.437        0.299      250.220       28.395        0.013      338.216       10.712      866.954
11/27/2014  04:34:00     -215.504       20.281      -19.993       69.120       53.786       40.998     4777.553     2892.959     1680.860        2.830        0.468      216.456       37.007        0.029      338.961       11.964      866.911
11/27/2014  04:35:00     -155.470       38.348      -20.133       51.135       45.890       33.418     2614.737     2105.859     1116.771        1.594        0.292      160.129       27.465        0.029      339.106       12.210      866.851
11/27/2014  04:36:00     -106.393       16.807      -23.617       43.377       42.620       29.742     1881.590     1816.433      884.585        0.837        0.229      107.712       24.449        0.052      338.800       11.698      866.838
11/27/2014  04:37:00     -104.310      -24.697      -19.864       29.413       42.587       23.086      865.131     1813.656      532.946        0.755        0.161      107.194       12.844        0.014      338.575       11.320      866.861
11/27/2014  04:38:00      -95.030      -17.465      -28.492       30.436       28.681       19.408      926.333      822.616      376.653        0.614        0.106       96.621       17.648        0.033      338.391       11.011      866.893
11/27/2014  04:39:00      -76.723      -46.836      -10.103       27.627       22.699       16.479      763.260      515.255      271.549        0.487        0.078       89.889       10.114        0.013      338.337       10.920      866.915
11/27/2014  04:40:00     -115.893      -48.411      -13.549       30.575       21.173       15.423      934.804      448.290      237.881        0.879        0.081      125.598       12.259        0.010      337.965       10.296      866.914
11/27/2014  04:41:00      -79.617      -56.107       -9.495       32.154       26.211       15.480     1033.861      687.005      239.638        0.577        0.098       97.401       17.882        0.034      338.043       10.428      866.869
11/27/2014  04:42:00     -124.916      -40.388      -17.528       33.902       34.410       24.097     1149.371     1184.035      580.675        1.023        0.146      131.283       19.051        0.021      338.347       10.936      866.807
11/27/2014  04:43:00     -164.835      -54.101      -19.331       20.644       29.433       16.550      426.169      866.322      273.902        1.602        0.078      173.486        6.103        0.001      337.996       10.348      866.796
11/27/2014  04:44:00     -176.896      -83.356       -5.596       53.687       29.050       29.028     2882.291      843.920      842.631        2.142        0.228      195.551       29.676        0.023      338.080       10.487      866.846
11/27/2014  04:45:00     -173.740      -38.245      -14.296       51.796       25.270       23.267     2682.843      638.568      541.355        1.786        0.193      177.899       24.783        0.019      338.225       10.730      866.885
11/27/2014  04:46:00     -153.229      -62.015      -14.898       28.345       29.427       20.134      803.459      865.931      405.376        1.481        0.104      165.302       13.984        0.007      338.137       10.585      866.875
11/27/2014  04:47:00     -159.144      -26.034      -12.164       41.067       31.726       20.550     1686.462     1006.558      422.286        1.463        0.156      161.259       15.154        0.009      338.361       10.960      866.844
11/27/2014  04:48:00     -151.430      -22.361      -20.841       36.154       29.857       25.670     1307.089      891.417      658.972        1.336        0.143      153.072       17.116        0.013      338.499       11.190      866.828
11/27/2014  04:49:00     -144.399      -56.490      -19.318       22.919       28.979       13.637      525.302      839.784      185.956        1.298        0.078      155.055        8.387        0.003      338.144       10.596      866.850
11/27/2014  04:50:00     -116.824      -64.777       -2.899       43.354       28.296       20.139     1879.586      800.685      405.573        1.047        0.154      133.581       13.205        0.010      337.918       10.217      866.879
11/27/2014  04:51:00     -123.666      -86.257       -4.727       41.704       37.137       22.822     1739.250     1379.129      520.835        1.320        0.182      150.777       20.535        0.019      337.949       10.268      866.885
11/27/2014  04:52:00     -162.522      -76.665      -10.273       59.728       40.781       26.945     3567.490     1663.050      726.029        1.918        0.298      179.696       20.343        0.013      337.981       10.320      866.877
11/27/2014  04:53:00     -156.700      -84.824       -9.869       36.778       39.249       18.704     1352.647     1540.459      349.831        1.754        0.162      178.186       14.131        0.006      338.001       10.357      866.872
11/27/2014  04:54:00     -130.534      -92.342       -3.255       45.148       29.918       20.562     2038.351      895.095      422.805        1.447        0.168      159.895       17.864        0.012      337.990       10.337      866.884
11/27/2014  04:55:00     -123.379      -95.327        1.152       56.796       50.451       32.193     3225.802     2545.347     1036.361        1.556        0.340      155.915       26.393        0.029      338.010       10.371      866.918
11/27/2014  04:56:00     -170.693     -125.033       -2.113       47.788       42.706       29.665     2283.695     1823.796      880.007        2.488        0.249      211.588       24.995        0.014      338.031       10.403      866.933
11/27/2014  04:57:00     -168.706      -66.977       -7.524       58.183       47.831       27.839     3385.261     2287.814      775.008        1.972        0.322      181.515       27.165        0.022      338.036       10.413      866.912
11/27/2014  04:58:00     -173.222      -65.041       -9.975       38.766       39.162       25.715     1502.778     1533.650      661.242        1.902        0.185      185.030       17.399        0.009      338.041       10.424      866.850
11/27/2014  04:59:00     -144.333      -80.692       -4.761       49.928       45.887       22.653     2492.787     2105.593      513.164        1.624        0.256      165.358       24.370        0.022      337.980       10.320      866.806
11/27/2014  05:00:00     -127.238      -80.427       -3.093       50.293       30.570       28.396     2529.398      934.500      806.349        1.347        0.214      150.525       23.840        0.025      337.884       10.160      866.795
11/27/2014  05:01:00     -151.934      -65.355      -10.727       43.764       41.992       22.538     1915.282     1763.294      507.972        1.583        0.209      165.394       18.731        0.013      337.805       10.026      866.799
11/27/2014  05:02:00     -164.867      -30.599      -11.575       43.019       28.407       23.666     1850.637      806.945      560.095        1.573        0.161      167.682       22.781        0.018      337.783        9.989      866.806
11/27/2014  05:03:00     -107.373       14.454       -2.400       66.627       50.956       36.461     4439.101     2596.546     1329.412        1.005        0.418      108.341       35.540        0.108      338.359       10.956      866.808
11/27/2014  05:04:00     -132.999       -5.485      -23.752       40.226       57.656       29.120     1618.137     3324.203      847.982        1.204        0.290      133.112       18.211        0.019      338.212       10.711      866.796
11/27/2014  05:05:00     -109.389      -42.173      -15.807       46.700       41.115       19.640     2180.903     1690.448      385.723        0.912        0.213      117.237        7.750        0.004      338.032       10.408      866.778
11/27/2014  05:06:00       -0.236      -31.728      -15.130       27.448       19.521       12.834      753.415      381.077      164.699        0.127        0.065       31.729        7.360        0.054      337.978       10.318      866.782
11/27/2014  05:07:00       10.326      -25.980       -9.847       21.888       30.573       21.517      479.102      934.736      462.973        0.138        0.094       27.957       13.090        0.219      338.069       10.470      866.833
11/27/2014  05:08:00      -92.223      -39.604      -19.435       26.086       24.708       11.178      680.472      610.493      124.947        0.593        0.071      100.367       12.321        0.015      338.060       10.455      866.845
11/27/2014  05:09:00     -122.813      -10.326      -22.422       21.820       22.481       16.544      476.125      505.393      273.705        0.847        0.063      123.246       12.274        0.010      338.184       10.663      866.812
11/27/2014  05:10:00      -98.238       -7.064      -13.452       37.194       28.490       18.124     1383.379      811.656      328.466        0.620        0.126       98.491       10.258        0.011      338.466       11.137      866.784
11/27/2014  05:11:00      -88.808       25.000      -19.461       31.381       41.454       22.641      984.783     1718.431      512.594        0.605        0.161       92.260       16.787        0.033      338.749       11.611      866.785
11/27/2014  05:12:00     -107.758      -32.906      -12.695       46.566       31.110       20.783     2168.403      967.812      431.927        0.821        0.178      112.670       21.281        0.036      338.551       11.280      866.791
11/27/2014  05:13:00     -126.608      -68.710       -1.584       37.373       28.366       18.563     1396.737      804.617      344.581        1.165        0.127      144.051       18.536        0.017      338.189       10.671      866.812
11/27/2014  05:14:00      -54.921      -45.212        4.168       46.519       23.952       21.107     2163.999      573.675      445.508        0.413        0.159       71.137       22.460        0.100      337.868       10.133      866.853
11/27/2014  05:15:00      -57.803      -46.595        0.664       49.542       36.615       22.512     2454.366     1340.681      506.786        0.491        0.215       74.245       20.826        0.079      337.820       10.053      866.909
11/27/2014  05:16:00     -123.300      -79.501       -6.429       30.965       27.384       21.754      958.826      749.888      473.250        1.187        0.109      146.708       19.055        0.017      337.831       10.070      866.923
11/27/2014  05:17:00     -120.982      -52.167      -13.014       18.577       18.706       12.141      345.087      349.906      147.402        0.918        0.042      131.750        5.277        0.002      337.948       10.267      866.891
11/27/2014  05:18:00      -85.302      -28.110      -10.473       16.528       26.818       11.943      273.173      719.186      142.633        0.466        0.057       89.814       12.801        0.020      338.211       10.708      866.845
11/27/2014  05:19:00      -16.778      -24.415       -8.999       14.437       14.071       10.857      208.423      197.989      117.866        0.074        0.026       29.624        6.217        0.044      338.145       10.597      866.824
11/27/2014  05:20:00      -10.515       -0.982       -0.257       20.992       22.935       11.384      440.658      526.031      129.600        0.060        0.055       10.560        7.661        0.526      338.336       10.918      866.821
11/27/2014  05:21:00      -47.912      -31.288       -4.636       28.279       28.760        9.201      799.691      827.124       84.662        0.250        0.086       57.224        4.954        0.007      338.039       10.419      866.819
11/27/2014  05:22:00      -39.906      -60.073       -6.267       30.978       22.716       20.190      959.631      516.006      407.651        0.356        0.094       72.119       15.563        0.047      337.738        9.915      866.835
11/27/2014  05:23:00      -71.254      -82.275        3.562       58.363       48.943       35.784     3406.266     2395.460     1280.483        0.947        0.354      108.841       33.823        0.097      337.666        9.793      866.872
11/27/2014  05:24:00     -128.638     -116.332       -2.743       53.542       55.360       31.386     2866.733     3064.739      985.102        1.850        0.346      173.439       24.131        0.019      337.644        9.757      866.904
11/27/2014  05:25:00     -136.429      -73.939       -8.365       23.157       33.355       13.927      536.231     1112.569      193.969        1.300        0.092      155.177       13.737        0.008      337.929       10.236      866.890
11/27/2014  05:26:00      -76.454      -21.669      -12.130       27.852       22.328       12.299      775.718      498.544      151.254        0.394        0.071       79.465        9.377        0.014      338.026       10.398      866.834
11/27/2014  05:27:00      -70.459      -27.896       -9.488       27.584       24.972       14.998      760.881      623.596      224.952        0.372        0.080       75.780       10.803        0.020      338.264       10.799      866.781
11/27/2014  05:28:00      -49.247      -45.727       -0.138       33.880       20.307       15.787     1147.857      412.376      249.228        0.316        0.090       67.203       14.422        0.046      337.826       10.061      866.760
11/27/2014  05:29:00      -10.135      -18.218        3.401       24.471       18.763       13.203      598.843      352.052      174.311        0.079        0.056       20.847       11.815        0.321      337.618        9.714      866.757
11/27/2014  05:30:00     -112.412      -52.744       -7.017       32.062       26.406       15.186     1027.992      697.296      230.617        0.871        0.098      124.171       15.451        0.015      337.743        9.923      866.776
11/27/2014  05:31:00     -123.583      -37.501      -11.907       20.367       14.636       11.738      414.833      214.225      137.771        0.879        0.038      129.147        8.014        0.004      337.509        9.531      866.787
11/27/2014  05:32:00     -156.604      -49.481      -14.658       21.743       18.469       13.209      472.760      341.099      174.468        1.409        0.049      164.235       11.195        0.005      337.431        9.399      866.784
11/27/2014  05:33:00     -160.471      -63.934       -4.038       30.004       23.390       21.326      900.240      547.087      454.781        1.588        0.095      172.738       18.189        0.011      337.404        9.355      866.772
11/27/2014  05:34:00      -92.383      -43.618        4.006       36.753       25.161       20.979     1350.757      633.068      440.121        0.644        0.121      102.162       16.701        0.027      337.443        9.421      866.751
11/27/2014  05:35:00     -116.885      -36.608      -11.047       23.742       21.833       20.715      563.702      476.697      429.102        0.830        0.073      122.484       16.307        0.018      337.634        9.742      866.723
11/27/2014  05:36:00     -123.496      -36.234      -14.082       15.600       18.476       14.286      243.375      341.344      204.099        0.878        0.039      128.702        9.539        0.005      337.774        9.975      866.704
11/27/2014  05:37:00     -126.344      -31.503      -20.095       15.020       17.771       11.639      225.596      315.817      135.476        0.902        0.034      130.213        7.863        0.004      337.725        9.893      866.736
11/27/2014  05:38:00     -107.150      -36.556       -8.623       19.244       19.571       13.125      370.347      383.024      172.253        0.691        0.046      113.214       10.311        0.008      337.724        9.891      866.781
11/27/2014  05:39:00     -105.853      -45.346      -17.750       27.445       17.466       14.645      753.236      305.055      214.480        0.742        0.064      115.156       11.600        0.010      337.780        9.985      866.805
11/27/2014  05:40:00      -90.767      -38.085       -7.210       24.674       29.081       15.393      608.791      845.700      236.950        0.572        0.085       98.433        8.941        0.008      337.583        9.655      866.817
11/27/2014  05:41:00      -48.089        6.589       -4.178       46.676       27.644       21.212     2178.667      764.207      449.934        0.288        0.170       48.539       24.661        0.258      337.971       10.306      866.837
11/27/2014  05:42:00      -31.500       26.235        5.014       78.553       33.909       42.405     6170.644     1149.854     1798.214        0.541        0.456       40.995       50.362        1.509      337.987       10.332      866.850
11/27/2014  05:43:00        2.085       23.002       13.992       41.918       31.649       24.821     1757.154     1001.638      616.075        0.205        0.169       23.097       24.136        1.092      337.885       10.161      866.850
11/27/2014  05:44:00      -91.939       18.768      -10.543       70.666       45.680       33.490     4993.618     2086.662     1121.597        0.856        0.410       93.835       29.293        0.097      338.038       10.417      866.843
11/27/2014  05:45:00     -122.843      -49.740       -2.640       45.864       47.129       27.018     2103.532     2221.107      729.985        1.131        0.253      132.531       21.723        0.027      337.814       10.043      866.836
11/27/2014  05:46:00      -98.791      -10.865       -4.517       60.382       66.164       34.178     3645.952     4377.736     1168.158        0.954        0.460       99.387       23.033        0.054      337.792       10.006      866.827
11/27/2014  05:47:00      -71.942      -23.822       -7.445       45.028       32.494       23.970     2027.519     1055.875      574.577        0.473        0.183       75.783       22.546        0.089      337.569        9.631      866.801
11/27/2014  05:48:00      -40.873      -25.973      -11.608       40.185       25.533       24.191     1614.873      651.958      585.207        0.267        0.143       48.427       14.753        0.093      337.347        9.260      866.777
11/27/2014  05:49:00      -57.878      -32.157       -3.492       60.757       34.638       24.930     3691.444     1199.796      621.491        0.495        0.276       66.211       18.503        0.078      337.381        9.316      866.793
11/27/2014  05:50:00     -171.882      -67.437       -5.372       52.997       51.977       38.473     2808.711     2701.616     1480.136        2.055        0.350      184.638       22.799        0.015      337.299        9.179      866.838
11/27/2014  05:51:00     -176.082      -49.445      -12.972       43.496       47.058       24.066     1891.878     2214.437      579.153        1.915        0.234      182.893       22.422        0.015      337.304        9.187      866.873
11/27/2014  05:52:00     -166.783      -91.991      -12.550       27.833       31.894       19.456      774.677     1017.212      378.553        1.930        0.109      190.470       12.104        0.004      337.287        9.159      866.876
11/27/2014  05:53:00     -165.272      -78.742      -12.916       33.688       37.508       21.526     1134.859     1406.885      463.374        1.834        0.150      183.071       18.812        0.011      337.384        9.321      866.880
11/27/2014  05:54:00     -129.857      -24.608      -11.156       21.824       22.375       13.703      476.308      500.630      187.779        0.938        0.058      132.168        9.074        0.005      337.357        9.276      866.899
11/27/2014  05:55:00     -124.011        5.214      -12.928       46.492       40.024       26.269     2161.538     1601.922      690.040        1.001        0.223      124.121       23.742        0.037      337.677        9.813      866.886
11/27/2014  05:56:00     -113.018       68.657      -17.948       42.017       45.464       35.780     1765.461     2066.997     1280.188        1.146        0.256      132.238       26.747        0.041      338.063       10.461      866.867
11/27/2014  05:57:00     -103.972       36.356      -12.126       51.418       41.817       28.524     2643.770     1748.684      813.611        0.874        0.260      110.145       25.913        0.055      338.217       10.718      866.852
11/27/2014  05:58:00      -75.272        2.353       -8.387       27.428       40.589       23.926      752.321     1647.430      572.433        0.436        0.149       75.309       19.431        0.067      337.908       10.201      866.838
11/27/2014  05:59:00      -60.189       23.944      -11.404       51.707       53.903       27.895     2673.606     2905.481      778.157        0.534        0.318       64.777       19.035        0.086      337.854       10.109      866.832
11/27/2014  06:00:00     -282.948       97.739      -36.377       82.824       59.395       46.363     6859.897     3527.740     2149.487        5.173        0.627      299.354       36.097        0.015      337.771        9.967      866.833
11/27/2014  06:01:00     -221.507      -21.101      -25.040       65.982       81.475       44.198     4353.670     6638.254     1953.490        3.154        0.647      222.510       39.281        0.031      337.596        9.674      866.847
11/27/2014  06:02:00     -300.807      -58.975      -29.409       52.774       58.539       39.553     2785.067     3426.861     1564.469        5.130        0.389      306.534       27.669        0.008      337.382        9.314      866.874
11/27/2014  06:03:00     -209.977      -45.716      -13.300       66.705       56.908       33.585     4449.537     3238.495     1127.986        2.758        0.441      214.896       33.951        0.025      337.374        9.301      866.904
11/27/2014  06:04:00     -221.111      -94.155      -13.878       42.144       38.852       26.873     1776.084     1509.463      722.153        3.098        0.200      240.324       12.194        0.003      337.574        9.636      866.930
11/27/2014  06:05:00     -236.977      -52.184      -24.977       33.775       34.039       23.413     1140.739     1158.636      548.163        3.118        0.142      242.655       18.071        0.006      337.702        9.850      866.937
11/27/2014  06:06:00     -240.111       -9.234      -29.805       39.466       43.495       24.045     1557.556     1891.834      578.163        3.133        0.201      240.288       17.785        0.005      338.099       10.516      866.912
11/27/2014  06:07:00     -196.185       32.888      -14.630       79.622       48.245       35.711     6339.701     2327.576     1275.292        2.486        0.497      198.923       30.355        0.023      338.381       10.991      866.909
11/27/2014  06:08:00     -180.197       30.604      -18.630       74.587       53.019       38.582     5563.180     2811.023     1488.588        2.181        0.493      182.777       30.839        0.028      338.308       10.868      866.931
11/27/2014  06:09:00     -162.550       18.159      -12.826       67.928       62.048       38.747     4614.271     3849.997     1501.324        1.844        0.498      163.561       33.227        0.041      338.208       10.701      866.943
11/27/2014  06:10:00     -143.064       36.716       -3.763       73.762       59.063       41.051     5440.773     3488.485     1685.221        1.622        0.531      147.700       34.694        0.055      338.303       10.862      866.905
11/27/2014  06:11:00     -154.607       34.769       -5.975       64.462       54.760       37.234     4155.370     2998.645     1386.362        1.684        0.427      158.469       35.858        0.051      338.372       10.978      866.865
11/27/2014  06:12:00     -159.948       12.524       -4.986       79.003       47.584       38.046     6241.405     2264.217     1447.485        1.786        0.498      160.437       41.793        0.068      338.243       10.761      866.853
11/27/2014  06:13:00      -83.650        6.820       -8.982       46.795       41.662       29.772     2189.762     1735.734      886.353        0.597        0.241       83.927       20.198        0.058      338.239       10.754      866.870
11/27/2014  06:14:00     -115.708       12.311      -13.575       40.128       41.713       26.591     1610.259     1739.956      707.073        0.889        0.203      116.361       19.147        0.027      338.392       11.012      866.879
11/27/2014  06:15:00      -83.928      -20.119       -6.702       49.331       30.296       20.647     2433.552      917.833      426.307        0.563        0.189       86.306       24.373        0.080      338.151       10.607      866.888
11/27/2014  06:16:00     -112.348      -45.026      -14.954       38.066       19.792       21.941     1448.991      391.711      481.387        0.860        0.116      121.035       20.534        0.029      337.930       10.238      866.906
11/27/2014  06:17:00     -138.952      -36.715      -17.184       13.270       12.559       11.966      176.082      157.717      143.184        1.071        0.024      143.721        7.688        0.003      337.794       10.009      866.900
11/27/2014  06:18:00     -125.515      -53.431      -19.091       17.105       15.232       10.018      292.588      232.007      100.368        0.980        0.031      136.414        9.088        0.004      337.703        9.857      866.878
11/27/2014  06:19:00      -90.011      -74.092       -3.130       40.345       33.117       25.702     1627.724     1096.735      660.589        0.849        0.169      116.583       19.038        0.027      337.820       10.052      866.828
11/27/2014  06:20:00       -7.292      -31.587       15.218       25.727       20.613       14.102      661.883      424.878      198.870        0.128        0.064       32.418       13.409        0.171      337.775        9.977      866.794
11/27/2014  06:21:00     -106.276      -45.045       -9.322       32.550       18.852       13.155     1059.491      355.392      173.067        0.750        0.079      115.428       14.997        0.017      337.425        9.390      866.818
11/27/2014  06:22:00     -175.688      -65.915      -14.758       23.358       30.173       18.827      545.608      910.427      354.472        1.862        0.091      187.646       10.920        0.003      337.214        9.037      866.862
11/27/2014  06:23:00     -135.605     -106.201      -10.764       40.453       35.822       30.443     1636.421     1283.211      926.747        1.681        0.192      172.243       25.766        0.022      337.205        9.023      866.899
11/27/2014  06:24:00     -101.564      -89.271       12.161       65.001       51.413       39.375     4225.137     2643.316     1550.417        1.342        0.421      135.221       39.618        0.086      337.320        9.214      866.924
11/27/2014  06:25:00      -96.747     -105.872        6.610       58.806       54.845       40.235     3458.142     3007.927     1618.861        1.435        0.404      143.419       35.400        0.061      337.422        9.383      866.919
11/27/2014  06:26:00     -122.535      -89.007        3.816       49.577       40.088       32.494     2457.916     1607.061     1055.847        1.404        0.256      151.450       25.344        0.028      337.450        9.431      866.925
11/27/2014  06:27:00     -123.913      -87.560        5.811       74.026       57.303       36.508     5479.879     3283.675     1332.816        1.657        0.505      151.727       33.878        0.050      337.417        9.376      866.966
11/27/2014  06:28:00     -132.661     -125.348       -6.691       77.026       70.985       36.926     5932.953     5038.906     1363.508        2.284        0.617      182.513       32.055        0.031      337.407        9.357      867.010
11/27/2014  06:29:00     -173.002     -106.342      -14.423       43.272       33.942       27.129     1872.453     1152.062      736.000        2.260        0.188      203.072       17.139        0.007      337.478        9.476      867.023
11/27/2014  06:30:00     -102.977      -44.362       -8.285       24.771       35.139       18.440      613.601     1234.771      340.026        0.741        0.109      112.126       10.558        0.009      337.293        9.168      866.976
11/27/2014  06:31:00      -52.837      -60.889        1.473       49.703       43.592       18.054     2470.422     1900.239      325.945        0.560        0.235       80.618       17.471        0.047      337.345        9.255      866.903
11/27/2014  06:32:00      -14.075      -64.418       -5.792       26.074       55.359       20.667      679.860     3064.622      427.105        0.428        0.209       65.938       30.790        0.218      337.472        9.469      866.840
11/27/2014  06:33:00       63.153       68.422        0.343       32.441       22.434       22.868     1052.400      503.263      522.953        0.537        0.104       93.112       18.244        0.038      337.266        9.123      866.779
11/27/2014  06:34:00       66.750       31.596       -0.482       27.374       29.489       23.121      749.347      869.581      534.602        0.380        0.108       73.850       20.850        0.080      337.245        9.089      866.731
11/27/2014  06:35:00       35.737       15.454       -1.676       21.125       13.108       14.052      446.270      171.823      197.467        0.117        0.041       38.935        5.640        0.021      337.451        9.433      866.735
11/27/2014  06:36:00     -130.028      -29.047      -19.635       72.172       26.679       14.386     5208.855      711.771      206.944        1.213        0.306      133.232       23.822        0.032      337.236        9.073      866.789
11/27/2014  06:37:00     -184.056      -96.183       -1.226       80.693       61.928       38.317     6511.325     3835.064     1468.175        2.747        0.591      207.672       38.727        0.035      337.025        8.716      866.909
11/27/2014  06:38:00      -66.101      -95.841       17.920      100.046       87.437       42.835    10009.300     7645.225     1834.818        1.668        0.974      116.425       52.953        0.207      337.269        9.127      867.017
11/27/2014  06:39:00      -58.325     -142.820        9.321       72.924       73.397       49.121     5317.952     5387.137     2412.849        1.850        0.656      154.271       35.665        0.053      337.178        8.977      867.074
11/27/2014  06:40:00      -35.468     -195.597       -5.619       47.601       78.545       34.193     2265.822     6169.379     1169.157        2.457        0.480      198.786       25.339        0.016      337.310        9.196      867.070
11/27/2014  06:41:00      -72.381      -88.486       -7.980       50.754       51.013       28.076     2575.946     2602.367      788.244        0.955        0.298      114.319       16.903        0.022      337.462        9.452      867.024
11/27/2014  06:42:00      -74.820        7.134       -8.734       30.270       25.348       16.531      916.303      642.543      273.287        0.378        0.092       75.159       14.430        0.037      337.581        9.651      866.970
11/27/2014  06:43:00      -11.461       16.345        4.864       27.103       30.711       15.708      734.565      943.137      246.728        0.117        0.096       19.963       10.767        0.291      337.441        9.418      866.966
11/27/2014  06:44:00       -1.738        6.488        5.976       14.037       11.432       13.890      197.024      130.702      192.941        0.030        0.026        6.717       11.660        3.014      337.499        9.513      866.968
11/27/2014  06:45:00       -4.021        1.909       -5.558       13.165       15.372        8.992      173.328      236.306       80.853        0.027        0.025        4.452        6.521        2.146      337.873       10.140      866.970
11/27/2014  06:46:00       21.635       22.391       -1.139       15.002        8.009        8.064      225.071       64.138       65.034        0.066        0.018       31.135        6.429        0.043      338.181       10.659      866.957
11/27/2014  06:47:00       22.689       17.291       11.825       16.451       12.384        9.808      270.646      153.356       96.198        0.074        0.026       28.527       10.613        0.138      337.889       10.169      866.958
11/27/2014  06:48:00      -68.183      -39.804      -12.464       40.437       17.224       13.842     1635.187      296.660      191.601        0.426        0.106       78.951       11.633        0.022      337.309        9.197      867.011
11/27/2014  06:49:00     -163.829      -56.192      -18.392       21.167       31.377        9.974      448.053      984.537       99.474        1.593        0.077      173.198       11.168        0.004      336.956        8.605      867.052
11/27/2014  06:50:00      -91.740      -55.503       -1.224       24.109       21.361       16.660      581.258      456.299      277.572        0.641        0.066      107.223       12.510        0.014      337.030        8.728      867.057
11/27/2014  06:51:00       -7.178      -28.224       -1.731       30.156        8.231        5.490      909.375       67.743       30.136        0.093        0.050       29.122        7.866        0.073      337.436        9.408      867.021
11/27/2014  06:52:00       22.625       22.504       22.853       23.116       30.634       23.042      534.332      938.429      530.955        0.177        0.100       31.911       26.446        0.687      337.008        8.692      866.968
11/27/2014  06:53:00        2.570       35.529       33.901       15.150       17.587       23.487      229.534      309.320      551.643        0.175        0.055       35.622       14.532        0.166      337.033        8.733      866.942
11/27/2014  06:54:00       32.686       42.421        1.039       19.294       16.171        7.134      372.267      261.496       50.895        0.178        0.034       53.553        3.666        0.005      337.224        9.054      866.950
11/27/2014  06:55:00      -33.281       60.490      -17.292       18.769        6.947        5.668      352.264       48.266       32.129        0.275        0.022       69.040        8.541        0.015      337.767        9.963      866.977
11/27/2014  06:56:00      -84.983       55.582      -22.323       17.059       12.684       10.232      291.000      160.872      104.684        0.568        0.028      101.546        5.637        0.003      337.493        9.504      866.996
11/27/2014  06:57:00      -94.564       -0.555      -14.114       31.532       38.070       21.830      994.260     1449.293      476.532        0.603        0.146       94.566       20.594        0.047      337.349        9.261      867.020
11/27/2014  06:58:00     -107.836      -25.398      -15.818       17.148       15.427       14.140      294.066      238.006      199.950        0.663        0.037      110.786        7.797        0.005      337.152        8.932      867.046
11/27/2014  06:59:00     -104.797      -45.511      -10.149       19.764       16.490       12.077      390.598      271.936      145.856        0.698        0.040      114.253       11.436        0.010      337.089        8.826      867.063
11/27/2014  07:00:00     -114.017      -29.298      -11.664       21.629       21.778       15.215      467.831      474.291      231.487        0.758        0.059      117.721       12.041        0.010      337.343        9.253      867.049
11/27/2014  07:01:00     -154.372       -5.097      -21.071       23.156       21.729       14.143      536.180      472.134      200.031        1.275        0.060      154.456       10.418        0.005      337.263        9.118      867.043
11/27/2014  07:02:00      -74.094       38.099       -3.284       67.258       43.710       35.501     4523.622     1910.588     1260.286        0.732        0.385       83.315       38.259        0.211      337.509        9.531      867.032
11/27/2014  07:03:00      -97.840       95.388      -18.376       40.119       32.976       28.820     1609.516     1087.396      830.596        1.127        0.176      136.644       28.533        0.044      337.626        9.726      867.015
11/27/2014  07:04:00      -87.992       60.345      -17.639       35.641       28.819       24.511     1270.313      830.538      600.809        0.720        0.135      106.696       19.902        0.035      337.853       10.106      866.987
11/27/2014  07:05:00      -61.384      -36.742       -6.338       26.077       36.453       20.994      679.984     1328.857      440.728        0.380        0.122       71.540       16.322        0.052      337.411        9.367      866.985
11/27/2014  07:06:00      -25.548      -22.594       -1.070       29.674       23.653       21.979      880.559      559.465      483.084        0.154        0.096       34.106       15.252        0.200      337.065        8.786      867.012
11/27/2014  07:07:00      -68.338      -33.291      -12.841       27.678       21.968       15.921      766.097      482.581      253.487        0.372        0.075       76.016       15.372        0.041      337.260        9.114      867.038
11/27/2014  07:08:00      -89.544      -17.627      -12.586       29.476       24.501       15.780      868.857      600.299      248.999        0.510        0.086       91.263       15.218        0.028      337.212        9.033      867.073
11/27/2014  07:09:00      -40.765      -35.494       -0.178       23.473       11.872       14.460      550.975      140.943      209.100        0.191        0.045       54.052       12.854        0.057      337.197        9.009      867.088
11/27/2014  07:10:00       -4.646      -33.829       -2.767       19.298       20.325       16.251      372.413      413.117      264.105        0.111        0.052       34.147       12.293        0.130      337.437        9.411      867.038
11/27/2014  07:11:00      -20.950      -10.289        2.520       12.109       20.259       12.891      146.619      410.429      166.171        0.064        0.036       23.341       12.524        0.288      337.363        9.286      867.000
11/27/2014  07:12:00      -82.909      -18.653      -11.496       36.837       15.657       15.006     1356.977      245.151      225.178        0.459        0.091       84.981       15.591        0.034      337.510        9.533      867.029
11/27/2014  07:13:00     -152.330      -10.394      -20.296       24.218       23.415       18.233      586.532      548.272      332.450        1.260        0.073      152.684       12.338        0.007      337.352        9.269      867.073
11/27/2014  07:14:00     -158.244        4.502      -16.828       57.630       47.002       38.790     3321.184     2209.202     1504.664        1.619        0.352      158.308       32.319        0.042      337.434        9.406      867.100
11/27/2014  07:15:00     -195.286      -20.507      -22.804       43.187       55.158       29.407     1865.131     3042.446      864.800        2.242        0.289      196.360       20.988        0.011      337.200        9.011      867.149
11/27/2014  07:16:00     -195.527      -25.885      -20.706       40.034       46.320       29.712     1602.743     2145.562      882.792        2.198        0.232      197.233       28.443        0.021      336.949        8.592      867.191
11/27/2014  07:17:00     -120.335       18.431       -9.440       37.124       36.108       22.999     1378.191     1303.761      528.931        0.906        0.161      121.739       22.592        0.034      337.488        9.496      867.200
11/27/2014  07:18:00     -103.788       48.507       -5.412       47.462       33.068       24.287     2252.599     1093.501      589.855        0.854        0.197      114.564       13.081        0.013      337.445        9.424      867.146
11/27/2014  07:19:00      -58.663       84.795      -12.083       26.086       30.001       18.902      680.475      900.044      357.268        0.636        0.097      103.109       17.496        0.029      337.822       10.056      867.056
11/27/2014  07:20:00      -26.279      135.135      -23.262       21.137       29.622       14.582      446.772      877.444      212.629        1.051        0.077      137.667       15.018        0.012      338.575       11.319      866.980
11/27/2014  07:21:00       -2.722      121.691      -17.068       14.117       19.788       10.541      199.281      391.561      111.116        0.790        0.035      121.721       10.715        0.008      339.046       12.112      866.992
11/27/2014  07:22:00      -65.331      -24.962      -15.388       18.851       26.130       10.808      355.356      682.787      116.822        0.314        0.058       69.937       10.419        0.022      337.890       10.170      867.032
11/27/2014  07:23:00     -100.341      -35.179      -19.183       12.036       12.930        9.452      144.877      167.187       89.347        0.604        0.020      106.329        4.934        0.002      337.026        8.723      867.056
11/27/2014  07:24:00     -104.908      -33.594      -14.384       19.417       14.314       12.468      377.024      204.889      155.454        0.654        0.037      110.156       10.447        0.009      336.967        8.624      867.038
11/27/2014  07:25:00      -33.752      -38.128       -2.364       21.891       12.886        6.716      479.225      166.059       45.107        0.164        0.035       50.921        7.474        0.022      337.233        9.068      866.997
11/27/2014  07:26:00       -2.015       -5.095       18.140       23.767       48.938       39.865      564.859     2394.910     1589.249        0.245        0.227        5.479       40.689       55.156      337.246        9.089      866.976
11/27/2014  07:27:00        9.019       50.754       62.146       26.244       26.739       14.405      688.769      714.999      207.504        0.407        0.081       51.549       13.430        0.068      337.020        8.711      866.978
11/27/2014  07:28:00       10.291       38.432       74.886       35.776       44.649       34.591     1279.923     1993.542     1196.525        0.583        0.223       39.787       25.124        0.399      337.020        8.711      866.999
11/27/2014  07:29:00        1.834       33.142       67.128       30.819       47.945       33.692      949.823     2298.720     1135.139        0.499        0.219       33.193       33.013        0.989      336.972        8.632      867.011
11/27/2014  07:30:00        2.718       10.381       33.543       15.033       22.938       24.648      225.977      526.148      607.516        0.130        0.068       10.731       16.629        2.401      337.081        8.814      867.001
11/27/2014  07:31:00      -23.340      -27.129      -10.916       25.608       12.951        8.885      655.779      167.727       78.942        0.115        0.045       35.788        8.355        0.055      337.506        9.528      867.006
11/27/2014  07:32:00      -97.906      -42.109      -13.338       31.948       14.954        9.134     1020.671      223.627       83.433        0.643        0.066      106.578        7.436        0.005      337.310        9.197      867.041
11/27/2014  07:33:00     -218.412      -83.290      -21.664       40.382       32.015       12.000     1630.676     1024.982      144.001        2.895        0.140      233.754       13.068        0.003      336.807        8.352      867.069
11/27/2014  07:34:00     -120.771      -38.983      -14.795       55.893       39.713       31.058     3124.035     1577.145      964.621        1.099        0.283      126.907       32.214        0.064      336.925        8.553      867.068
11/27/2014  07:35:00      -71.131      -19.898       -8.099       16.060       18.137       14.074      257.921      328.952      198.080        0.315        0.039       73.862       10.878        0.022      337.062        8.782      867.014
11/27/2014  07:36:00      -74.144       -6.343       -8.051       30.454       27.953       16.947      927.422      781.344      287.212        0.380        0.100       74.414       12.589        0.029      337.384        9.322      866.951
11/27/2014  07:37:00      -73.862        9.074       -5.894       22.670       25.892       17.109      513.947      670.419      292.732        0.352        0.074       74.418       13.404        0.032      337.713        9.872      866.932
11/27/2014  07:38:00      -56.123       19.289       -5.394       26.365       22.196       17.993      695.094      492.659      323.735        0.253        0.076       59.345        9.800        0.027      337.792       10.007      866.954
11/27/2014  07:39:00      -44.687       16.067      -13.657       18.457       28.565       13.415      340.652      815.954      179.974        0.189        0.067       47.487        9.185        0.037      337.936       10.246      866.968
11/27/2014  07:40:00      -89.403      -43.566      -13.712       29.852       28.683       12.646      891.123      822.727      159.913        0.598        0.094       99.453        9.919        0.010      337.070        8.797      866.976
11/27/2014  07:41:00      -87.758       -2.285      -15.324       40.327       42.703       26.718     1626.292     1823.583      713.869        0.605        0.208       87.788       16.747        0.036      337.137        8.909      866.996
11/27/2014  07:42:00     -108.125       -4.583      -19.180       56.292       57.008       31.484     3168.770     3249.940      991.260        0.974        0.370      108.222       26.037        0.058      337.305        9.190      867.016
11/27/2014  07:43:00      -99.885        2.142        1.575       67.258       51.171       41.862     4523.615     2618.452     1752.386        0.944        0.445       99.908       38.154        0.146      337.254        9.103      867.027
11/27/2014  07:44:00     -163.271      -16.293      -16.120       47.501       49.389       30.496     2256.360     2439.243      930.025        1.640        0.281      164.082       28.017        0.029      337.247        9.091      867.066
11/27/2014  07:45:00     -105.199      -45.140       -2.796       66.490       32.174       24.258     4420.968     1035.138      588.468        0.958        0.302      114.475       28.843        0.063      336.907        8.524      867.114
11/27/2014  07:46:00      -65.905      -59.885       -7.589       26.531       29.353       16.197      703.878      861.583      262.350        0.491        0.091       89.049       15.526        0.030      337.347        9.259      867.114
11/27/2014  07:47:00     -107.084      -20.455      -12.287       17.102       15.725       12.368      292.493      247.282      152.960        0.636        0.035      109.020       10.561        0.009      337.450        9.432      867.067
11/27/2014  07:48:00     -145.842      -40.755      -15.749       18.940       23.226       15.055      358.719      539.425      226.657        1.215        0.056      151.430        8.318        0.003      337.140        8.913      867.036
11/27/2014  07:49:00     -115.560      -56.833       -9.406       19.884       15.480       13.871      395.384      239.622      192.410        0.875        0.041      128.779       10.568        0.007      337.142        8.916      867.037
11/27/2014  07:50:00     -124.238      -24.610      -17.973       13.646       20.552       10.934      186.216      422.374      119.562        0.855        0.036      126.652       11.868        0.009      337.571        9.636      867.019
11/27/2014  07:51:00      -71.042      -14.299       -4.955       22.717       25.388       17.983      516.077      644.563      323.373        0.338        0.074       72.467       11.677        0.026      337.414        9.373      866.997
11/27/2014  07:52:00      -81.821      -12.304       -9.477       29.422       26.901       19.178      865.660      723.667      367.808        0.445        0.098       82.741       16.240        0.039      337.521        9.550      867.001
11/27/2014  07:53:00      -86.867      -39.384       -1.844       46.327       38.873       27.383     2146.220     1511.094      749.849        0.675        0.220       95.378       21.768        0.052      337.153        8.934      867.033
11/27/2014  07:54:00     -202.961      -58.812      -13.570       41.356       51.721       23.151     1710.297     2675.097      535.948        2.488        0.246      211.311       20.073        0.009      337.016        8.703      867.063
11/27/2014  07:55:00     -222.837       -1.544      -20.394       50.086       31.453       23.389     2508.644      989.261      547.044        2.706        0.202      222.842       24.985        0.013      337.001        8.678      867.064
11/27/2014  07:56:00     -143.173       -6.099       -9.476       51.543       35.395       30.853     2656.701     1252.822      951.937        1.274        0.243      143.302       30.729        0.046      337.062        8.783      867.067
11/27/2014  07:57:00      -95.753      -11.200      -11.362       42.643       38.028       26.331     1818.456     1446.108      693.326        0.669        0.198       96.405       25.153        0.068      337.103        8.850      867.058
11/27/2014  07:58:00      -96.256       19.115       -0.647       60.072       40.530       26.619     3608.653     1642.664      708.574        0.779        0.298       98.135       23.600        0.058      337.655        9.775      867.058
11/27/2014  07:59:00      -22.443      -72.301       -1.958       34.593       41.397       16.439     1196.643     1713.701      270.235        0.446        0.159       75.704       17.641        0.054      337.281        9.150      867.083
11/27/2014  08:00:00       16.762      -88.469        9.382       16.019       24.296       16.740      256.603      590.312      280.232        0.466        0.056       90.043        8.962        0.010      337.704        9.858      867.101
11/27/2014  08:01:00      -95.828      -32.249       -5.876       37.406       20.619       10.242     1399.220      425.138      104.890        0.609        0.096      101.109       12.904        0.016      337.299        9.179      867.113
11/27/2014  08:02:00     -146.919      -21.756      -12.754       33.558       22.031       18.832     1126.131      485.378      354.646        1.209        0.098      148.521       14.913        0.010      337.225        9.054      867.132
11/27/2014  08:03:00     -164.574      -19.569      -13.366       30.500       31.012       21.418      930.269      961.713      458.723        1.500        0.118      165.734       16.901        0.010      337.384        9.322      867.120
11/27/2014  08:04:00     -117.878       32.248        1.493       76.170       58.401       32.990     5801.917     3410.693     1088.345        1.262        0.515      122.209       32.789        0.072      337.768        9.965      867.088
11/27/2014  08:05:00     -115.475       54.733       -5.676       35.375       43.402       24.781     1251.408     1883.769      614.094        1.006        0.187      127.790       15.389        0.015      338.014       10.379      867.063
11/27/2014  08:06:00      -59.908      -11.996       -6.107       23.724       34.352       19.964      562.830     1180.074      398.545        0.296        0.107       61.097       13.573        0.049      337.737        9.913      867.064
11/27/2014  08:07:00      -43.205       44.098       -7.789       26.378       48.352       18.189      695.818     2337.893      330.845        0.362        0.168       61.736       18.287        0.088      338.025       10.396      867.053
11/27/2014  08:08:00       18.157       10.493        8.391       14.636       22.478        9.066      214.226      505.257       82.183        0.066        0.040       20.971        7.122        0.115      337.805       10.028      867.047
11/27/2014  08:09:00      -88.496      -46.482      -13.196       40.937       25.766       14.212     1675.868      663.876      201.994        0.635        0.127       99.961       21.103        0.045      337.528        9.563      867.058
11/27/2014  08:10:00     -167.506      -89.994       -8.722       40.715       39.450       21.290     1657.749     1556.263      453.262        1.995        0.183      190.150       15.155        0.006      337.063        8.783      867.081
11/27/2014  08:11:00     -235.917        3.764      -22.332       64.709       56.172       33.223     4187.281     3155.348     1103.764        3.231        0.422      235.947       27.608        0.014      337.313        9.200      867.090
11/27/2014  08:12:00     -150.083        7.900       -5.460       74.024       59.009       37.500     5479.571     3482.067     1406.256        1.649        0.518      150.291       36.239        0.058      337.664        9.790      867.105
11/27/2014  08:13:00     -189.424       49.269      -15.212       45.324       51.498       27.173     2054.287     2652.095      738.388        2.199        0.272      195.727       19.766        0.010      338.015       10.378      867.147
11/27/2014  08:14:00      -25.383      -47.480        4.382       79.769       35.434       25.634     6363.134     1255.586      657.080        0.560        0.414       53.839       26.141        0.236      337.575        9.642      867.181
11/27/2014  08:15:00      -23.271      -77.611        7.260       43.668       37.275       28.578     1906.912     1389.412      816.695        0.536        0.206       81.025       23.787        0.086      337.656        9.777      867.169
11/27/2014  08:16:00       19.219       17.637        1.596       22.128       24.918       13.231      489.634      620.919      175.048        0.098        0.064       26.085       11.979        0.211      337.745        9.926      867.070
11/27/2014  08:17:00       78.902       30.334       16.342       32.585       21.198       22.162     1061.782      449.371      491.170        0.471        0.100       84.532       15.632        0.034      337.528        9.561      866.986
11/27/2014  08:18:00       92.088       60.430       19.069       24.562       16.615       19.396      603.283      276.062      376.203        0.688        0.063      110.146       10.045        0.008      337.374        9.304      866.941
11/27/2014  08:19:00       90.268       61.604       -1.176       31.621       27.369       33.384      999.903      749.048     1114.488        0.740        0.143      109.286       21.992        0.040      337.088        8.827      866.951
11/27/2014  08:20:00       40.374       31.271        1.572       34.554       24.842       11.237     1193.954      617.116      126.263        0.227        0.097       51.068        7.083        0.019      337.105        8.853      866.983
11/27/2014  08:21:00      -52.213        1.450      -10.914       29.809       39.645       14.869      888.602     1571.699      221.086        0.276        0.134       52.234       12.876        0.061      337.283        9.153      867.023
11/27/2014  08:22:00     -183.290      -83.311      -15.682       43.495       42.650       22.215     1891.857     1819.029      493.525        2.249        0.210      201.336       18.314        0.008      337.188        8.992      867.075
11/27/2014  08:23:00     -236.490      -85.008       -9.725       54.641       48.214       29.816     2985.642     2324.587      888.982        3.472        0.310      251.305       27.198        0.012      337.418        9.374      867.131
11/27/2014  08:24:00     -177.523      -66.205       -8.973       49.831       52.730       31.107     2483.100     2780.503      967.664        2.110        0.312      189.467       29.123        0.024      337.516        9.541      867.171
11/27/2014  08:25:00     -152.838      -38.213      -15.816       31.004       41.573       21.775      961.225     1728.355      474.137        1.412        0.158      157.543       15.475        0.010      337.521        9.550      867.187
11/27/2014  08:26:00      -62.329       -6.250       -1.974       53.757       27.924       18.496     2889.804      779.738      342.097        0.397        0.201       62.642       23.862        0.145      337.717        9.879      867.140
11/27/2014  08:27:00       56.341       50.943        1.148       30.262       21.872       18.623      915.771      478.396      346.813        0.376        0.087       75.957       11.805        0.024      337.839       10.083      867.048
11/27/2014  08:28:00       78.929       54.416       -1.496       23.863       36.098       26.773      569.458     1303.094      716.796        0.589        0.129       95.869       19.249        0.040      337.518        9.547      866.989
11/27/2014  08:29:00       23.193       55.770       -6.649       33.736       44.751       21.063     1138.127     2002.688      443.646        0.364        0.179       60.401       24.600        0.166      337.567        9.628      866.983
11/27/2014  08:30:00      -42.816       56.315      -15.741       35.640       45.999       20.155     1270.176     2115.878      406.223        0.452        0.190       70.743       19.023        0.072      338.049       10.436      867.042
11/27/2014  08:31:00      -85.375      -30.168      -14.282       39.483       24.962       20.588     1558.868      623.114      423.875        0.550        0.130       90.548       18.119        0.040      337.534        9.572      867.119
11/27/2014  08:32:00     -120.789      -87.661       -9.449       70.408       41.849       31.947     4957.235     1751.377     1020.594        1.504        0.386      149.246       33.361        0.050      337.400        9.347      867.182
11/27/2014  08:33:00     -129.853     -111.133       10.506       72.216       74.256       41.969     5215.159     5513.906     1761.426        2.090        0.625      170.916       44.637        0.068      337.569        9.630      867.247
11/27/2014  08:34:00     -102.120     -201.728        0.330       91.709      110.141       52.254     8410.535    12130.996     2730.464        3.719        1.164      226.103       53.399        0.056      337.635        9.740      867.275
11/27/2014  08:35:00      -91.176     -138.842       -8.691       54.527       71.739       37.789     2973.234     5146.520     1428.005        1.860        0.477      166.103       31.128        0.035      337.728        9.898      867.219
11/27/2014  08:36:00      -57.211       -8.083       -1.658       37.186       26.867       19.112     1382.774      721.846      365.279        0.291        0.123       57.779       20.414        0.125      337.880       10.153      867.070
11/27/2014  08:37:00        6.215       63.429        0.353       15.759       29.784       17.836      248.332      887.072      318.127        0.276        0.073       63.733       16.491        0.067      337.934       10.244      866.964
11/27/2014  08:38:00        6.051       80.557      -17.717       24.602       16.076        6.897      605.270      258.430       47.570        0.388        0.046       80.784        6.579        0.007      337.907       10.199      866.938
11/27/2014  08:39:00      -25.390       58.571      -16.348       22.489       15.539       11.765      505.744      241.447      138.412        0.261        0.044       63.838        9.101        0.020      338.274       10.815      866.947
11/27/2014  08:40:00      -11.691       39.285       -6.526       23.734       15.125       10.471      563.321      228.769      109.642        0.131        0.045       40.988        8.336        0.041      338.125       10.562      867.006
11/27/2014  08:41:00      -13.718       45.524       -6.072       11.972       13.955       11.080      143.324      194.729      122.763        0.138        0.023       47.546        8.642        0.033      337.992       10.342      867.062
11/27/2014  08:42:00      -30.512       39.807      -14.454       16.780       11.418        9.058      281.574      130.381       82.046        0.161        0.025       50.156        7.624        0.023      338.006       10.364      867.076
11/27/2014  08:43:00      -36.545       37.329      -17.512       13.759       12.206        8.726      189.312      148.988       76.146        0.173        0.021       52.240        0.834        0.000      338.187       10.669      867.080
11/27/2014  08:44:00      -45.745       -9.431      -11.251       11.768       27.815       10.409      138.481      773.696      108.353        0.166        0.051       46.707        9.183        0.039      338.191       10.675      867.094
11/27/2014  08:45:00      -66.313      -41.379       -9.314       19.856        7.145        6.528      394.279       51.048       42.619        0.334        0.024       78.164        5.190        0.004      337.775        9.977      867.115
11/27/2014  08:46:00      -89.512      -28.533      -18.050       21.747       19.249       15.252      472.936      370.522      232.629        0.511        0.054       93.949        7.601        0.007      337.951       10.273      867.128
11/27/2014  08:47:00      -86.117      -12.001      -16.954       26.431       16.425       13.522      698.576      269.777      182.857        0.450        0.058       86.949        8.508        0.010      338.014       10.377      867.120
11/27/2014  08:48:00      -86.124      -28.667      -16.408       18.871       16.641       13.098      356.127      276.935      171.564        0.466        0.040       90.770        7.911        0.008      337.827       10.064      867.123
11/27/2014  08:49:00      -42.135        0.974       -9.688       33.869       21.870        9.761     1147.102      478.305       95.287        0.180        0.086       42.146        8.197        0.038      338.056       10.447      867.105
11/27/2014  08:50:00        5.210      -17.566        1.865       10.241       11.613        6.642      104.873      134.860       44.112        0.031        0.014       18.322        5.672        0.096      338.156       10.616      867.109
11/27/2014  08:51:00       -1.034      -31.766       -1.251        6.869        6.686        8.709       47.184       44.699       75.847        0.059        0.008       31.783        4.564        0.021      338.220       10.722      867.135
11/27/2014  08:52:00      -23.214      -26.099       -7.965       11.632       11.208        6.331      135.297      125.610       40.088        0.079        0.015       34.930        5.135        0.022      338.293       10.846      867.152
11/27/2014  08:53:00        2.807        8.461       16.572        9.359       19.698       18.126       87.597      388.011      328.549        0.058        0.040        8.914       16.606        3.471      338.345       10.933      867.134
11/27/2014  08:54:00        4.252       66.364       70.950       22.410       23.421       12.850      502.191      548.563      165.119        0.534        0.061       66.501       11.733        0.031      338.083       10.493      867.103
11/27/2014  08:55:00       67.486       53.568       18.570       25.825       22.934       27.156      666.945      525.975      737.429        0.485        0.097       86.162       20.613        0.057      338.069       10.470      867.079
11/27/2014  08:56:00       39.225       20.930        0.388       10.995       10.810       10.732      120.892      116.856      115.186        0.116        0.018       44.459        7.905        0.032      338.106       10.532      867.073
11/27/2014  08:57:00        3.095       34.258       -8.914       13.082        9.158        3.173      171.126       83.874       10.070        0.076        0.013       34.398        3.977        0.013      338.299       10.858      867.096
11/27/2014  08:58:00       -4.544       -6.272       -4.056       12.769       18.895        5.916      163.046      357.013       34.994        0.032        0.028        7.745        2.194        0.080      338.345       10.933      867.126
11/27/2014  08:59:00       -2.991      -14.440       -1.542        7.743        6.352        5.183       59.959       40.348       26.865        0.017        0.006       14.747        2.723        0.034      338.274       10.814      867.126
11/27/2014  09:00:00        2.514        7.243       12.195        5.263        7.587        5.901       27.695       57.558       34.820        0.016        0.006        7.667        1.294        0.029      338.587       11.338      867.118
11/27/2014  09:01:00        2.528        7.492        3.979        3.703        5.304        4.451       13.710       28.137       19.813        0.007        0.003        7.907        2.522        0.102      338.580       11.328      867.099
11/27/2014  09:02:00      -10.138      -15.422        7.101        7.889        9.395        5.276       62.232       88.260       27.838        0.028        0.009       18.456        5.389        0.085      338.495       11.184      867.106
11/27/2014  09:03:00      -32.746      -23.337       -2.108        7.616        6.879        5.310       58.001       47.317       28.197        0.088        0.007       40.211        3.370        0.007      338.526       11.237      867.110
11/27/2014  09:04:00      -39.534      -19.869       -6.533       11.600        7.940        4.292      134.566       63.039       18.425        0.111        0.011       44.246        2.752        0.004      338.480       11.159      867.115
11/27/2014  09:05:00      -16.861      -21.651        1.119        8.769        7.163        6.620       76.901       51.309       43.829        0.046        0.009       27.442        5.952        0.047      338.591       11.347      867.123
11/27/2014  09:06:00       -6.986        2.426        3.116        7.473       12.418        9.549       55.841      154.215       91.177        0.018        0.015        7.395        9.942        1.807      339.078       12.164      867.112
11/27/2014  09:07:00       -6.122       20.870        4.098       12.127       10.066       12.296      147.070      101.324      151.193        0.044        0.020       21.749        8.484        0.152      339.158       12.299      867.085
11/27/2014  09:08:00       -7.635       33.000        2.363       16.385       18.893       16.528      268.452      356.938      273.178        0.103        0.045       33.871       15.815        0.218      339.384       12.681      867.059
11/27/2014  09:09:00        8.940       31.796       10.081       18.351       18.045       11.933      336.749      325.613      142.407        0.100        0.040       33.029        7.263        0.048      339.437       12.769      867.027
11/27/2014  09:10:00       26.158       16.244        6.160        6.324        7.944        7.747       39.998       63.105       60.011        0.057        0.008       30.791        3.492        0.013      339.082       12.171      867.007
11/27/2014  09:11:00       38.215       26.708       11.042       10.043        7.430        8.404      100.868       55.210       70.631        0.126        0.011       46.623        5.985        0.016      339.058       12.131      866.987
11/27/2014  09:12:00       66.980       32.131        3.820       15.441       10.679       10.690      238.412      114.033      114.273        0.300        0.023       74.288        6.512        0.008      338.903       11.870      866.981
11/27/2014  09:13:00       66.404       52.202       36.345       34.453       30.369       28.721     1187.006      922.297      824.905        0.569        0.147       84.466       18.812        0.050      338.884       11.839      867.001
11/27/2014  09:14:00       41.698       60.730       38.752       38.015       20.233       33.519     1445.147      409.372     1123.536        0.495        0.149       73.667       26.292        0.127      338.817       11.725      867.024
11/27/2014  09:15:00       60.751       35.558       13.052       32.103       21.266       22.371     1030.630      452.226      500.444        0.355        0.099       70.392       12.937        0.034      338.690       11.513      867.022
11/27/2014  09:16:00       48.554       33.449       43.014       35.725       26.563       24.139     1276.291      705.607      582.714        0.395        0.128       58.960       19.115        0.105      338.746       11.607      867.009
11/27/2014  09:17:00       67.179       32.371       28.718       43.963       30.781       25.559     1932.786      947.489      653.264        0.496        0.177       74.572       20.269        0.074      338.697       11.526      867.016
11/27/2014  09:18:00       58.379       45.198        8.842       23.784       17.275       18.828      565.683      298.432      354.492        0.337        0.061       73.830       10.777        0.021      338.592       11.348      867.027
11/27/2014  09:19:00       28.302       19.871       -5.131       28.771       15.109       14.346      827.795      228.275      205.798        0.124        0.063       34.581        4.710        0.019      338.497       11.191      867.041
11/27/2014  09:20:00      -56.342      -16.221       -3.032       35.360       20.700        7.700     1250.320      428.470       59.285        0.259        0.087       58.630       12.382        0.045      338.521       11.228      867.073
11/27/2014  09:21:00      -46.717      -44.539        0.611       38.923       32.668       18.296     1515.022     1067.205      334.744        0.354        0.146       64.546       20.653        0.102      338.529       11.241      867.093
11/27/2014  09:22:00      -40.487      -49.430        9.414       36.976       21.079       20.409     1367.193      444.304      416.533        0.320        0.111       63.895       21.137        0.109      338.683       11.502      867.119
11/27/2014  09:23:00      -63.910      -49.855        3.644       51.914       30.431       17.667     2695.075      926.033      312.128        0.526        0.197       81.056       22.913        0.080      338.822       11.737      867.131
11/27/2014  09:24:00     -124.903      -66.861       -2.813       24.007       24.852       15.044      576.322      617.619      226.333        1.075        0.071      141.673       13.844        0.010      338.899       11.864      867.129
11/27/2014  09:25:00     -108.054      -52.021       -1.314       26.009       20.288       15.514      676.461      411.586      240.692        0.786        0.066      119.924       12.428        0.011      338.883       11.837      867.125
11/27/2014  09:26:00     -101.880      -56.591        0.022       24.137       18.792       15.969      582.596      353.153      255.005        0.739        0.060      116.542       15.086        0.017      338.992       12.019      867.109
11/27/2014  09:27:00      -49.154      -24.861        0.074       25.819       11.504        5.209      666.599      132.333       27.136        0.193        0.041       55.084        6.863        0.016      339.138       12.266      867.059
11/27/2014  09:28:00       22.580       28.084       11.368       15.362       19.531       13.595      236.004      381.453      184.813        0.111        0.040       36.036        8.378        0.054      339.143       12.274      866.980
11/27/2014  09:29:00      117.715       52.773        0.042       44.084       31.928       21.733     1943.419     1019.368      472.345        1.004        0.172      129.003       16.071        0.016      338.954       11.957      866.923
11/27/2014  09:30:00      170.108       75.634       -6.017       35.934       35.943       34.604     1291.286     1291.866     1197.410        1.924        0.189      186.165       11.222        0.004      338.889       11.846      866.875
11/27/2014  09:31:00      149.779       64.555        8.281       38.761       35.179       38.484     1502.423     1237.581     1481.001        1.544        0.211      163.099       21.863        0.018      338.714       11.553      866.879
11/27/2014  09:32:00      102.630       44.649        7.632       44.341       28.351       21.478     1966.090      803.779      461.292        0.791        0.162      111.921       18.911        0.029      338.631       11.413      866.899
11/27/2014  09:33:00       49.972       30.627       10.726       33.005       17.369       16.325     1089.344      301.668      266.500        0.260        0.083       58.611       11.759        0.040      338.608       11.374      866.929
11/27/2014  09:34:00       46.050       -5.991       16.012       27.336       27.654       17.720      747.246      764.727      313.982        0.212        0.091       46.438       18.554        0.160      338.596       11.354      866.948
11/27/2014  09:35:00       29.292       28.825       33.635       31.864       19.852       14.279     1015.295      394.087      203.900        0.222        0.081       41.097       13.509        0.108      338.585       11.337      866.972
11/27/2014  09:36:00      -39.458      -16.919        1.916       22.418       15.731       13.268      502.555      247.454      176.045        0.139        0.046       42.933       13.766        0.103      338.642       11.432      867.000
11/27/2014  09:37:00      -88.089      -39.987      -13.149       21.986       24.983       10.469      483.389      624.171      109.607        0.537        0.061       96.740        7.844        0.007      338.940       11.932      866.994
11/27/2014  09:38:00      -63.385       -7.805       -0.749       26.088       25.152       19.282      680.573      632.611      371.805        0.288        0.084       63.864       16.021        0.063      339.222       12.408      866.972
11/27/2014  09:39:00      -83.402      -23.526       -8.072       21.146       20.629       13.982      447.161      425.549      195.509        0.432        0.053       86.656        7.303        0.007      339.173       12.326      866.940
11/27/2014  09:40:00      -70.728      -51.276      -13.174       15.278       14.915       11.835      233.411      222.449      140.062        0.420        0.030       87.360        7.602        0.008      339.009       12.050      866.940
11/27/2014  09:41:00      -51.717      -51.649       -6.770       27.286       17.066        8.714      744.515      291.260       75.928        0.325        0.056       73.091        8.990        0.015      339.057       12.128      866.956
11/27/2014  09:42:00      -28.110      -22.547        1.886       25.093       16.270       12.345      629.651      264.724      152.403        0.117        0.052       36.035       10.846        0.091      339.117       12.230      866.972
11/27/2014  09:43:00       -4.128      -29.352        4.781       13.400       13.688        9.436      179.556      187.365       89.045        0.068        0.023       29.641        6.898        0.054      339.257       12.466      866.980
11/27/2014  09:44:00      -15.408      -25.575       -3.561        9.151        9.362        6.151       83.743       87.645       37.831        0.056        0.010       29.858        4.097        0.019      339.283       12.509      866.965
11/27/2014  09:45:00        8.706       14.939        9.562       10.899       21.077        7.670      118.782      444.259       58.828        0.051        0.031       17.291        4.490        0.067      339.294       12.529      866.941
11/27/2014  09:46:00        8.871       49.348      -13.479        8.183        9.441        6.918       66.954       89.123       47.859        0.145        0.010       50.139        5.634        0.013      339.304       12.546      866.905
11/27/2014  09:47:00        1.671       58.745      -10.897       11.395       11.036        6.526      129.838      121.791       42.592        0.193        0.015       58.769        6.120        0.011      339.412       12.728      866.890
11/27/2014  09:48:00        9.630       55.511      -11.890        9.948        5.630        7.174       98.961       31.702       51.469        0.175        0.009       56.340        4.525        0.006      339.369       12.655      866.878
11/27/2014  09:49:00       18.135       52.616      -11.776       14.177       17.156        7.183      200.986      294.320       51.602        0.189        0.027       55.654        7.334        0.017      339.357       12.634      866.870
11/27/2014  09:50:00       22.629       35.640      -12.258       14.575       19.724       11.974      212.422      389.053      143.378        0.134        0.037       42.218       12.286        0.085      339.398       12.703      866.874
11/27/2014  09:51:00       14.927       26.830       -6.978       15.090       11.751        7.364      227.703      138.079       54.227        0.071        0.021       30.703        6.029        0.039      339.420       12.743      866.861
11/27/2014  09:52:00       33.103       29.598       -7.912       16.136       27.068       12.082      260.366      732.685      145.973        0.159        0.057       44.405        6.909        0.024      339.543       12.948      866.868
11/27/2014  09:53:00        6.897       13.656       21.035       11.448       23.074       12.965      131.065      532.404      168.100        0.075        0.042       15.298       13.006        0.723      339.637       13.107      866.859
11/27/2014  09:54:00       -6.478        6.715       17.549       10.748       17.898       15.870      115.513      320.335      251.867        0.054        0.034        9.330       10.925        1.371      339.792       13.368      866.863
11/27/2014  09:55:00      -21.601      -25.421       -0.272       21.840        9.152       11.600      476.995       83.760      134.548        0.090        0.035       33.359        8.859        0.071      339.619       13.077      866.880
11/27/2014  09:56:00      -99.899      -44.815       -5.893       38.856       22.286       16.134     1509.751      496.644      260.291        0.714        0.113      109.490       16.928        0.024      339.496       12.869      866.896
11/27/2014  09:57:00      -91.988      -74.736       -0.296       46.056       29.044       18.476     2121.118      843.572      341.371        0.868        0.165      118.521       21.568        0.033      339.556       12.970      866.911
11/27/2014  09:58:00      -46.250      -68.709       -1.131       21.982       36.364       15.471      483.197     1322.320      239.354        0.445        0.102       82.825       10.217        0.015      339.560       12.977      866.880
11/27/2014  09:59:00       -8.279      -13.715       -2.779       12.303        8.783        4.650      151.363       77.143       21.619        0.026        0.013       16.020        4.110        0.066      339.714       13.237      866.843
11/27/2014  10:00:00       12.775       20.008        0.952       12.392       21.442        8.916      153.573      459.739       79.491        0.063        0.035       23.738        8.454        0.127      339.908       13.562      866.827
11/27/2014  10:01:00       -7.669       22.473       -8.549       13.024       11.337        6.391      169.632      128.531       40.843        0.049        0.017       23.745        3.216        0.018      340.227       14.103      866.822
11/27/2014  10:02:00      -12.579      -18.539       -7.040       13.276       12.508        9.098      176.252      156.446       82.782        0.048        0.021       22.404       10.160        0.206      340.172       14.009      866.783
11/27/2014  10:03:00      -28.081       -9.149       -9.790       13.669       19.828       11.509      186.831      393.166      132.463        0.084        0.036       29.534       12.739        0.186      340.159       13.988      866.763
11/27/2014  10:04:00       -8.377      -32.680       -7.706        8.302        8.895        5.285       68.925       79.119       27.929        0.069        0.009       33.737        5.099        0.023      339.714       13.236      866.750
11/27/2014  10:05:00       13.072      -30.412       -9.246        8.216        4.520        5.965       67.509       20.431       35.579        0.065        0.006       33.102        4.185        0.016      339.919       13.583      866.756
11/27/2014  10:06:00        9.438      -23.618       -0.980        9.821       10.524        6.794       96.458      110.755       46.163        0.045        0.013       25.434        5.679        0.050      340.057       13.817      866.762
11/27/2014  10:07:00       11.192        3.495       -0.451       10.428       26.041       16.618      108.745      678.113      276.166        0.060        0.053       11.725       15.655        1.783      339.992       13.705      866.749
11/27/2014  10:08:00       23.307       23.717       19.578       13.492       12.018       13.534      182.028      144.421      183.172        0.100        0.025       33.253        8.202        0.061      339.852       13.470      866.737
11/27/2014  10:09:00       49.501       27.112       13.262       11.871        5.419        8.183      140.930       29.369       66.966        0.180        0.012       56.439        1.678        0.001      339.821       13.418      866.693
11/27/2014  10:10:00       34.883       18.203        8.154       23.200       14.170       12.211      538.226      200.778      149.111        0.125        0.044       39.346        8.600        0.048      339.792       13.367      866.660
11/27/2014  10:11:00       16.306       18.714       15.312       11.129       13.306       11.780      123.853      177.042      138.780        0.065        0.022       24.822        6.427        0.067      339.784       13.355      866.631
11/27/2014  10:12:00       23.582       22.668       17.051       11.662       13.322       13.061      136.008      177.479      170.603        0.092        0.024       32.710        4.615        0.020      339.715       13.238      866.646
11/27/2014  10:13:00       14.427       24.578        0.452       16.298       10.356       10.720      265.628      107.237      114.915        0.065        0.024       28.500        8.479        0.089      339.641       13.113      866.666
11/27/2014  10:14:00      -20.224       -4.284       -7.437       14.502       22.069        4.953      210.295      487.028       24.534        0.060        0.036       20.673        5.085        0.061      339.747       13.292      866.658
11/27/2014  10:15:00      -59.348      -45.309       -6.347        8.104        8.214        8.573       65.672       67.465       73.493        0.291        0.010       74.666        5.279        0.005      339.693       13.203      866.661
11/27/2014  10:16:00      -46.211      -39.901        3.757       17.956       16.234       12.878      322.424      263.555      165.841        0.225        0.038       61.054       10.361        0.029      339.586       13.020      866.661
11/27/2014  10:17:00      -63.280      -27.554       -8.752       12.493       11.900        9.885      156.072      141.614       97.712        0.262        0.020       69.019        8.639        0.016      339.823       13.420      866.661
11/27/2014  10:18:00      -82.502      -37.790      -14.585       15.009       16.298       10.834      225.284      265.635      117.384        0.453        0.030       90.745        6.919        0.006      339.966       13.661      866.661
11/27/2014  10:19:00      -76.956      -11.889       -3.871       36.393       26.365       17.312     1324.422      695.101      299.710        0.420        0.116       77.869       16.732        0.046      340.144       13.960      866.661
11/27/2014  10:20:00      -55.087      -33.760       -5.222       13.190       18.181       11.208      173.988      330.533      125.613        0.242        0.032       64.609        8.411        0.017      340.226       14.102      866.637
11/27/2014  10:21:00        9.022       -3.996        8.973       17.056       22.670       12.809      290.897      513.925      164.074        0.057        0.048        9.867       10.969        1.236      340.197       14.053      866.621
11/27/2014  10:22:00        1.073       50.165       54.505       23.045       24.961       21.220      531.060      623.031      450.296        0.355        0.080       50.177       11.093        0.049      339.828       13.429      866.605
11/27/2014  10:23:00       28.561       73.393       58.423       32.408       22.909       22.900     1050.301      524.823      524.421        0.586        0.105       78.754       21.082        0.072      339.743       13.285      866.601
11/27/2014  10:24:00        2.024       17.134       14.612       14.679       11.785       14.737      215.474      138.898      217.185        0.054        0.029       17.254       10.987        0.406      339.756       13.307      866.605
11/27/2014  10:25:00        0.928        5.426        7.111        6.814        5.290        6.156       46.425       27.986       37.902        0.010        0.006        5.504        3.666        0.444      339.899       13.549      866.608
11/27/2014  10:26:00       31.974       19.420        4.120        9.608       10.898       12.563       92.319      118.757      157.831        0.089        0.018       37.409        9.003        0.058      339.727       13.259      866.600
11/27/2014  10:27:00       14.768       11.990       -4.951       11.164       15.146       10.601      124.631      229.414      112.391        0.043        0.023       19.022       10.757        0.320      339.762       13.319      866.597
11/27/2014  10:28:00      -30.155      -41.339       -9.273       13.560       13.864       11.329      183.864      192.213      128.340        0.160        0.025       51.169        9.664        0.036      339.702       13.218      866.592
11/27/2014  10:29:00      -26.383      -38.778        0.912       14.859       21.680       14.316      220.777      470.022      204.945        0.155        0.045       46.902       15.178        0.105      339.602       13.048      866.576
11/27/2014  10:30:00       -9.194      -60.472       -2.177       13.932       13.808        7.027      194.102      190.660       49.376        0.209        0.022       61.167        5.971        0.010      339.794       13.371      866.564
11/27/2014  10:31:00        2.484        8.841       29.723       16.173       25.949       25.574      261.558      673.331      654.050        0.128        0.079        9.183       21.982        5.730      339.999       13.718      866.538
11/27/2014  10:32:00       63.119       74.646       54.446       48.395       34.362       35.637     2342.077     1180.763     1270.014        0.866        0.240       97.755       36.612        0.140      339.800       13.382      866.487
11/27/2014  10:33:00       48.897       37.837       44.247       32.501       33.996       27.659     1056.316     1155.748      765.035        0.438        0.149       61.827       20.674        0.112      339.812       13.402      866.426
11/27/2014  10:34:00       24.825       27.128       -8.255       19.931       19.719       15.980      397.262      388.832      255.354        0.123        0.052       36.773       12.190        0.110      339.734       13.272      866.384
11/27/2014  10:35:00      -28.967       15.317      -11.792       18.104       15.629        6.617      327.770      244.268       43.790        0.091        0.031       32.767        4.964        0.023      340.002       13.723      866.382
11/27/2014  10:36:00      -64.496      -28.079       -5.023       15.827       18.751       14.369      250.507      351.582      206.466        0.289        0.040       70.343       11.630        0.027      340.163       13.993      866.390
11/27/2014  10:37:00      -73.386      -40.082       -9.229       14.661       13.740        9.122      214.939      188.790       83.212        0.378        0.024       83.619        6.673        0.006      339.993       13.706      866.392
11/27/2014  10:38:00      -69.857      -36.973       -4.169       13.350        7.897        6.240      178.209       62.360       38.935        0.327        0.014       79.038        4.874        0.004      339.796       13.376      866.392
11/27/2014  10:39:00      -26.443      -50.812        0.154       16.704        6.054        9.491      279.010       36.645       90.071        0.184        0.020       57.281       11.749        0.042      340.282       14.195      866.367
11/27/2014  10:40:00       -7.951      -40.163       -0.132       12.292       13.221       13.325      151.094      174.805      177.552        0.109        0.025       40.942        4.252        0.011      340.417       14.423      866.345
11/27/2014  10:41:00       -1.085        0.775       25.653       14.552       22.976       18.194      211.764      527.894      331.025        0.087        0.054        1.333       11.351       72.538      340.304       14.232      866.352
11/27/2014  10:42:00        8.254      -20.512       26.553       21.632       28.315       30.389      467.964      801.759      923.520        0.169        0.110       22.110       18.642        0.711      340.173       14.009      866.358
11/27/2014  10:43:00      -10.655       12.671        2.006       23.375       15.350       21.732      546.374      235.636      472.284        0.077        0.063       16.555       16.919        1.044      340.127       13.933      866.352
11/27/2014  10:44:00      -62.435       13.403       -5.198       21.123       44.356       15.836      446.169     1967.499      250.785        0.338        0.133       63.857       13.223        0.043      340.330       14.277      866.321
11/27/2014  10:45:00      -61.181       40.472        5.724       22.029       25.956       17.161      485.267      673.715      294.503        0.343        0.073       73.356       12.320        0.028      340.475       14.522      866.280
11/27/2014  10:46:00      -71.604       24.007        1.661       24.164       26.792       17.887      583.920      717.791      319.946        0.366        0.081       75.521       13.479        0.032      340.644       14.807      866.242
11/27/2014  10:47:00      -38.369       33.137        2.259       24.710       28.684       17.189      610.588      822.761      295.472        0.215        0.086       50.698       15.726        0.096      340.505       14.572      866.219
11/27/2014  10:48:00      -25.538       53.104       -1.514       20.996       20.739       17.227      440.839      430.126      296.782        0.232        0.058       58.926        7.553        0.016      340.734       14.960      866.209
11/27/2014  10:49:00        8.697       16.153       16.109       12.411       14.849       13.245      154.028      220.492      175.431        0.057        0.027       18.346        9.995        0.297      340.622       14.771      866.209
11/27/2014  10:50:00        9.988      -19.977        4.633        6.148        8.439        6.758       37.794       71.214       45.665        0.034        0.008       22.334        3.735        0.028      340.604       14.740      866.194
11/27/2014  10:51:00       12.745      -12.724        5.544        8.093        6.528        7.414       65.491       42.617       54.972        0.026        0.008       18.010        4.823        0.072      340.664       14.841      866.188
11/27/2014  10:52:00       33.688       17.996       15.040       18.217       17.135       14.792      331.858      293.607      218.799        0.126        0.042       38.194       12.872        0.114      340.366       14.336      866.174
11/27/2014  10:53:00       40.298        9.257        0.486       13.120       12.683        8.182      172.130      160.860       66.952        0.105        0.020       41.347        8.190        0.039      340.222       14.092      866.167
11/27/2014  10:54:00      -12.199      -37.926      -12.762       17.252       10.806        9.198      297.644      116.776       84.604        0.112        0.025       39.840       10.822        0.074      340.546       14.641      866.152
11/27/2014  10:55:00      -59.588      -32.860       -6.110       16.543       10.466        7.450      273.680      109.546       55.506        0.255        0.022       68.048        7.905        0.013      340.545       14.640      866.117
11/27/2014  10:56:00      -82.367      -39.438       -9.887        9.217       12.037        6.210       84.961      144.884       38.564        0.435        0.013       91.322        6.701        0.005      340.682       14.870      866.093
11/27/2014  10:57:00      -58.494      -25.903       -6.308       21.857       17.567       12.980      477.748      308.582      168.491        0.254        0.048       63.973       11.069        0.030      340.619       14.765      866.091
11/27/2014  10:58:00      -48.442      -28.410        1.353       14.975       13.520        9.606      224.258      182.793       92.270        0.183        0.025       56.158        3.999        0.005      340.659       14.833      866.092
11/27/2014  10:59:00      -13.310      -30.672        7.824       11.001        7.410        6.673      121.016       54.911       44.526        0.070        0.011       33.436        5.085        0.023      340.693       14.891      866.076
11/27/2014  11:00:00       -6.451      -29.903       -2.483        5.395        3.820        3.793       29.107       14.593       14.388        0.050        0.003       30.591        3.564        0.014      340.817       15.101      866.065
11/27/2014  11:01:00       -2.829       -7.645        8.250        6.247       14.839        9.650       39.026      220.197       93.128        0.024        0.018        8.152       10.017        1.510      341.026       15.454      866.045
11/27/2014  11:02:00       -1.454       33.963       -4.634       12.910       22.815        7.435      166.679      520.527       55.281        0.096        0.037       33.994        6.326        0.035      341.227       15.792      866.015
11/27/2014  11:03:00      -14.350       45.691       -5.147       14.219       23.146       14.255      202.189      535.757      203.197        0.163        0.047       47.892        8.409        0.031      341.311       15.937      865.999
11/27/2014  11:04:00      -48.599       37.125      -13.113       18.487       14.878       12.757      341.771      221.354      162.734        0.232        0.036       61.157       12.108        0.039      341.235       15.808      866.025
11/27/2014  11:05:00      -55.631       37.108      -20.665       17.614       24.664       11.303      310.265      608.314      127.765        0.297        0.052       66.871       10.753        0.026      341.321       15.952      866.046
11/27/2014  11:06:00      -27.412       27.562       -8.662       17.828       23.150       15.914      317.851      535.933      253.268        0.135        0.055       38.873        8.839        0.052      341.318       15.947      866.010
11/27/2014  11:07:00      -15.398       73.713      -12.834       17.944       29.862       14.294      321.984      891.751      204.324        0.363        0.071       75.304       13.995        0.035      341.357       16.012      865.948
11/27/2014  11:08:00      -28.550       58.043      -11.245       22.210       28.928       16.075      493.295      836.849      258.405        0.295        0.079       64.684       17.170        0.070      341.539       16.322      865.934
11/27/2014  11:09:00      -35.730       46.374       -6.919       16.033       17.497       17.452      257.042      306.135      304.562        0.217        0.043       58.542       12.356        0.045      341.449       16.169      865.919
11/27/2014  11:10:00      -18.940       47.919       -8.026       17.208       15.504       13.215      296.107      240.359      174.641        0.172        0.036       51.526       12.510        0.059      341.527       16.301      865.911
11/27/2014  11:11:00       12.178       27.587        6.875       20.385       15.638       13.826      415.537      244.547      191.156        0.090        0.043       30.156       10.699        0.126      341.474       16.212      865.904
11/27/2014  11:12:00       28.173       21.906        7.346       17.294        8.910       12.220      299.091       79.384      149.319        0.093        0.026       35.688        8.140        0.052      341.255       15.842      865.870
11/27/2014  11:13:00        2.214        8.898       15.460       14.243        7.763        8.383      202.864       60.265       70.281        0.033        0.017        9.169        4.476        0.238      341.532       16.311      865.858
11/27/2014  11:14:00       -8.806       -8.512       -1.715        9.656       16.835       10.222       93.241      283.414      104.489        0.032        0.024       12.248        7.698        0.395      341.505       16.264      865.875
11/27/2014  11:15:00      -59.242      -35.259       -1.297       20.906       10.769        9.279      437.069      115.961       86.100        0.270        0.032       68.940        6.896        0.010      341.191       15.732      865.870
11/27/2014  11:16:00      -68.147      -28.143       -2.419       18.574       19.228       11.826      344.988      369.725      139.850        0.315        0.043       73.730        4.891        0.004      341.351       16.003      865.853
11/27/2014  11:17:00      -36.396      -29.232        1.051       13.067       12.350        8.225      170.752      152.513       67.651        0.129        0.020       46.682        3.799        0.007      341.557       16.353      865.803
11/27/2014  11:18:00        5.050       -0.506        4.924       10.966       11.851        7.407      120.258      140.444       54.870        0.018        0.016        5.075        6.383        1.582      341.805       16.772      865.747
11/27/2014  11:19:00      -12.811       11.159       -0.058       14.150       16.454       13.575      200.208      270.722      184.292        0.047        0.033       16.990       11.183        0.433      341.975       17.061      865.716
11/27/2014  11:20:00       -4.773       12.671       -5.249       10.660       12.928        8.185      113.645      167.132       66.993        0.028        0.017       13.540        5.440        0.161      341.904       16.940      865.698
11/27/2014  11:21:00      -34.220       17.356       -9.696       22.475       25.769       13.587      505.143      664.017      184.597        0.146        0.068       38.370       15.100        0.155      342.009       17.119      865.711
11/27/2014  11:22:00      -77.533      -22.044      -10.969       34.136       18.897       12.114     1165.240      357.112      146.755        0.414        0.083       80.606       15.543        0.037      341.783       16.737      865.720
11/27/2014  11:23:00      -88.652       -9.294      -12.129       29.133       27.802       19.909      848.718      772.945      396.371        0.505        0.101       89.138       15.987        0.032      341.892       16.921      865.709
11/27/2014  11:24:00     -104.656        3.437      -13.670       31.189       25.801       24.130      972.765      665.696      582.256        0.669        0.111      104.712       14.856        0.020      342.176       17.402      865.686
11/27/2014  11:25:00     -118.388      -18.505      -12.418       31.068       28.783       22.301      965.242      828.434      497.342        0.840        0.115      119.825       17.504        0.021      341.936       16.994      865.679
11/27/2014  11:26:00      -44.029        5.470        0.672       31.896       33.215       20.691     1017.364     1103.225      428.129        0.226        0.127       44.367       20.592        0.215      341.978       17.066      865.675
11/27/2014  11:27:00      -62.290       33.169      -15.983       27.244       37.046       20.719      742.254     1372.399      429.285        0.389        0.127       70.571       17.495        0.061      342.122       17.311      865.676
11/27/2014  11:28:00      -63.342       39.945       -9.802       25.608       24.657       22.626      655.778      607.949      511.924        0.374        0.089       74.885       15.649        0.044      342.207       17.454      865.653
11/27/2014  11:29:00      -59.203       80.111      -13.039       24.645       31.850       19.337      607.391     1014.442      373.923        0.604        0.100       99.613       13.740        0.019      342.186       17.420      865.624
11/27/2014  11:30:00      -31.918       64.397      -11.592       16.201       27.111       16.712      262.472      735.012      279.282        0.329        0.064       71.873       17.121        0.057      342.205       17.452      865.585
11/27/2014  11:31:00       -7.460       79.965      -18.121       20.521       13.078        8.526      421.093      171.041       72.696        0.372        0.033       80.313        7.513        0.009      342.318       17.645      865.564
11/27/2014  11:32:00      -20.094       82.889      -20.129       15.166       25.889        9.774      230.018      670.257       95.538        0.434        0.050       85.290       12.753        0.022      342.275       17.571      865.550
11/27/2014  11:33:00      -18.942       61.727      -11.224       20.424       23.480       14.932      417.122      551.294      222.950        0.274        0.060       64.568       14.779        0.052      342.307       17.625      865.547
11/27/2014  11:34:00      -19.591       79.728      -15.191       15.292       22.174       12.764      233.833      491.694      162.913        0.393        0.044       82.099       13.678        0.028      342.280       17.579      865.527
11/27/2014  11:35:00      -51.696       62.832      -13.030       22.815       23.323       15.368      520.532      543.964      236.189        0.405        0.065       81.365       11.317        0.019      342.291       17.596      865.529
11/27/2014  11:36:00      -73.584       74.135      -13.866       22.749       33.423       22.511      517.495     1117.113      506.762        0.662        0.107      104.454       15.066        0.021      342.181       17.410      865.545
11/27/2014  11:37:00      -69.171       24.479      -10.527       21.585       55.834       18.790      465.912     3117.420      353.060        0.471        0.197       73.375       11.224        0.023      342.117       17.301      865.577
11/27/2014  11:38:00      -97.103      -44.777       -6.051       44.079       29.548       21.469     1942.966      873.063      460.906        0.737        0.164      106.930       17.307        0.026      341.905       16.942      865.601
11/27/2014  11:39:00     -106.149      -28.409       -9.209       39.376       38.488       23.298     1550.433     1481.326      542.813        0.787        0.179      109.885       23.449        0.046      341.967       17.048      865.578
11/27/2014  11:40:00      -69.079      -36.034      -13.828       37.697       27.151       20.264     1421.086      737.157      410.643        0.441        0.128       77.912       13.715        0.031      341.897       16.929      865.539
11/27/2014  11:41:00     -100.517       37.956      -27.257       53.170       55.702       33.335     2827.099     3102.710     1111.204        0.966        0.352      107.444       41.021        0.146      341.954       17.026      865.518
11/27/2014  11:42:00     -100.888      101.255      -19.848       34.763       62.243       35.382     1208.476     3874.192     1251.871        1.358        0.317      142.937       36.900        0.067      342.032       17.158      865.483
11/27/2014  11:43:00      -65.606      115.846      -15.142       29.976       39.274       27.572      898.569     1542.472      760.206        1.058        0.160      133.133       24.372        0.034      342.022       17.140      865.446
11/27/2014  11:44:00      -93.707      101.361      -25.069       31.391       31.448       19.001      985.397      988.974      361.047        1.101        0.117      138.039       16.451        0.014      342.057       17.201      865.416
11/27/2014  11:45:00      -91.512       42.527      -22.623       26.161       47.041       15.724      684.406     2212.890      247.238        0.692        0.157      100.911       15.375        0.023      342.108       17.286      865.418
11/27/2014  11:46:00      -41.497      -11.650       -3.645       28.313       32.625       18.874      801.651     1064.368      356.216        0.205        0.111       43.101       16.986        0.155      341.980       17.070      865.426
11/27/2014  11:47:00     -105.571      -26.104       -8.384       27.207       30.135       14.905      740.239      908.095      222.174        0.688        0.094      108.751       10.148        0.009      341.873       16.887      865.401
11/27/2014  11:48:00      -28.579       11.301        8.705       28.918       28.702       16.833      836.232      823.793      283.360        0.148        0.097       30.732        8.218        0.072      342.090       17.255      865.375
11/27/2014  11:49:00      -35.843       31.135        0.335       26.988       30.765       18.468      728.348      946.499      341.065        0.213        0.101       47.478       15.125        0.101      342.248       17.525      865.326
11/27/2014  11:50:00      -22.721       70.267      -14.013       17.634       22.679       13.057      310.945      514.320      170.494        0.332        0.050       73.849       11.181        0.023      342.097       17.268      865.237
11/27/2014  11:51:00      -23.175       86.182      -21.720       24.017       28.508       12.348      576.818      812.715      152.462        0.499        0.077       89.243       14.171        0.025      342.218       17.474      865.206
11/27/2014  11:52:00      -36.473       57.278      -10.321       21.140       24.196       15.374      446.909      585.465      236.349        0.299        0.063       67.905        7.884        0.013      342.334       17.670      865.221
11/27/2014  11:53:00      -28.252       24.222       -2.116       16.029       14.338       13.710      256.934      205.578      187.975        0.102        0.033       37.215       11.099        0.089      342.339       17.679      865.235
11/27/2014  11:54:00      -27.348       37.574      -10.104       12.471       13.814       12.870      155.533      190.815      165.630        0.139        0.026       46.473        8.541        0.034      342.302       17.615      865.230
11/27/2014  11:55:00       16.104       76.402       -7.302       20.372       17.450       12.476      415.004      304.514      155.651        0.351        0.044       78.081       10.372        0.018      342.357       17.709      865.202
11/27/2014  11:56:00       82.524       68.062        2.243       51.330       35.563       26.743     2634.741     1264.698      715.163        0.803        0.231      106.970       18.149        0.029      342.234       17.501      865.120
11/27/2014  11:57:00      157.156       74.310        6.972       61.553       39.071       31.952     3788.727     1526.567     1020.912        1.830        0.317      173.839       19.925        0.013      342.175       17.401      865.009
11/27/2014  11:58:00       65.514       32.843       23.128       61.016       44.427       32.690     3722.983     1973.781     1068.654        0.633        0.338       73.286       18.401        0.063      342.271       17.563      865.002
11/27/2014  11:59:00      -16.532      -62.709        0.789       31.359       53.165       17.049      983.358     2826.482      290.678        0.415        0.205       64.851       12.561        0.038      342.331       17.666      865.053
11/27/2014  12:00:00      -90.533      -32.774      -13.179       26.708       17.612       11.309      713.296      310.167      127.888        0.530        0.058       96.283        8.258        0.007      342.184       17.416      865.099
11/27/2014  12:01:00      -58.111       12.027       -4.572       31.014       44.812       18.389      961.897     2008.074      338.170        0.342        0.165       59.343        8.503        0.021      342.369       17.730      865.088
11/27/2014  12:02:00        5.553       36.390      -17.472       28.347       20.861       10.146      803.576      435.162      102.938        0.150        0.067       36.812        5.313        0.021      342.386       17.759      865.050
11/27/2014  12:03:00       11.525       38.035        6.370       15.142       32.750       18.518      229.284     1072.560      342.933        0.163        0.082       39.742       18.365        0.214      342.647       18.204      865.046
11/27/2014  12:04:00        8.664       37.130       14.194       15.627       15.243       14.649      244.206      232.347      214.606        0.117        0.035       38.128       11.204        0.086      342.567       18.069      865.021
11/27/2014  12:05:00        6.740       53.925       -4.768       14.872       19.556       15.063      221.171      382.424      226.909        0.190        0.042       54.345       14.981        0.076      342.536       18.013      864.985
11/27/2014  12:06:00      -16.096       56.253      -14.180       15.298       20.908       13.126      234.014      437.156      172.293        0.223        0.042       58.511       12.462        0.045      342.546       18.031      864.952
11/27/2014  12:07:00      -26.727       34.284      -10.066       20.994       24.742       15.320      440.747      612.172      234.699        0.164        0.064       43.471       12.722        0.086      342.680       18.259      864.965
11/27/2014  12:08:00      -22.967       -4.260       -0.371       23.807       30.914        9.423      566.789      955.654       88.786        0.108        0.081       23.359        7.158        0.094      342.617       18.151      864.978
11/27/2014  12:09:00      -29.146       35.296       -9.247       14.098       16.363       13.574      198.755      267.748      184.263        0.142        0.033       45.774        9.755        0.045      342.676       18.253      864.937
11/27/2014  12:10:00        0.324       33.635        2.690       18.629       16.523       13.971      347.047      273.003      195.197        0.098        0.041       33.637       13.072        0.151      342.724       18.333      864.896
11/27/2014  12:11:00       -2.802       39.118      -11.376       23.374       22.728       14.131      546.354      516.583      199.684        0.146        0.063       39.219       14.314        0.133      342.743       18.366      864.906
11/27/2014  12:12:00        7.892       -2.467       -1.325       14.772       13.853       10.958      218.209      191.908      120.078        0.030        0.027        8.269        7.062        0.729      343.030       18.855      864.936
11/27/2014  12:13:00       19.524        6.186        4.985       20.497       14.203        9.872      420.130      201.722       97.456        0.058        0.036       20.481       12.428        0.368      342.951       18.720      864.931
11/27/2014  12:14:00      114.701       40.589        9.175       50.205       35.903       33.379     2520.561     1289.030     1114.162        0.990        0.246      121.671       28.145        0.054      342.767       18.407      864.837
11/27/2014  12:15:00       70.931       68.518       46.033       51.580       37.890       37.910     2660.459     1435.689     1437.166        0.869        0.277       98.620       37.379        0.144      342.912       18.653      864.798
11/27/2014  12:16:00        5.515       54.447       60.349       25.445       42.305       28.421      647.467     1789.700      807.759        0.494        0.162       54.726       23.317        0.182      343.164       19.083      864.803
11/27/2014  12:17:00       36.269       69.573       81.277       41.547       49.636       37.472     1726.127     2463.778     1404.142        0.918        0.280       78.459       26.382        0.113      343.064       18.912      864.768
11/27/2014  12:18:00        8.342       54.759       81.681       38.537       47.032       32.398     1485.129     2212.041     1049.612        0.724        0.237       55.391       27.633        0.249      343.094       18.963      864.735
11/27/2014  12:19:00      -15.335       62.208       90.967       23.278       50.993       31.217      541.886     2600.301      974.471        0.825        0.206       64.070       31.858        0.247      343.184       19.115      864.720
11/27/2014  12:20:00       35.287       38.432       67.991       37.566       70.360       39.922     1411.167     4950.552     1593.743        0.765        0.398       52.175       36.876        0.500      343.081       18.942      864.748
11/27/2014  12:21:00       54.904       72.465       76.408       58.986       72.312       54.318     3479.370     5229.062     2950.392        1.288        0.583       90.916       46.896        0.266      342.923       18.672      864.725
11/27/2014  12:22:00      151.256       90.859       53.222       69.710       51.709       48.365     4859.415     2673.835     2339.152        2.192        0.494      176.447       47.407        0.072      342.722       18.329      864.672
11/27/2014  12:23:00      125.345       65.037       21.065       49.454       35.130       37.419     2445.702     1234.131     1400.166        1.273        0.254      141.214       22.353        0.025      342.687       18.271      864.664
11/27/2014  12:24:00      140.682       68.771        6.717       48.575       37.906       26.866     2359.526     1436.846      721.767        1.454        0.226      156.591       13.369        0.007      342.709       18.306      864.670
11/27/2014  12:25:00       30.798       22.132        9.133       24.889       32.376       20.035      619.475     1048.237      401.384        0.179        0.103       37.925       20.875        0.303      342.939       18.700      864.693
11/27/2014  12:26:00       18.445        0.277       -0.261       17.349       41.605       19.718      300.986     1730.948      388.785        0.138        0.121       18.447       17.254        0.875      343.009       18.819      864.717
11/27/2014  12:27:00       34.982       27.647       25.144       25.340       26.554       26.113      642.139      705.121      681.875        0.232        0.101       44.588       19.111        0.184      343.014       18.827      864.704
11/27/2014  12:28:00       10.923       24.558       23.102       25.908       19.998       18.563      671.220      399.913      344.602        0.134        0.071       26.878       11.386        0.179      343.056       18.899      864.708
11/27/2014  12:29:00      116.036       93.194       -0.081       66.602       36.823       28.272     4435.816     1355.913      799.314        1.437        0.330      148.827       24.163        0.026      342.854       18.554      864.698
11/27/2014  12:30:00      186.531      106.631        2.401       39.840       40.332       42.161     1587.248     1626.672     1777.527        2.558        0.250      214.858       28.697        0.018      342.783       18.431      864.617
11/27/2014  12:31:00      178.796      129.091       52.064       65.757       59.707       61.299     4323.986     3564.972     3757.511        3.149        0.582      220.528       33.224        0.023      342.807       18.472      864.553
11/27/2014  12:32:00       81.018       52.730       42.782       63.633       59.462       47.697     4049.134     3535.742     2275.018        1.052        0.493       96.666       38.227        0.156      342.961       18.735      864.531
11/27/2014  12:33:00       54.554       23.090       26.369       53.270       50.366       35.946     2837.647     2536.724     1292.107        0.543        0.333       59.239       30.654        0.268      342.978       18.766      864.553
11/27/2014  12:34:00       20.598       30.985       50.340       41.642       64.731       28.219     1734.068     4190.134      796.322        0.532        0.336       37.207       31.249        0.705      343.120       19.008      864.575
11/27/2014  12:35:00       52.152       49.821       48.127       59.075       49.611       45.410     3489.826     2461.264     2062.102        0.776        0.401       72.125       32.675        0.205      343.098       18.971      864.570
11/27/2014  12:36:00       62.537      100.982       76.640       62.850       39.310       33.340     3950.089     1545.252     1111.539        1.329        0.330      118.778       30.592        0.066      343.036       18.865      864.516
11/27/2014  12:37:00      166.827       99.525       27.789       52.105       46.644       40.629     2714.930     2175.683     1650.677        2.252        0.327      194.259       27.782        0.020      343.013       18.823      864.477
11/27/2014  12:38:00      109.062       71.872        6.513       75.717       66.297       42.327     5732.998     4395.283     1791.602        1.451        0.596      130.615       11.091        0.007      343.085       18.948      864.454
11/27/2014  12:39:00      104.505       17.848        8.993       53.265       62.444       39.274     2837.110     3899.283     1542.453        0.980        0.414      106.018       19.601        0.034      343.194       19.135      864.443
11/27/2014  12:40:00       11.715      -20.572        3.877       23.520       24.331       18.276      553.193      592.008      334.026        0.103        0.074       23.674        8.486        0.129      343.325       19.357      864.487
11/27/2014  12:41:00       62.946       -5.476       30.922       61.621       30.517       22.578     3797.182      931.261      509.785        0.509        0.262       63.184       19.813        0.098      343.326       19.359      864.488
11/27/2014  12:42:00       21.099        7.857       19.388       27.551       28.102       24.009      759.068      789.703      576.440        0.150        0.106       22.514       11.727        0.271      343.492       19.642      864.468
11/27/2014  12:43:00        8.632       -0.305       33.993       25.152       46.214       17.625      632.631     2135.744      310.628        0.215        0.154        8.637       20.315        5.532      343.568       19.773      864.479
11/27/2014  12:44:00       44.514       -7.272       28.985       35.989       71.003       32.939     1295.237     5041.429     1084.952        0.515        0.371       45.104       39.462        0.765      343.359       19.415      864.506
11/27/2014  12:45:00       42.420        0.323       10.869       57.971       48.728       41.905     3360.584     2374.430     1756.040        0.470        0.375       42.421       40.776        0.924      343.221       19.180      864.508
11/27/2014  12:46:00       19.860       34.260        3.956       39.317       44.749       13.808     1545.797     2002.489      190.657        0.266        0.187       39.600       13.597        0.118      343.322       19.352      864.522
11/27/2014  12:47:00       94.503       72.722        0.833       26.426       25.250       17.601      698.342      637.568      309.799        0.793        0.082      119.245       15.861        0.018      343.100       18.974      864.448
11/27/2014  12:48:00       48.217       32.371       12.783       37.523       27.574       24.063     1407.979      760.353      579.035        0.314        0.137       58.076       22.022        0.144      343.185       19.119      864.438
11/27/2014  12:49:00       21.170       33.008       43.137       36.888       22.927       22.294     1360.732      525.638      497.021        0.289        0.119       39.214       18.113        0.213      343.378       19.448      864.438
11/27/2014  12:50:00       83.696      -32.478       34.319       91.389       84.297       41.443     8351.887     7106.035     1717.563        1.320        0.859       89.777       58.600        0.426      343.375       19.440      864.439
11/27/2014  12:51:00       41.578      -21.802       30.263       47.267       54.683       34.522     2234.198     2990.227     1191.765        0.477        0.321       46.947       29.396        0.392      343.467       19.598      864.447
11/27/2014  12:52:00       89.581       16.974       34.971       37.591       48.654       36.206     1413.058     2367.183     1310.900        0.731        0.255       91.175       30.087        0.109      343.283       19.286      864.441
11/27/2014  12:53:00       49.164       71.816       71.691       73.841       55.833       56.601     5452.487     3117.337     3203.625        1.224        0.589       87.033       54.171        0.387      343.329       19.363      864.389
11/27/2014  12:54:00      104.565       68.405       33.088       53.388       52.315       35.981     2850.329     2736.813     1294.658        1.179        0.344      124.953       31.127        0.062      343.132       19.028      864.431
11/27/2014  12:55:00       39.842       21.145       36.685       47.130       33.897       27.791     2221.248     1149.007      772.367        0.376        0.207       45.105       15.068        0.112      343.408       19.498      864.435
11/27/2014  12:56:00      130.878       60.545       34.053       65.375       58.330       51.966     4273.953     3402.374     2700.513        1.616        0.519      144.204       41.646        0.083      343.148       19.056      864.388
11/27/2014  12:57:00      216.253      103.924       22.967       93.427       66.894       52.638     8728.577     4474.863     2770.712        3.703        0.799      239.928       43.912        0.033      343.254       19.233      864.281
11/27/2014  12:58:00        6.847        8.080       28.246       94.830       91.279       48.717     8992.781     8331.889     2373.384        1.030        0.985       10.592       38.829       13.440      343.355       19.408      864.289
11/27/2014  12:59:00       24.656      -42.231        1.960       34.740       56.905       34.605     1206.881     3238.215     1197.501        0.402        0.282       48.902       26.679        0.298      343.402       19.488      864.308
11/27/2014  13:00:00       43.912       54.110       36.677       56.978       48.972       43.067     3246.450     2398.287     1854.744        0.685        0.375       69.686       20.212        0.084      343.399       19.482      864.303
11/27/2014  13:01:00       48.318       45.875       66.202       78.303       67.141       51.251     6131.326     4507.855     2626.711        1.104        0.663       66.627       44.951        0.455      343.410       19.502      864.290
11/27/2014  13:02:00       10.720       18.014       43.842       37.153       35.938       40.528     1380.369     1291.558     1642.545        0.334        0.216       20.963       28.364        1.831      343.669       19.943      864.270
11/27/2014  13:03:00       96.581      100.804       93.053       76.252       53.607       48.730     5814.330     2873.692     2374.615        1.960        0.553      139.605       41.228        0.087      343.383       19.456      864.240
11/27/2014  13:04:00      174.273      104.984       16.674       79.800       50.700       47.241     6368.069     2570.508     2231.714        2.642        0.559      203.452       25.342        0.016      343.395       19.473      864.222
11/27/2014  13:05:00      146.755      106.890        4.057       62.744       53.832       43.837     3936.860     2897.842     1921.691        2.087        0.438      181.556       29.706        0.027      343.394       19.473      864.205
11/27/2014  13:06:00       55.300       64.663        8.472       58.555       42.734       31.271     3428.737     1826.177      977.847        0.677        0.312       85.084       24.547        0.083      343.561       19.759      864.225
11/27/2014  13:07:00       80.272       75.072       21.913       74.632       40.190       36.063     5569.937     1615.251     1300.518        1.052        0.424      109.906       23.193        0.045      343.655       19.920      864.210
11/27/2014  13:08:00      125.743       76.396       47.926       87.324       62.167       54.034     7625.511     3864.747     2919.648        1.917        0.720      147.132       55.534        0.142      343.668       19.941      864.142
11/27/2014  13:09:00       15.956        3.637       22.790       54.814       56.263       35.729     3004.584     3165.528     1276.538        0.412        0.372       16.365       21.508        1.727      343.866       20.280      864.130
11/27/2014  13:10:00       75.293       34.551        9.399       43.528       33.449       31.386     1894.730     1118.805      985.081        0.547        0.200       82.842       20.310        0.060      343.673       19.950      864.130
11/27/2014  13:11:00       73.629       56.462       19.160       28.820       24.206       25.308      830.575      585.925      640.472        0.552        0.103       92.786       18.668        0.040      343.649       19.909      864.141
11/27/2014  13:12:00       76.876       55.083       23.778       20.217       18.922       29.350      408.745      358.058      861.451        0.557        0.081       94.573       19.348        0.042      343.656       19.921      864.123
11/27/2014  13:13:00       77.878       21.343        9.824       22.785       35.775       20.897      519.158     1279.868      436.699        0.443        0.112       80.750       14.054        0.030      343.676       19.956      864.096
11/27/2014  13:14:00       46.731       20.833        6.959       25.570       36.806       24.063      653.835     1354.646      579.005        0.263        0.129       51.165       24.947        0.238      343.854       20.259      864.086
11/27/2014  13:15:00      100.863       78.880       17.126       38.977       25.689       25.074     1519.208      659.919      628.725        0.975        0.140      128.044       22.303        0.030      343.824       20.206      864.030
11/27/2014  13:16:00       42.435       40.498       26.668       43.655       29.727       15.633     1905.753      883.709      244.395        0.359        0.152       58.659        6.091        0.011      343.978       20.472      864.034
11/27/2014  13:17:00        4.374       -5.780       24.069       21.490       31.169       22.891      461.824      971.512      523.996        0.129        0.098        7.249       17.900        6.097      344.279       20.985      864.022
11/27/2014  13:18:00       24.296      -62.238       -6.604       22.616       31.475       20.570      511.501      990.655      423.142        0.322        0.096       66.812       10.766        0.026      344.044       20.584      864.029
11/27/2014  13:19:00      -32.396      -28.763       -6.280       53.218       19.152       14.986     2832.191      366.801      224.586        0.267        0.171       43.322       10.980        0.064      344.174       20.807      864.026
11/27/2014  13:20:00      -91.619     -112.866      -15.984       68.688       67.162       29.796     4718.001     4510.678      887.793        1.575        0.506      145.371       24.404        0.028      344.271       20.970      864.024
11/27/2014  13:21:00      -24.735      -52.085        6.546       52.037       64.706       33.218     2707.846     4186.878     1103.458        0.568        0.400       57.660       26.683        0.214      344.356       21.117      863.973
11/27/2014  13:22:00      -34.415     -100.646       -4.959       60.392       73.859       36.178     3647.170     5455.212     1308.870        1.087        0.521      106.367       31.620        0.088      344.386       21.166      863.952
11/27/2014  13:23:00      -60.515      -58.976       -5.031       78.987       43.923       22.814     6239.002     1929.208      520.486        0.793        0.434       84.500       18.392        0.047      344.414       21.214      863.938
11/27/2014  13:24:00     -112.431     -156.152      -12.243       83.211       77.853       40.729     6924.076     6061.121     1658.891        2.591        0.732      192.416       34.395        0.032      344.332       21.072      863.953
11/27/2014  13:25:00     -109.450      -96.455       13.948      165.520       68.177       58.267    27396.840     4648.128     3395.037        2.845        1.772      145.886       77.090        0.279      344.426       21.234      863.942
11/27/2014  13:26:00     -366.042     -186.294      -12.118      205.881      159.179       82.446    42387.028    25337.998     6797.356       12.167        3.726      410.721      105.158        0.066      344.374       21.143      863.926
11/27/2014  13:27:00     -349.465     -252.330       -8.986      190.299      178.105      108.890    36213.726    31721.456    11857.138       13.282        3.990      431.041      116.808        0.073      344.293       21.006      863.862
11/27/2014  13:28:00     -323.838     -173.028      -18.374      168.822      143.078       67.277    28500.947    20471.325     4526.141        9.431        2.675      367.164       75.575        0.042      344.332       21.071      863.838
11/27/2014  13:29:00     -328.224     -220.602       -6.275      163.015      119.928       77.670    26573.975    14382.667     6032.582       10.170        2.349      395.470       82.099        0.043      344.329       21.067      863.840
11/27/2014  13:30:00     -273.912     -178.413        2.333      139.852      114.820       76.301    19558.627    13183.600     5821.829        7.271        1.928      326.893       76.663        0.055      344.326       21.063      863.839
11/27/2014  13:31:00     -272.815     -156.776       -0.961      142.564      102.009       70.220    20324.389    10405.854     4930.829        6.733        1.783      314.654       72.688        0.053      344.408       21.202      863.810
11/27/2014  13:32:00     -322.253     -233.003       -0.032      156.579      130.872       72.342    24517.059    17127.581     5233.331       10.250        2.344      397.665       83.401        0.044      344.391       21.174      863.819
11/27/2014  13:33:00     -359.880     -241.731      -31.983      112.031      150.888       69.736    12550.959    22767.199     4863.173       11.457        2.009      433.529       56.274        0.017      344.389       21.170      863.785
11/27/2014  13:34:00     -215.757     -138.048      -10.733      133.605      117.037       64.039    17850.267    13697.690     4100.951        5.068        1.782      256.142       77.857        0.092      344.442       21.260      863.767
11/27/2014  13:35:00     -254.428     -153.808      -23.107      113.547       77.301       55.609    12892.918     5975.472     3092.374        5.544        1.098      297.306       62.003        0.043      344.460       21.290      863.754
11/27/2014  13:36:00     -252.454     -208.731        2.658      167.261      114.554       70.598    27976.355    13122.650     4984.035        7.669        2.304      327.570       72.504        0.049      344.480       21.326      863.748
11/27/2014  13:37:00     -417.993     -315.611        0.373      226.622      169.700      104.747    51357.636    28798.028    10971.970       18.271        4.556      523.764      113.124        0.047      344.356       21.113      863.776
11/27/2014  13:38:00     -283.387     -173.488        7.497      165.680      125.121       66.023    27449.801    15655.271     4359.061        7.895        2.373      332.275       89.686        0.073      344.277       20.980      863.792
11/27/2014  13:39:00      -29.289     -222.116      -17.982       63.936       73.044       44.394     4087.830     5335.422     1970.808        3.095        0.570      224.039       36.790        0.027      344.287       20.995      863.748
11/27/2014  13:40:00     -112.196     -158.198        9.031      126.138       98.369       45.204    15910.908     9676.529     2043.375        3.266        1.382      193.944       50.172        0.067      344.291       21.004      863.746
11/27/2014  13:41:00     -425.539     -244.280      -24.400      157.203      132.900       72.082    24712.678    17662.315     5195.832       14.445        2.379      490.669       51.348        0.011      344.223       20.886      863.711
11/27/2014  13:42:00     -333.704     -264.286        0.413      179.194      156.542       88.596    32110.504    24505.262     7849.195       12.282        3.223      425.683       90.434        0.045      344.240       20.915      863.655
11/27/2014  13:43:00     -346.325     -140.645      -13.781      136.235      137.478       71.332    18560.096    18900.167     5088.208        9.122        2.127      373.794       73.336        0.038      344.280       20.984      863.664
11/27/2014  13:44:00     -431.093      -75.608      -16.663      130.661      132.615       62.087    17072.327    17586.674     3854.838       11.517        1.926      437.673       58.977        0.018      344.298       21.014      863.668
11/27/2014  13:45:00     -305.027      -80.458       -1.363      139.264      141.030       70.596    19394.340    19889.479     4983.795        7.188        2.213      315.460       74.849        0.056      344.294       21.008      863.639
11/27/2014  13:46:00     -266.436      -94.976      -26.823      107.421       90.355       59.059    11539.225     8164.076     3487.976        5.196        1.160      282.858       55.892        0.039      344.342       21.091      863.643
11/27/2014  13:47:00     -274.836     -136.405       -4.000      138.942       93.319       53.225    19304.784     8708.349     2832.897        6.250        1.542      306.825       55.703        0.033      344.443       21.261      863.666
11/27/2014  13:48:00     -152.402     -107.553       -6.085       73.010       69.339       39.885     5330.473     4807.880     1590.782        2.328        0.586      186.532       36.449        0.038      344.467       21.305      863.662
11/27/2014  13:49:00     -259.328     -281.940       -7.585      152.688      143.009       71.995    23313.612    20451.511     5183.281        9.786        2.447      383.068       77.377        0.041      344.462       21.294      863.636
11/27/2014  13:50:00     -214.709     -206.892       -6.315      151.341      119.682       68.548    22904.071    14323.725     4698.877        6.543        2.096      298.168       74.861        0.063      344.454       21.281      863.650
11/27/2014  13:51:00     -300.765     -242.839       -6.965      155.837      123.444       74.422    24285.118    15238.348     5538.608        9.726        2.253      386.562       80.378        0.043      344.427       21.234      863.640
11/27/2014  13:52:00     -109.342     -183.611       -2.753       99.443       89.156       49.508     9888.969     7948.734     2451.046        3.298        1.014      213.702       34.103        0.025      344.479       21.324      863.656
11/27/2014  13:53:00        9.000      -98.664        1.427       54.127       63.830       49.323     2929.691     4074.310     2432.762        0.963        0.472       99.074       27.012        0.074      344.561       21.466      863.629
11/27/2014  13:54:00        1.404      -35.640        6.717       61.733       67.669       41.238     3810.914     4579.083     1700.538        0.570        0.505       35.667       39.583        1.232      344.638       21.599      863.596
11/27/2014  13:55:00     -182.586      -97.930      -18.478      136.531      133.856       49.236    18640.716    17917.554     2424.139        4.112        1.949      207.190       59.256        0.082      344.531       21.413      863.607
11/27/2014  13:56:00     -192.701     -175.439       -4.113       87.371      132.279       62.707     7633.702    17497.760     3932.137        4.849        1.453      260.600       57.281        0.048      344.340       21.086      863.609
11/27/2014  13:57:00     -203.022     -116.349       10.151      118.647       96.932       56.950    14077.167     9395.736     3243.308        4.078        1.336      233.998       51.900        0.049      344.455       21.283      863.599
11/27/2014  13:58:00     -183.972      -82.365       -2.269      152.845      123.941       59.690    23361.652    15361.370     3562.841        4.145        2.114      201.568       70.387        0.122      344.520       21.396      863.609
11/27/2014  13:59:00     -251.534     -139.113      -11.384      148.203       92.403       56.462    21964.154     8538.293     3187.970        5.821        1.685      287.441       63.294        0.048      344.499       21.360      863.601
11/27/2014  14:00:00     -319.171     -177.934      -17.725      146.351      128.704       63.677    21418.742    16564.724     4054.768        8.793        2.102      365.418       71.384        0.038      344.581       21.498      863.642
11/27/2014  14:01:00     -146.201     -263.075        0.670      120.944      139.327       60.978    14627.417    19411.930     3718.317        6.416        1.888      300.970       58.155        0.037      344.414       21.211      863.655
11/27/2014  14:02:00     -284.325     -144.963       -2.639      146.624      136.284       66.573    21498.653    18573.393     4432.017        7.317        2.225      319.147       64.373        0.041      344.379       21.154      863.633
11/27/2014  14:03:00     -188.268     -157.584       -8.418       98.414       98.398       48.540     9685.389     9682.130     2356.088        4.103        1.086      245.514       47.014        0.037      344.379       21.154      863.606
11/27/2014  14:04:00     -319.755     -151.859      -15.918      152.768      120.714       69.678    23337.928    14571.976     4855.011        8.415        2.138      353.984       66.632        0.035      344.433       21.244      863.597
11/27/2014  14:05:00     -415.076     -151.463      -28.750      239.467      213.617      105.253    57344.219    45632.142    11078.257       15.503        5.703      441.847      123.913        0.079      344.336       21.080      863.555
11/27/2014  14:06:00     -380.482     -166.106       -6.156      201.101      185.760       92.376    40441.586    34506.629     8533.307       12.792        4.174      415.160      109.241        0.069      344.296       21.011      863.519
11/27/2014  14:07:00     -284.567     -187.920       -8.460      173.034      130.873       77.416    29940.672    17127.793     5993.304        8.470        2.653      341.016       76.956        0.051      344.307       21.030      863.533
11/27/2014  14:08:00     -313.188     -238.642       -5.476      177.319      148.807       93.604    31441.944    22143.538     8761.760       10.869        3.117      393.747       93.541        0.056      344.363       21.127      863.523
11/27/2014  14:09:00     -320.662     -253.062        4.716      190.648      131.693       91.175    36346.565    17342.959     8312.970       11.443        3.100      408.490       98.786        0.058      344.280       20.983      863.546
11/27/2014  14:10:00     -368.804     -176.265       -5.557      129.083      128.195       61.024    16662.367    16433.832     3723.940       10.196        1.841      408.761       69.735        0.029      344.281       20.986      863.556
11/27/2014  14:11:00     -434.057     -187.484      -23.227      174.001      134.050       67.383    30276.195    17969.397     4540.439       13.843        2.639      472.817       82.583        0.031      344.252       20.936      863.546
11/27/2014  14:12:00     -227.204      -96.644       16.780      148.110      109.918       62.419    21936.443    12082.021     3896.139        4.957        1.896      246.904       60.064        0.059      344.302       21.021      863.557
11/27/2014  14:13:00     -219.203     -153.109       -9.671      125.138      138.694       67.571    15659.407    19236.085     4565.879        5.552        1.973      267.381       66.564        0.062      344.302       21.023      863.561
11/27/2014  14:14:00     -239.748     -168.381        8.484      150.527      107.329       64.589    22658.445    11519.540     4171.679        6.212        1.917      292.969       79.890        0.074      344.299       21.016      863.552
11/27/2014  14:15:00     -165.579     -169.142        7.389       91.642      106.318       57.200     8398.311    11303.583     3271.884        3.952        1.149      236.696       53.534        0.051      344.377       21.149      863.565
11/27/2014  14:16:00     -167.145      -80.135       -3.675       59.414       60.905       39.309     3530.008     3709.446     1545.228        2.158        0.439      185.362       32.321        0.030      344.404       21.197      863.561
11/27/2014  14:17:00     -215.156     -145.903       -6.295      110.044       93.187       49.103    12109.737     8683.762     2411.067        4.541        1.160      259.961       49.932        0.037      344.431       21.243      863.575
11/27/2014  14:18:00     -234.624     -159.572        0.071      104.709       88.334       54.643    10963.975     7802.834     2985.828        5.113        1.088      283.746       57.121        0.041      344.377       21.147      863.571
11/27/2014  14:19:00     -269.834      -57.629       -2.758      119.852      112.939       66.914    14364.414    12755.294     4477.444        5.386        1.580      275.920       70.721        0.066      344.385       21.163      863.546
11/27/2014  14:20:00     -386.341     -114.806       -8.917      203.296      110.014       70.688    41329.185    12102.986     4996.796       11.046        2.921      403.038       93.539        0.054      344.401       21.191      863.530
11/27/2014  14:21:00     -268.372     -135.055       -8.046      122.129       97.834       61.971    14915.432     9571.483     3840.352        5.932        1.416      300.439       46.168        0.024      344.306       21.029      863.528
11/27/2014  14:22:00     -203.309      -57.853       -2.077      160.276      112.367       70.230    25688.548    12626.435     4932.198        4.396        2.162      211.380       85.679        0.164      344.329       21.069      863.526
11/27/2014  14:23:00     -254.925     -104.005      -14.638      127.903       90.442       68.853    16359.131     8179.843     4740.759        5.264        1.464      275.325       55.527        0.041      344.302       21.022      863.531
11/27/2014  14:24:00     -361.497      -45.346      -12.415      158.202      107.672       69.624    25027.738    11593.325     4847.533        8.717        2.073      364.330       78.176        0.046      344.295       21.009      863.520
11/27/2014  14:25:00     -252.115      -87.825      -13.750      141.974      113.160       67.662    20156.682    12805.261     4578.174        5.449        1.877      266.974       78.258        0.086      344.303       21.023      863.530
11/27/2014  14:26:00     -199.036     -108.193        5.454      107.257       93.625       56.338    11504.013     8765.686     3173.969        3.739        1.172      226.542       62.181        0.075      344.289       20.998      863.514
11/27/2014  14:27:00     -274.602      -31.338       -9.901      100.885       75.841       49.612    10177.710     5751.848     2461.386        4.743        0.920      276.384       49.450        0.032      344.342       21.089      863.504
11/27/2014  14:28:00     -274.963      -79.288        1.424      151.917       94.208       63.602    23078.849     8875.117     4045.249        5.894        1.800      286.167       68.843        0.058      344.340       21.087      863.501
11/27/2014  14:29:00     -391.883     -124.962      -17.249      128.073      107.793       71.622    16402.646    11619.246     5129.700       10.131        1.658      411.325       63.896        0.024      344.240       20.914      863.516
11/27/2014  14:30:00     -244.559      -86.278       -0.010      120.513       83.641       52.279    14523.471     6995.881     2733.055        4.575        1.213      259.332       52.388        0.041      344.239       20.913      863.520
11/27/2014  14:31:00     -217.388     -111.950       -8.331      131.967       78.911       55.441    17415.382     6227.000     3073.655        4.328        1.336      244.521       63.958        0.068      344.262       20.954      863.540
11/27/2014  14:32:00     -237.421     -148.606      -16.217      123.326      101.233       58.435    15209.313    10248.202     3414.630        5.379        1.444      280.094       70.573        0.063      344.206       20.857      863.538
11/27/2014  14:33:00     -290.764      -61.056       -9.456      176.949      134.392       68.063    31311.072    18061.109     4632.640        7.117        2.700      297.105       81.653        0.076      344.223       20.885      863.545
11/27/2014  14:34:00     -309.896     -154.549      -11.347      164.439      151.948       74.302    27040.200    23088.334     5520.798        8.784        2.782      346.296       70.615        0.042      344.208       20.861      863.535
11/27/2014  14:35:00     -466.602     -327.106      -20.295      211.745      181.236      108.507    44836.005    32846.662    11773.705       20.727        4.473      569.838      116.316        0.042      344.145       20.752      863.505
11/27/2014  14:36:00     -375.047     -298.908      -10.302      227.845      180.766       97.099    51913.440    32676.430     9428.238       16.205        4.701      479.589      117.151        0.060      344.169       20.794      863.475
11/27/2014  14:37:00     -243.797     -265.960       -0.910      170.199      176.264       89.304    28967.650    31069.154     7975.277        9.908        3.401      360.793       97.872        0.074      344.184       20.820      863.491
11/27/2014  14:38:00     -295.285     -126.706      -12.382      181.053      118.985       76.690    32780.211    14157.445     5881.289        7.810        2.641      321.322       83.651        0.068      344.171       20.796      863.484
11/27/2014  14:39:00     -288.221     -169.125       -5.010      153.878      110.315       66.222    23678.581    12169.296     4385.297        7.596        2.012      334.178       69.550        0.043      344.188       20.827      863.493
11/27/2014  14:40:00     -368.534     -211.980      -27.871      163.108      131.819       63.961    26604.102    17376.352     4091.045       11.479        2.404      425.150       60.908        0.021      344.162       20.782      863.496
11/27/2014  14:41:00     -254.273     -172.688       -1.429      154.153      161.807       85.353    23763.299    26181.430     7285.172        7.584        2.861      307.369       92.515        0.091      344.192       20.833      863.489
11/27/2014  14:42:00     -356.799     -125.885       -8.518      219.235      153.427       91.503    48063.988    23539.991     8372.710       11.159        3.999      378.355      109.002        0.083      344.229       20.896      863.451
11/27/2014  14:43:00     -276.485     -220.530        8.443      186.665      193.282       91.975    34843.794    37357.988     8459.426       10.289        4.033      353.663      106.130        0.090      344.223       20.886      863.532
11/27/2014  14:44:00     -242.314     -367.572      -21.798      131.016      134.254       70.860    17165.272    18024.214     5021.199       11.725        2.011      440.256       61.303        0.019      344.193       20.835      863.555
11/27/2014  14:45:00     -165.182     -181.791       -6.805       80.287      123.793       42.641     6445.977    15324.742     1818.256        4.198        1.179      245.628       38.094        0.024      344.193       20.834      863.555
11/27/2014  14:46:00     -232.967     -141.334      -13.435      112.489       84.058       47.406    12653.814     7065.787     2247.355        4.819        1.098      272.486       45.431        0.028      344.182       20.816      863.555
11/27/2014  14:47:00     -136.487      -76.563       11.593       97.664       75.758       38.660     9538.291     5739.330     1494.616        2.070        0.839      156.494       43.610        0.078      344.183       20.820      863.559
11/27/2014  14:48:00     -209.684      -76.119       -0.115      125.580       98.405       62.842    15770.248     9683.596     3949.064        3.958        1.470      223.073       73.369        0.108      344.157       20.774      863.542
11/27/2014  14:49:00     -164.622     -147.951       20.139      138.282      146.088       74.907    19121.799    21341.594     5611.103        4.773        2.304      221.337       63.354        0.082      344.132       20.731      863.554
11/27/2014  14:50:00     -172.892     -234.158       -4.523       95.923      141.888       61.103     9201.310    20132.281     3733.617        5.890        1.653      291.070       45.841        0.025      344.098       20.672      863.529
11/27/2014  14:51:00     -329.226     -228.913      -15.197      133.203      198.413       75.417    17742.976    39367.659     5687.733       11.190        3.140      400.987       71.728        0.032      344.044       20.582      863.564
11/27/2014  14:52:00     -332.989     -275.388       -4.297      216.877      182.597       83.819    47035.490    33341.668     7025.542       13.705        4.370      432.111       94.642        0.048      344.020       20.540      863.572
11/27/2014  14:53:00     -424.183     -329.482       -2.938      259.292      196.562      106.873    67232.471    38636.615    11421.910       20.287        5.865      537.113      125.100        0.054      343.996       20.498      863.526
11/27/2014  14:54:00     -464.881     -256.431        5.686      264.910      216.227      115.782    70177.481    46754.051    13405.398       20.609        6.517      530.916      120.584        0.052      344.019       20.538      863.496
11/27/2014  14:55:00     -367.267     -182.440        7.235      222.418      165.460       87.907    49469.960    27376.962     7727.667       12.638        4.229      410.084       74.024        0.033      344.022       20.543      863.495
11/27/2014  14:56:00     -316.149     -208.600      -15.017      176.078      148.280       73.451    31003.530    21986.963     5395.066       10.103        2.919      378.767       69.494        0.034      343.992       20.493      863.499
11/27/2014  14:57:00     -179.652     -146.685        5.914      139.622       92.937       53.314    19494.382     8637.345     2842.367        4.239        1.549      231.930       58.014        0.063      344.002       20.509      863.479
11/27/2014  14:58:00     -218.145     -114.495       -8.820       99.154      102.371       48.807     9831.446    10479.742     2382.146        4.173        1.135      246.366       58.006        0.055      343.991       20.490      863.472
11/27/2014  14:59:00     -148.730     -114.043       15.336      119.215      115.455       62.841    14212.108    13329.955     3949.046        3.342        1.575      187.421       60.902        0.106      343.986       20.482      863.453
11/27/2014  15:00:00     -205.312     -170.321       -3.420      137.474      122.279       69.521    18899.214    14952.130     4833.145        5.492        1.934      266.763       75.420        0.080      343.983       20.475      863.440
11/27/2014  15:01:00     -267.656     -120.486       -1.099      159.574      118.371       67.956    25463.745    14011.722     4618.039        6.512        2.205      293.525       80.503        0.075      343.999       20.504      863.454
11/27/2014  15:02:00     -341.057     -136.072        9.081      248.241      195.015      100.237    61623.619    38030.887    10047.470       12.229        5.485      367.199       99.299        0.073      343.993       20.493      863.461
11/27/2014  15:03:00     -326.680     -108.282        4.112      213.442      130.024       91.981    45557.536    16906.227     8460.497        9.468        3.546      344.158      104.028        0.091      343.971       20.457      863.448
11/27/2014  15:04:00     -431.722     -117.191      -18.487      160.072      159.616       80.769    25623.158    25477.283     6523.649       12.903        2.881      447.345       74.454        0.028      343.993       20.493      863.428
11/27/2014  15:05:00     -257.566     -150.469       -0.780      141.214      140.610       80.556    19941.425    19771.066     6489.337        6.758        2.310      298.297       88.129        0.087      344.003       20.511      863.444
11/27/2014  15:06:00     -392.105     -145.234      -27.714      199.349      113.358       74.492    39740.084    12849.955     5548.986       11.686        2.907      418.138       92.932        0.049      344.012       20.525      863.427
11/27/2014  15:07:00     -371.036     -134.194      -24.752      144.867      112.552       69.522    20986.574    12667.958     4833.322        9.738        1.924      394.558       69.172        0.031      343.997       20.500      863.425
11/27/2014  15:08:00     -267.312     -138.248       -8.943      131.803      111.860       70.814    17372.010    12512.659     5014.561        6.277        1.745      300.945       62.611        0.043      344.036       20.567      863.435
11/27/2014  15:09:00     -461.098     -367.752      -15.005      213.518      186.181      116.747    45589.853    34663.443    13629.917       22.096        4.694      589.791      126.468        0.046      343.989       20.486      863.416
11/27/2014  15:10:00     -449.246     -234.653      -13.974      272.948      199.797      107.855    74500.794    39919.000    11632.632       19.154        6.303      506.837      126.495        0.062      343.985       20.479      863.404
11/27/2014  15:11:00     -196.635     -141.952       17.799      218.009      158.209       82.234    47527.844    25029.988     6762.476        6.921        3.966      242.520       87.409        0.130      344.004       20.513      863.406
11/27/2014  15:12:00     -230.716     -163.406      -15.678      161.629       99.218       72.742    26124.043     9844.197     5291.388        6.071        2.063      282.722       59.091        0.044      344.020       20.540      863.411
11/27/2014  15:13:00     -245.861     -174.928      -15.369      171.451      123.905       80.731    29395.383    15352.331     6517.549        7.126        2.563      301.741       77.856        0.067      344.038       20.570      863.395
11/27/2014  15:14:00     -293.797     -138.848       -3.841      186.602      158.798       84.853    34820.372    25216.717     7200.015        8.641        3.362      324.954      101.688        0.098      344.042       20.577      863.392
11/27/2014  15:15:00     -360.909     -135.296       -4.526      196.653      157.549       98.581    38672.374    24821.714     9718.144       11.088        3.661      385.435      104.165        0.073      344.028       20.554      863.384
11/27/2014  15:16:00     -447.583      -83.296      -21.330      212.192      130.497       79.505    45025.541    17029.572     6321.054       13.804        3.419      455.268       92.719        0.041      344.054       20.597      863.385
11/27/2014  15:17:00     -309.024     -145.469        0.657      180.765      142.936       85.546    32676.088    20430.754     7318.202        8.853        3.021      341.551       95.564        0.078      344.043       20.580      863.405
11/27/2014  15:18:00     -426.211      -78.512      -26.608      149.958      132.112       69.798    22487.341    17453.629     4871.742       11.666        2.241      433.382       69.356        0.026      344.036       20.566      863.401
11/27/2014  15:19:00     -245.465      -84.623       -2.464      133.941       82.008       68.823    17940.138     6725.237     4736.552        4.841        1.470      259.643       66.738        0.066      344.039       20.572      863.405
11/27/2014  15:20:00     -238.051      -96.853       -0.701      117.697      118.625       55.192    13852.629    14071.845     3046.153        4.850        1.549      257.000       60.499        0.055      344.066       20.618      863.385
11/27/2014  15:21:00     -401.122     -175.178       -4.480      228.364      175.275       82.490    52150.081    30721.401     6804.631       14.062        4.484      437.706       88.965        0.041      344.052       20.595      863.358
11/27/2014  15:22:00     -300.679     -159.082        0.386      194.821      194.900       86.933    37955.029    37986.204     7557.360        9.959        4.175      340.169      105.652        0.096      344.029       20.555      863.381
11/27/2014  15:23:00     -426.215     -260.567      -25.994      189.559      146.691       93.421    35932.681    21518.288     8727.554       15.819        3.309      499.554       94.711        0.036      343.990       20.487      863.381
11/27/2014  15:24:00     -327.850     -133.038       -1.041      200.471      159.038       87.553    40188.527    25293.077     7665.507        9.915        3.657      353.814       93.330        0.070      344.004       20.512      863.385
11/27/2014  15:25:00     -220.971     -123.469       10.970      174.731      149.341       82.141    30530.790    22302.779     6747.202        6.188        2.979      253.126       93.205        0.136      344.019       20.539      863.403
11/27/2014  15:26:00     -270.557     -141.972       -3.093      173.300      101.272       61.734    30032.980    10256.079     3811.067        6.872        2.205      305.544       76.435        0.063      344.053       20.598      863.412
11/27/2014  15:27:00     -304.218     -218.561       -2.175      156.599      133.673       79.114    24523.390    17868.484     6259.050        9.448        2.433      374.589       75.665        0.041      344.026       20.550      863.430
11/27/2014  15:28:00     -405.014     -318.232      -30.553      168.012      138.916       85.199    28228.088    19297.631     7258.788       16.050        2.739      515.081       88.135        0.029      344.012       20.525      863.435
11/27/2014  15:29:00     -208.314     -126.236        2.142      120.357      100.349       56.615    14485.860    10069.958     3205.208        4.354        1.388      243.578       57.065        0.055      344.057       20.604      863.411
11/27/2014  15:30:00     -226.280     -137.080        2.706      117.847      116.059       55.256    13888.003    13469.695     3053.224        5.020        1.521      264.563       58.276        0.049      344.072       20.628      863.414
11/27/2014  15:31:00     -241.868     -204.543       -7.285      119.315      114.799       58.757    14235.989    13178.887     3452.437        6.562        1.543      316.762       58.537        0.034      344.037       20.570      863.429
11/27/2014  15:32:00     -345.686     -251.257      -23.479      157.156      132.793       69.984    24697.936    17633.914     4897.752       11.520        2.361      427.351       68.570        0.026      344.034       20.563      863.427
11/27/2014  15:33:00     -234.535     -129.801        5.860      107.916       86.392       45.882    11645.927     7463.602     2105.142        4.655        1.061      268.058       46.420        0.030      344.054       20.598      863.425
11/27/2014  15:34:00     -115.896     -107.203        6.910       90.077       87.099       43.744     8113.873     7586.239     1913.509        2.129        0.881      157.874       46.487        0.087      344.065       20.616      863.430
11/27/2014  15:35:00     -191.239     -190.513       -0.611       94.303       83.103       59.264     8893.094     6906.134     3512.271        4.609        0.966      269.940       56.178        0.043      344.046       20.584      863.432
11/27/2014  15:36:00     -242.426     -157.211      -13.712       73.671       78.517       40.172     5427.472     6164.977     1613.773        4.844        0.660      288.938       30.663        0.011      344.057       20.602      863.437
11/27/2014  15:37:00     -149.639      -79.570        5.720      116.521       46.026       44.130    13577.079     2118.387     1947.425        2.320        0.882      169.479       54.416        0.103      344.066       20.620      863.438
11/27/2014  15:38:00     -221.873     -125.229      -12.468      118.961       68.391       53.518    14151.617     4677.274     2864.154        4.337        1.085      254.774       58.837        0.053      344.030       20.559      863.428
11/27/2014  15:39:00      -84.215       -8.056       24.226       88.156       91.764       48.625     7771.511     8420.658     2364.412        1.315        0.928       84.599       34.141        0.163      344.034       20.566      863.421
11/27/2014  15:40:00     -101.981     -169.216       -2.537       77.933      126.758       42.029     6073.630    16067.580     1766.431        3.147        1.195      197.571       53.798        0.074      344.021       20.542      863.418
11/27/2014  15:41:00     -229.667     -148.107      -12.453       88.855      104.205       49.453     7895.154    10858.728     2445.603        4.801        1.060      273.281       37.976        0.019      343.991       20.488      863.429
11/27/2014  15:42:00     -244.549     -146.986        9.887      119.558       93.373       62.890    14294.204     8718.457     3955.182        5.423        1.348      285.323       68.016        0.057      343.994       20.494      863.457
11/27/2014  15:43:00     -173.528     -228.575        4.487      131.102      134.553       67.194    17187.738    18104.523     4514.975        6.108        1.990      286.982       61.739        0.046      343.966       20.445      863.467
11/27/2014  15:44:00     -201.004     -239.463      -11.803       99.833       92.924       50.453     9966.686     8634.795     2545.540        5.951        1.057      312.642       46.415        0.022      343.974       20.457      863.468
11/27/2014  15:45:00     -157.003     -138.366       -0.754       80.540       82.707       50.167     6486.665     6840.411     2516.770        2.982        0.792      209.273       43.888        0.044      343.982       20.474      863.448
11/27/2014  15:46:00     -276.191     -191.220       -6.991      196.812      126.097       71.215    38734.812    15900.503     5071.510        8.629        2.985      335.927       78.097        0.054      343.949       20.418      863.438
11/27/2014  15:47:00     -366.613     -151.373      -20.225      212.709      194.478       66.836    45245.070    37821.755     4467.063       12.261        4.377      396.635       91.092        0.053      343.872       20.289      863.438
11/27/2014  15:48:00     -338.685      -75.863        1.742      150.317      126.281       75.558    22595.191    15946.985     5709.017        8.235        2.213      347.077       75.521        0.047      343.861       20.268      863.424
11/27/2014  15:49:00     -372.226     -144.504      -35.018      145.333      133.640       74.742    21121.634    17859.536     5586.307       10.260        2.228      399.291       74.523        0.035      343.852       20.252      863.413
11/27/2014  15:50:00     -268.873     -129.609      -12.823      125.972      130.608       70.987    15868.918    17058.436     5039.160        6.360        1.898      298.482       71.170        0.057      343.830       20.215      863.403
11/27/2014  15:51:00     -238.818     -196.966      -13.724      112.445      126.133       62.754    12643.806    15909.557     3938.120        6.425        1.625      309.564       55.091        0.032      343.813       20.186      863.389
11/27/2014  15:52:00     -264.603     -147.370        1.303      135.613       99.206       55.751    18390.964     9841.904     3108.172        6.153        1.567      302.874       57.080        0.036      343.813       20.187      863.401
11/27/2014  15:53:00     -176.200      -78.484       17.778      124.169      111.341       57.531    15417.860    12396.925     3309.812        3.432        1.556      192.889       59.614        0.096      343.834       20.223      863.409
11/27/2014  15:54:00     -116.110      -68.405        7.753       94.152       74.100       40.842     8864.685     5490.836     1668.029        1.712        0.801      134.762       45.658        0.115      343.827       20.212      863.441
11/27/2014  15:55:00     -157.092     -110.453       -2.126      113.465       61.691       46.687    12874.347     3805.779     2179.691        2.787        0.943      192.036       49.356        0.066      343.833       20.221      863.450
11/27/2014  15:56:00     -215.298     -154.588       -7.822      115.439       83.710       60.069    13326.136     7007.312     3608.336        4.712        1.197      265.049       64.410        0.059      343.827       20.211      863.453
11/27/2014  15:57:00     -167.920     -114.232       -0.672       57.377       84.075       37.618     3292.096     7068.658     1415.116        2.651        0.589      203.091       33.184        0.027      343.825       20.207      863.455
11/27/2014  15:58:00     -259.496     -185.355      -11.134      135.184       91.639       59.237    18274.667     8397.706     3509.043        6.599        1.509      318.896       57.302        0.032      343.792       20.149      863.454
11/27/2014  15:59:00     -318.772     -214.828      -18.480      225.194      106.680       72.695    50712.166    11380.631     5284.562       10.773        3.369      384.404       79.973        0.043      343.796       20.157      863.419
11/27/2014  16:00:00     -158.525     -122.367       11.634      144.363      116.781       60.051    20840.818    13637.858     3606.178        3.915        1.904      200.260       68.615        0.117      343.751       20.083      863.404
11/27/2014  16:01:00     -170.744     -114.371       -5.612       87.700       63.475       49.693     7691.224     4029.064     2469.423        2.822        0.709      205.509       49.052        0.057      343.726       20.037      863.406
11/27/2014  16:02:00     -213.151     -147.539      -16.915      144.861       63.877       46.712    20984.598     4080.298     2181.984        4.736        1.362      259.232       54.624        0.044      343.764       20.104      863.398
11/27/2014  16:03:00     -184.459     -105.851       -5.374      108.460       77.565       47.268    11763.513     6016.405     2234.295        3.263        1.001      212.672       49.807        0.055      343.706       20.003      863.395
11/27/2014  16:04:00     -240.314      -42.634       -1.616      135.774      118.090       68.112    18434.572    13945.274     4639.189        4.829        1.851      244.066       62.518        0.066      343.709       20.008      863.384
11/27/2014  16:05:00     -221.008     -126.357        2.751      107.203      128.105       43.475    11492.475    16410.837     1890.058        4.730        1.490      254.579       44.698        0.031      343.691       19.977      863.396
11/27/2014  16:06:00     -348.321     -157.971      -36.959      191.461      145.122       75.620    36657.184    21060.428     5718.355       10.553        3.172      382.469       78.873        0.043      343.702       19.997      863.388
11/27/2014  16:07:00     -158.894      -71.138        1.363      113.672       85.945       51.004    12921.215     7386.596     2601.451        2.660        1.145      174.091       41.422        0.057      343.682       19.964      863.390
11/27/2014  16:08:00      -79.022     -131.794        7.164       76.385      108.684       40.590     5834.690    11812.213     1647.541        2.148        0.965      153.668       39.865        0.067      343.642       19.895      863.408
11/27/2014  16:09:00     -223.473     -254.883      -10.236       89.844      101.096       55.340     8071.917    10220.463     3062.481        6.818        1.068      338.977       48.338        0.020      343.681       19.959      863.392
11/27/2014  16:10:00     -174.096     -189.242       -1.552      115.118      151.090       57.385    13252.195    22828.280     3293.080        5.274        1.969      257.141       45.654        0.032      343.629       19.874      863.415
11/27/2014  16:11:00     -228.617     -256.404      -19.607      130.100      110.097       73.916    16925.945    12121.394     5463.603        7.645        1.726      343.524       69.942        0.041      343.587       19.800      863.403
11/27/2014  16:12:00     -169.204     -157.886        5.815       92.225      103.995       63.904     8505.479    10815.002     4083.743        3.849        1.170      231.426       47.380        0.042      343.536       19.713      863.406
11/27/2014  16:13:00     -293.658     -172.722       -8.928      145.993      118.444       64.578    21314.051    14028.921     4170.308        7.782        1.976      340.688       67.909        0.040      343.540       19.721      863.400
11/27/2014  16:14:00     -198.554     -142.190       27.167      156.198      152.716       68.392    24397.664    23322.046     4677.477        5.638        2.620      244.216       83.498        0.117      343.484       19.627      863.390
11/27/2014  16:15:00     -220.472     -124.434        0.433      184.864      103.543       64.478    34174.626    10721.146     4157.445        5.656        2.453      253.164       88.588        0.122      343.530       19.703      863.355
11/27/2014  16:16:00     -272.023     -193.889        6.491      115.137      149.962       74.627    13256.625    22488.507     5569.143        7.646        2.066      334.050       65.540        0.038      343.554       19.744      863.358
11/27/2014  16:17:00     -162.787     -173.274        1.232      126.452      146.337       73.104    15990.165    21414.557     5344.165        4.963        2.137      237.747       73.500        0.096      343.545       19.729      863.385
11/27/2014  16:18:00     -113.515     -158.102      -10.435       73.452       79.454       35.988     5395.211     6312.889     1295.145        2.549        0.650      194.632       27.544        0.020      343.496       19.646      863.404
11/27/2014  16:19:00     -229.302     -261.056      -24.096      101.472      140.437       59.908    10296.601    19722.460     3588.930        7.745        1.680      347.462       49.002        0.020      343.535       19.713      863.396
11/27/2014  16:20:00     -119.254     -146.105       -3.251       78.635       89.866       47.326     6183.404     8075.863     2239.751        2.604        0.825      188.595       48.483        0.066      343.522       19.689      863.413
11/27/2014  16:21:00     -143.958     -171.404       -2.811       55.763       89.614       38.768     3109.567     8030.581     1502.955        3.137        0.632      223.837       34.962        0.024      343.562       19.757      863.382
11/27/2014  16:22:00     -243.800     -173.355       -7.740       97.555       98.005       52.782     9516.916     9605.028     2785.929        5.572        1.095      299.149       39.160        0.017      343.494       19.642      863.352
11/27/2014  16:23:00     -218.344     -127.667        5.294      120.681      116.102       53.287    14563.972    13479.743     2839.455        4.744        1.544      252.929       57.270        0.051      343.432       19.537      863.379
11/27/2014  16:24:00     -180.488     -132.271       -7.437       98.007       78.208       45.544     9605.346     6116.433     2074.243        3.396        0.890      223.766       48.665        0.047      343.426       19.527      863.370
11/27/2014  16:25:00     -182.323     -118.670        1.369       91.474       69.729       45.274     8367.470     4862.184     2049.770        3.130        0.764      217.541       46.909        0.046      343.360       19.414      863.361
11/27/2014  16:26:00     -142.199     -167.528       -1.852       90.751       76.630       38.216     8235.706     5872.215     1460.468        3.193        0.778      219.741       31.482        0.021      343.350       19.396      863.363
11/27/2014  16:27:00      -71.457      -39.965       -1.007       58.824       38.011       24.981     3460.279     1444.867      624.044        0.612        0.276       81.874       12.166        0.022      343.267       19.257      863.345
11/27/2014  16:28:00      -53.094      -41.412        0.144       32.830       28.844       17.411     1077.795      831.955      303.132        0.337        0.111       67.335       15.583        0.054      343.261       19.248      863.334
11/27/2014  16:29:00      -73.387      -54.644       -0.457       16.817       37.176       15.774      282.797     1382.049      248.819        0.514        0.096       91.497        9.401        0.011      343.252       19.232      863.329
11/27/2014  16:30:00      -54.494      -33.641       -1.877       25.142       26.479       15.041      632.143      701.147      226.237        0.283        0.078       64.041        6.108        0.009      343.233       19.199      863.328
11/27/2014  16:31:00      -67.287      -36.721       -5.346       19.602       17.822       14.934      384.249      317.637      223.028        0.341        0.046       76.655        6.281        0.007      343.261       19.247      863.306
11/27/2014  16:32:00      -56.342      -60.448       -5.524       26.969       50.828       20.271      727.347     2583.524      410.911        0.529        0.186       82.634       14.381        0.030      343.262       19.249      863.255
11/27/2014  16:33:00      -73.175      -43.240       -1.249       19.656       30.202       16.846      386.360      912.170      283.784        0.440        0.079       84.996       14.717        0.030      343.157       19.071      863.250
11/27/2014  16:34:00      -35.933      -49.371        2.951       31.690       17.288       12.723     1004.274      298.885      161.872        0.260        0.073       61.063       10.774        0.031      343.086       18.949      863.249
11/27/2014  16:35:00     -104.094      -57.365       -3.649       60.449       33.754       23.512     3654.062     1139.350      552.837        0.974        0.267      118.854       29.598        0.062      343.148       19.055      863.261
11/27/2014  16:36:00      -59.840      -37.671        7.335       50.581       34.890       18.325     2558.470     1217.319      335.814        0.458        0.206       70.710       20.392        0.083      343.037       18.868      863.289
11/27/2014  16:37:00      -62.283      -30.058        8.087       39.104       33.999       26.391     1529.135     1155.933      696.499        0.411        0.169       69.156       25.793        0.139      342.993       18.792      863.314
11/27/2014  16:38:00      -62.112       -5.779        4.088       43.875       31.067       14.730     1924.996      965.189      216.973        0.351        0.155       62.381       10.432        0.028      342.974       18.760      863.330
11/27/2014  16:39:00      -69.453      -80.830       -1.284       35.604       81.079       28.851     1267.664     6573.767      832.371        1.001        0.434      106.570       30.973        0.084      343.090       18.956      863.318
11/27/2014  16:40:00      -22.761      -39.446       14.283       40.747       41.885       25.934     1660.344     1754.375      672.573        0.318        0.204       45.541       19.965        0.192      342.951       18.720      863.306
11/27/2014  16:41:00     -100.387      -90.879       -2.108       57.684       50.568       24.965     3327.483     2557.082      623.271        1.242        0.325      135.412       17.670        0.017      342.985       18.778      863.310
11/27/2014  16:42:00      -70.463      -76.748        1.875       56.686       67.974       29.138     3213.293     4620.479      849.004        0.977        0.434      104.189       36.815        0.125      343.004       18.811      863.319
11/27/2014  16:43:00      -48.024      -19.098        7.362       48.723       28.533       25.104     2373.942      814.158      630.236        0.327        0.191       51.682       21.326        0.170      342.819       18.496      863.320
11/27/2014  16:44:00      -51.574      -25.786       -0.149       25.632       24.955       12.620      657.002      622.758      159.273        0.238        0.072       57.661       12.296        0.045      343.004       18.811      863.283
11/27/2014  16:45:00        0.384      -51.048        1.407       59.643       33.814       24.409     3557.314     1143.354      595.784        0.395        0.265       51.050       26.766        0.275      342.910       18.650      863.290
11/27/2014  16:46:00       80.261      -18.632       30.360       86.644      122.163       82.506     7507.197    14923.681     6807.299        1.847        1.462       82.395       89.865        1.190      342.949       18.716      863.258
11/27/2014  16:47:00      -44.837     -132.824       -4.925      147.580       90.053       69.865    21779.767     8109.510     4881.085        2.722        1.739      140.187       58.376        0.173      342.756       18.388      863.229
11/27/2014  16:48:00      -23.446      -68.657        6.859       85.212       58.669       37.517     7261.153     3442.110     1407.553        0.871        0.606       72.550       26.576        0.134      342.857       18.560      863.263
11/27/2014  16:49:00      -61.835     -134.486        4.769       39.545       60.169       25.417     1563.808     3620.330      646.038        1.388        0.292      148.020       16.440        0.012      342.870       18.580      863.278
11/27/2014  16:50:00       34.441      -54.525       12.178       50.996       88.489       45.450     2600.581     7830.241     2065.692        0.840        0.625       64.492       54.935        0.726      342.801       18.464      863.228
11/27/2014  16:51:00       29.019      -33.456       24.259       41.428       80.152       50.538     1716.245     6424.415     2554.116        0.662        0.535       44.288       55.456        1.568      342.992       18.789      863.192
11/27/2014  16:52:00        3.323      -58.302       30.273       52.818       68.354       46.971     2789.727     4672.271     2206.319        0.700        0.483       58.396       42.552        0.531      342.854       18.554      863.173
11/27/2014  16:53:00       38.267     -120.426        6.882      101.552       69.653       42.300    10312.869     4851.495     1789.328        1.648        0.848      126.360       40.384        0.102      342.842       18.534      863.188
11/27/2014  16:54:00      -18.321     -133.900        0.294       75.266       94.962       45.802     5664.984     9017.700     2097.814        1.752        0.839      135.148       45.619        0.114      342.862       18.567      863.201
11/27/2014  16:55:00      -16.225      -63.002       27.458       55.289       97.602       47.637     3056.918     9526.197     2269.272        0.992        0.743       65.058       56.679        0.759      342.731       18.346      863.183
11/27/2014  16:56:00       18.536      -13.259       52.089       52.973       72.527       54.004     2806.169     5260.162     2916.439        0.711        0.549       22.790       58.536        6.597      342.778       18.425      863.151
11/27/2014  16:57:00       17.716      -62.663       37.860       99.348       68.527       57.442     9869.977     4695.889     3299.589        1.177        0.893       65.119       25.161        0.149      342.692       18.278      863.140
11/27/2014  16:58:00       64.789      -96.490       13.615       63.571       93.774       51.822     4041.272     8793.581     2685.489        1.460        0.776      116.223       60.957        0.275      342.732       18.348      863.183
11/27/2014  16:59:00      -20.856     -164.626      -24.913      112.667       94.738       52.858    12693.951     8975.284     2793.979        2.631        1.223      165.942       37.951        0.052      342.833       18.517      863.196
11/27/2014  17:00:00      -88.412      -88.016      -11.968       72.509       44.965       29.675     5257.528     2021.845      880.613        1.193        0.408      124.754       23.116        0.034      342.760       18.396      863.199
11/27/2014  17:01:00      -98.521     -186.293      -12.031       57.660       59.928       31.989     3324.628     3591.412     1023.291        2.625        0.397      210.741       19.907        0.009      342.780       18.426      863.201
11/27/2014  17:02:00      -54.645     -121.015       -6.256       37.198       38.966       27.170     1383.689     1518.314      738.232        1.065        0.182      132.780       14.618        0.012      342.753       18.385      863.211
11/27/2014  17:03:00      -82.652      -80.672       -2.604       34.527       29.531       27.041     1192.130      872.061      731.203        0.807        0.140      115.496       18.001        0.024      342.740       18.359      863.211
11/27/2014  17:04:00      -20.359       -9.560        5.424       37.107       27.905       19.503     1376.915      778.712      380.360        0.154        0.127       22.492       19.181        0.727      342.553       18.043      863.194
11/27/2014  17:05:00       55.031      -74.870        2.219       55.713       82.174       43.334     3103.909     6752.642     1877.861        1.018        0.587       92.919       43.743        0.222      342.734       18.350      863.178
11/27/2014  17:06:00      -19.853      -25.304        1.652       61.233       55.950       29.813     3749.434     3130.360      888.835        0.440        0.388       32.163       30.556        0.903      342.679       18.257      863.170
11/27/2014  17:07:00      -58.618      -90.035       -1.645       61.187       47.348       32.420     3743.862     2241.823     1051.088        0.929        0.352      107.435       32.019        0.089      342.677       18.254      863.168
11/27/2014  17:08:00      -20.363      -78.029       10.451       73.921      116.098       36.668     5464.365    13478.738     1344.558        1.345        1.014       80.643       39.261        0.237      342.595       18.113      863.186
11/27/2014  17:09:00      -79.120     -114.536        1.838      133.345       82.777       42.441    17780.974     6852.059     1801.269        2.290        1.322      139.206       46.652        0.112      342.787       18.438      863.159
11/27/2014  17:10:00       18.917      -96.784        7.793       63.831       82.098       50.279     4074.372     6740.137     2527.990        1.156        0.667       98.615       36.572        0.138      342.765       18.403      863.147
11/27/2014  17:11:00       39.528      -80.307       30.120       91.049      130.186       59.663     8290.009    16948.304     3559.661        1.885        1.440       89.508       70.882        0.627      342.708       18.307      863.145
11/27/2014  17:12:00       26.002      -19.525       40.443       63.474       75.017       45.629     4029.012     5627.623     2082.008        0.721        0.587       32.517       44.555        1.878      342.596       18.117      863.153
11/27/2014  17:13:00       -4.858      -61.140       12.568       65.542       53.155       31.993     4295.713     2825.414     1023.558        0.603        0.407       61.333       30.426        0.246      342.706       18.304      863.146
11/27/2014  17:14:00      -47.022     -207.234        1.169       80.972      141.170       53.763     6556.394    19929.079     2890.465        3.726        1.469      212.501       59.469        0.078      342.998       18.798      863.152
11/27/2014  17:15:00      -59.463     -124.710       -3.289       96.967       66.063       48.140     9402.607     4364.304     2317.425        1.759        0.804      138.161       38.188        0.076      342.876       18.591      863.144
11/27/2014  17:16:00       18.909      -74.523       11.629       71.416       55.732       48.320     5100.217     3106.081     2334.829        0.829        0.527       76.884       23.387        0.093      342.819       18.496      863.155
11/27/2014  17:17:00       24.197      -89.557        5.417       73.702       80.766       69.412     5432.002     6523.092     4817.959        1.270        0.839       92.769       47.784        0.265      342.748       18.374      863.135
11/27/2014  17:18:00      -10.182      -91.191       14.417       54.917       58.133       35.896     3015.841     3379.498     1288.536        0.815        0.384       91.757       30.599        0.111      342.762       18.398      863.142
11/27/2014  17:19:00      -58.610      -84.901       -0.648       45.786       37.335       34.444     2096.392     1393.896     1186.409        0.766        0.234      103.166       15.398        0.022      342.751       18.380      863.167
11/27/2014  17:20:00      -56.346      -39.496        4.221       37.167       30.307       17.310     1381.406      918.485      299.651        0.368        0.130       68.810       15.239        0.049      342.487       17.932      863.174
11/27/2014  17:21:00       25.965       44.748       20.402       34.585       49.231       30.101     1196.114     2423.649      906.078        0.381        0.226       51.735       23.583        0.208      342.487       17.931      863.124
11/27/2014  17:22:00       -2.552       -8.664       19.190       55.483       61.518       42.367     3078.414     3784.498     1794.991        0.455        0.433        9.032       44.651       24.437      342.514       17.976      863.075
11/27/2014  17:23:00      -46.567      -47.406       -0.536       72.102       58.070       38.725     5198.664     3372.135     1499.619        0.724        0.504       66.451       30.463        0.210      342.674       18.249      863.088
11/27/2014  17:24:00      -26.057      -48.829       -3.553       34.354       22.601       22.562     1180.173      510.807      509.062        0.264        0.110       55.346       15.520        0.079      342.537       18.016      863.119
11/27/2014  17:25:00      -54.020      -48.036      -11.587       59.788       56.568       24.476     3574.628     3199.984      599.054        0.637        0.369       72.289       17.641        0.060      342.648       18.204      863.112
11/27/2014  17:26:00      -41.246       10.883       13.762       48.742       36.863       29.068     2375.784     1358.886      844.966        0.329        0.229       42.658       25.508        0.358      342.506       17.962      863.114
11/27/2014  17:27:00     -102.190      -58.517       -0.992       42.974       38.774       26.722     1846.752     1503.445      714.088        0.897        0.203      117.758       26.142        0.049      342.502       17.956      863.120
11/27/2014  17:28:00     -132.265       14.488       -0.091       67.294       53.706       33.037     4528.454     2884.293     1091.441        1.310        0.425      133.056       28.758        0.047      342.593       18.112      863.094
11/27/2014  17:29:00      -79.043      -62.306        0.809       73.296       39.750       27.383     5372.357     1580.066      749.822        0.891        0.385      100.647       27.995        0.077      342.520       17.988      863.118
11/27/2014  17:30:00     -121.029     -108.752       -3.136       70.679       66.855       36.990     4995.562     4469.546     1368.241        1.866        0.542      162.711       36.902        0.051      342.474       17.908      863.142
11/27/2014  17:31:00      -51.732      -50.529       -4.960       71.992       57.216       25.871     5182.867     3273.676      669.323        0.719        0.456       72.314       23.633        0.107      342.509       17.970      863.122
11/27/2014  17:32:00      -99.833      -47.970       -5.445       45.655       34.022       22.647     2084.377     1157.489      512.874        0.803        0.188      110.760       14.742        0.018      342.409       17.797      863.114
11/27/2014  17:33:00      -63.671      -95.446       -8.108       43.941       42.618       24.545     1930.803     1816.298      602.464        0.879        0.217      114.734       19.335        0.028      342.465       17.892      863.109
11/27/2014  17:34:00       19.382      -14.154       33.885       75.105       79.341       48.802     5640.815     6295.072     2381.644        0.802        0.716       24.000       49.675        4.284      342.259       17.544      863.108
11/27/2014  17:35:00      -92.876     -137.897        2.039       71.787       98.431       44.023     5153.342     9688.711     1938.052        2.221        0.839      166.258       41.036        0.061      342.487       17.930      863.069
11/27/2014  17:36:00      -60.924      -31.883        0.480       55.930       41.493       33.719     3128.211     1721.644     1136.961        0.536        0.299       68.762       30.543        0.197      342.049       17.186      863.054
11/27/2014  17:37:00      -80.844      -84.908       -9.085       79.794       90.125       40.398     6367.019     8122.540     1631.965        1.497        0.806      117.240       23.478        0.040      342.390       17.767      863.041
11/27/2014  17:38:00     -142.299        2.067      -14.255       35.958       51.662       16.895     1292.967     2668.921      285.431        1.235        0.212      142.314       16.503        0.013      342.080       17.238      863.027
11/27/2014  17:39:00     -161.392        8.046       -9.119       68.413       62.921       30.100     4680.311     3959.044      906.036        1.787        0.477      161.592       30.904        0.037      341.659       16.523      863.013
11/27/2014  17:40:00      -68.523       -8.307        3.581       65.825       53.016       30.192     4332.899     2810.714      911.577        0.641        0.403       69.024       32.713        0.225      341.357       16.014      863.019
11/27/2014  17:41:00     -149.205       -7.902      -21.173       86.198       30.054       31.259     7430.020      903.255      977.117        1.604        0.466      149.414       16.442        0.012      340.850       15.154      863.058
11/27/2014  17:42:00     -154.015       71.496      -20.883       38.993       44.079       24.669     1520.434     1942.920      608.544        1.667        0.204      169.801       25.300        0.022      340.828       15.116      863.057
11/27/2014  17:43:00     -129.355       43.804      -12.898       58.082       30.768       22.597     3373.492      946.658      510.637        1.182        0.242      136.571       21.641        0.025      340.829       15.119      863.090
11/27/2014  17:44:00     -167.488        9.472      -23.006       25.621       57.790       21.075      656.414     3339.670      444.141        1.655        0.222      167.755       19.268        0.013      340.884       15.213      863.124
11/27/2014  17:45:00     -119.767        2.371      -19.481       31.920       34.606       17.652     1018.895     1197.582      311.576        0.863        0.126      119.791       14.973        0.016      340.550       14.647      863.106
11/27/2014  17:46:00      -97.261       67.737       -7.506       42.819       51.176       35.279     1833.438     2618.975     1244.632        0.990        0.285      118.524       20.696        0.030      340.513       14.585      863.026
11/27/2014  17:47:00     -136.011      153.727      -25.716       52.833       55.813       29.405     2791.347     3115.098      864.640        2.478        0.339      205.259       32.217        0.025      340.767       15.013      862.988
11/27/2014  17:48:00     -113.720        0.966       -3.791       49.128       76.402       28.962     2413.528     5837.274      838.798        1.102        0.454      113.724       31.638        0.077      340.667       14.847      862.982
11/27/2014  17:49:00     -101.706      -20.215        2.725       41.059       47.238       30.931     1685.804     2231.398      956.716        0.782        0.244      103.695       25.951        0.063      340.757       14.998      863.001
11/27/2014  17:50:00     -113.848      -13.808      -13.248       46.541       52.586       24.713     2166.100     2765.295      610.708        0.943        0.277      114.682       24.616        0.046      340.754       14.992      863.015
11/27/2014  17:51:00     -142.886      -63.801        2.103       69.201       60.473       37.228     4788.830     3656.927     1385.935        1.716        0.492      156.483       38.012        0.059      340.499       14.560      863.050
11/27/2014  17:52:00     -142.701      -31.136       -9.884       56.209       61.276       25.600     3159.419     3754.778      655.362        1.450        0.378      146.058       24.973        0.029      340.523       14.600      863.047
11/27/2014  17:53:00     -149.397      -34.196      -21.337       78.251       43.034       29.336     6123.276     1851.912      860.626        1.639        0.442      153.261       33.401        0.047      340.613       14.755      863.013
11/27/2014  17:54:00     -151.034        5.011      -29.387       37.823       39.511       21.753     1430.545     1561.131      473.196        1.358        0.173      151.117       21.121        0.020      340.955       15.333      862.979
11/27/2014  17:55:00     -124.327        3.973       -9.394       51.755       44.024       30.260     2678.604     1938.079      915.662        1.055        0.277      124.391       30.703        0.061      340.704       14.908      862.968
11/27/2014  17:56:00      -74.293        1.916       -3.116       52.629       37.291       25.857     2769.771     1390.632      668.562        0.518        0.241       74.318       22.834        0.094      340.587       14.712      862.944
11/27/2014  17:57:00     -102.347       -7.441       -6.678       25.634       31.301       19.737      657.109      979.779      389.548        0.630        0.101      102.617       14.821        0.021      340.446       14.471      862.932
11/27/2014  17:58:00     -152.689       -4.690      -14.176       58.650       53.140       32.691     3439.841     2823.913     1068.730        1.543        0.367      152.761       33.651        0.049      340.548       14.642      862.928
11/27/2014  17:59:00     -201.761       26.013      -18.154       62.335       45.025       29.619     3885.624     2027.212      877.283        2.425        0.340      203.431       30.951        0.023      340.658       14.828      862.907
11/27/2014  18:00:00     -147.225      -38.645       -8.235       74.442       48.245       28.992     5541.554     2327.567      840.513        1.597        0.435      152.212       31.359        0.042      340.577       14.693      862.904
11/27/2014  18:01:00     -128.145       -1.015       -6.502       37.355       47.275       26.310     1395.413     2234.967      692.216        1.039        0.216      128.149       16.281        0.016      340.482       14.533      862.911
11/27/2014  18:02:00     -115.024      -27.773        4.882       80.661       47.358       34.836     6506.191     2242.811     1213.523        1.199        0.498      118.330       38.670        0.107      340.621       14.769      862.907
11/27/2014  18:03:00     -114.523      -49.547       -0.869       63.001       55.800       36.553     3969.076     3113.593     1336.100        1.199        0.421      124.781       35.823        0.082      340.258       14.153      862.972
11/27/2014  18:04:00      -93.725      -38.686        3.666       43.632       55.724       24.618     1903.729     3105.113      606.046        0.795        0.281      101.395       19.527        0.037      340.151       13.973      863.001
11/27/2014  18:05:00      -50.359       10.211        5.253       46.150       42.128       28.021     2129.848     1774.805      785.160        0.368        0.234       51.384       27.255        0.281      340.396       14.387      862.996
11/27/2014  18:06:00      -64.522       37.140        4.373       36.598       47.591       25.268     1339.402     2264.940      638.486        0.490        0.212       74.448       21.367        0.082      340.436       14.455      862.995
11/27/2014  18:07:00     -125.549       95.767      -24.104       38.839       24.166       18.469     1508.499      584.007      341.095        1.397        0.122      157.905       15.213        0.009      340.593       14.721      862.931
11/27/2014  18:08:00      -52.054      137.434      -16.563       34.264       34.556       26.925     1174.035     1194.097      724.972        1.248        0.155      146.962       18.069        0.015      340.618       14.763      862.859
11/27/2014  18:09:00       18.005      116.953      -22.593       28.671       23.793       16.112      822.047      566.093      259.587        0.808        0.082      118.331       10.857        0.008      340.634       14.791      862.832
11/27/2014  18:10:00      -40.106       26.444      -13.907       50.907       62.222       18.884     2591.482     3871.628      356.609        0.466        0.341       48.039       16.929        0.124      340.469       14.512      862.843
11/27/2014  18:11:00      -15.623      -11.628        2.983       61.188       32.455       23.858     3743.916     1053.345      569.220        0.288        0.268       19.475       19.260        0.978      340.300       14.224      862.872
11/27/2014  18:12:00     -143.076       31.322      -18.784       66.479       28.233       21.826     4419.427      797.129      476.369        1.375        0.285      146.465       17.311        0.014      340.626       14.775      862.879
11/27/2014  18:13:00     -193.424      -37.881      -18.108       30.568       44.638       22.546      934.381     1992.533      508.320        2.130        0.172      197.098       10.697        0.003      340.449       14.476      862.927
11/27/2014  18:14:00     -113.738       16.699       -9.727       63.758       40.681       30.015     4065.077     1654.940      900.916        0.996        0.331      114.958       30.715        0.071      340.218       14.086      862.927
11/27/2014  18:15:00     -118.773       35.133      -10.195       59.411       39.374       30.067     3529.671     1550.331      903.999        1.071        0.299      123.861       30.136        0.059      340.383       14.365      862.880
11/27/2014  18:16:00      -55.476       91.713       -0.913       47.551       53.421       31.851     2261.113     2853.825     1014.457        0.881        0.306      107.186       25.450        0.056      340.247       14.135      862.819
11/27/2014  18:17:00     -120.162      -29.430      -28.585       35.097       72.832       30.023     1231.814     5304.494      901.391        1.178        0.372      123.713       26.591        0.046      340.170       14.007      862.816
11/27/2014  18:18:00     -109.460      -51.902      -17.120       54.320       30.344       29.755     2950.626      920.784      885.380        0.986        0.238      121.142       19.405        0.026      340.032       13.772      862.859
11/27/2014  18:19:00      -66.697      -44.388       -8.172       71.670       31.294       27.574     5136.600      979.324      760.301        0.668        0.344       80.117       32.013        0.160      339.841       13.451      862.866
11/27/2014  18:20:00     -125.209      -38.249      -17.761       38.196       38.597       21.960     1458.945     1489.755      482.229        1.044        0.172      130.920       14.124        0.012      339.924       13.591      862.889
11/27/2014  18:21:00     -107.367      -28.531      -16.141       37.913       45.257       28.555     1437.389     2048.163      815.370        0.845        0.215      111.093       26.578        0.057      339.902       13.556      862.862
11/27/2014  18:22:00      -76.768      -16.458       -6.163       51.552       45.189       29.053     2657.629     2042.001      844.053        0.587        0.277       78.512       27.998        0.127      339.893       13.538      862.847
11/27/2014  18:23:00     -102.378      -32.284      -25.920       33.764       37.269       26.580     1140.034     1388.961      706.516        0.771        0.162      107.348       18.603        0.030      339.949       13.633      862.834
11/27/2014  18:24:00     -130.198      -10.159      -17.080       44.830       54.552       31.675     2009.688     2975.911     1003.335        1.167        0.299      130.594       21.557        0.027      340.051       13.805      862.857
11/27/2014  18:25:00     -109.129       26.531      -10.707       41.378       58.881       24.785     1712.120     3466.920      614.320        0.926        0.290      112.307       25.055        0.050      340.082       13.856      862.866
11/27/2014  18:26:00      -64.234       22.755      -17.102       49.401       50.123       19.650     2440.433     2512.330      386.123        0.514        0.267       68.145       12.428        0.033      340.323       14.264      862.850
11/27/2014  18:27:00      -83.388       63.391      -15.856       57.479       34.981       22.666     3303.780     1223.668      513.752        0.813        0.252      104.748       17.793        0.029      340.587       14.710      862.806
11/27/2014  18:28:00     -109.433      -24.384       -9.888       31.129       46.612       22.628      969.029     2172.655      512.038        0.816        0.183      112.117       19.542        0.030      340.350       14.309      862.804
11/27/2014  18:29:00      -86.649       42.461       -6.835       44.393       47.375       25.318     1970.715     2244.393      640.978        0.711        0.243       96.494       24.003        0.062      340.257       14.154      862.805
11/27/2014  18:30:00     -138.945       82.330      -18.469       45.589       44.320       26.267     2078.346     1964.258      689.980        1.558        0.237      161.505       24.488        0.023      340.718       14.932      862.797
11/27/2014  18:31:00      -77.026        5.471       -9.826       21.953       33.909       23.457      481.947     1149.834      550.225        0.412        0.109       77.220       16.975        0.048      340.422       14.432      862.838
11/27/2014  18:32:00     -104.211      -16.822      -13.315       19.821       21.254       14.772      392.885      451.735      218.199        0.619        0.053      105.560        7.370        0.005      339.852       13.471      862.863
11/27/2014  18:33:00     -136.381       62.688      -19.393       43.991       48.850       27.575     1935.189     2386.315      760.372        1.399        0.254      150.098       22.423        0.022      340.696       14.894      862.809
11/27/2014  18:34:00     -127.315       17.241      -21.781       54.532       47.293       31.798     2973.789     2236.599     1011.103        1.160        0.311      128.478       22.267        0.030      340.423       14.432      862.794
11/27/2014  18:35:00     -139.140       18.482      -10.949       58.213       48.310       30.235     3388.761     2333.814      914.126        1.323        0.332      140.362       25.692        0.034      340.525       14.605      862.828
11/27/2014  18:36:00     -121.701       33.921       -7.442       63.355       46.151       26.474     4013.893     2129.903      700.890        1.143        0.342      126.340       24.640        0.038      340.362       14.331      862.858
11/27/2014  18:37:00     -117.769       19.646       -4.874       60.223       56.287       34.262     3626.815     3168.227     1173.900        1.112        0.398      119.396       31.572        0.070      340.185       14.030      862.851
11/27/2014  18:38:00      -77.092       58.289      -16.085       62.413       68.812       32.894     3895.335     4735.023     1082.027        0.965        0.486       96.648       45.035        0.217      340.521       14.598      862.820
11/27/2014  18:39:00      -69.338       40.437      -18.088       34.352       57.551       24.608     1180.028     3312.113      605.568        0.593        0.255       80.268       17.032        0.045      340.495       14.555      862.750
11/27/2014  18:40:00      -64.208      -53.426      -22.838       24.560       24.543       13.293      603.190      602.371      176.696        0.444        0.069       83.528       10.659        0.016      339.777       13.342      862.745
11/27/2014  18:41:00      -78.680       -8.268      -10.280       23.748       37.516       16.043      563.984     1407.420      257.380        0.430        0.111       79.113       11.309        0.020      340.632       14.788      862.740
11/27/2014  18:42:00     -191.157      -58.493      -18.123       46.503       35.561       25.172     2162.562     1264.586      633.647        2.217        0.203      199.906       19.307        0.009      339.679       13.176      862.796
11/27/2014  18:43:00     -203.126      -17.830      -20.806       55.676       33.190       27.570     3099.763     1101.601      760.085        2.349        0.248      203.907       29.386        0.021      339.787       13.359      862.840
11/27/2014  18:44:00     -151.535       64.168       -3.903       60.521       65.218       40.721     3662.770     4253.358     1658.188        1.833        0.479      164.561       35.123        0.046      340.460       14.495      862.830
11/27/2014  18:45:00     -136.449       99.789        0.119       76.552       64.172       50.865     5860.243     4118.072     2587.289        2.057        0.628      169.045       47.263        0.078      341.091       15.561      862.818
11/27/2014  18:46:00     -137.408       58.684       -2.898       62.346       33.787       34.367     3887.076     1141.583     1181.113        1.427        0.310      149.414       27.114        0.033      340.861       15.173      862.781
11/27/2014  18:47:00     -173.366      128.579      -33.919       36.022       59.815       31.300     1297.572     3577.805      979.719        2.680        0.293      215.843       30.330        0.020      340.883       15.209      862.760
11/27/2014  18:48:00      -99.140      167.999      -32.148       20.839       29.193       19.586      434.249      852.240      383.596        2.038        0.084      195.070       11.029        0.003      341.095       15.568      862.775
11/27/2014  18:49:00     -141.254        2.781      -23.608       38.619       52.720       19.435     1491.460     2779.396      377.724        1.258        0.232      141.282       13.347        0.009      340.737       14.965      862.784
11/27/2014  18:50:00     -139.041       12.934      -12.578       61.756       62.583       37.025     3813.847     3916.627     1370.854        1.438        0.455      139.642       36.396        0.068      340.085       13.862      862.817
11/27/2014  18:51:00     -123.432       54.600      -16.790       29.531       54.395       23.878      872.090     2958.835      570.161        1.145        0.220      134.969       12.214        0.008      340.458       14.493      862.840
11/27/2014  18:52:00     -136.583      -44.040      -21.318       29.145       23.728       11.415      849.434      563.010      130.300        1.130        0.077      143.507       10.613        0.005      339.627       13.090      862.846
11/27/2014  18:53:00      -73.635      -11.969       -8.361       24.332       34.290       16.313      592.050     1175.805      266.123        0.383        0.102       74.601       13.226        0.031      339.873       13.505      862.794
11/27/2014  18:54:00      -45.026       10.159       -4.100       46.511       41.159       21.761     2163.260     1694.060      473.551        0.324        0.217       46.158       25.794        0.312      339.909       13.568      862.730
11/27/2014  18:55:00     -119.573       39.069      -16.374       41.834       46.436       23.171     1750.081     2156.297      536.893        1.027        0.222      125.793       14.658        0.014      340.705       14.910      862.723
11/27/2014  18:56:00      -87.144      -32.510       -5.564       36.867       38.865       25.717     1359.151     1510.467      661.377        0.611        0.177       93.010       22.713        0.060      339.564       12.984      862.755
11/27/2014  18:57:00     -103.341      -20.081      -11.029       69.816       41.977       29.629     4874.303     1762.087      877.874        0.936        0.376      105.274       33.691        0.102      339.457       12.804      862.765
11/27/2014  18:58:00      -26.264      -28.947       10.515       39.213       37.661       31.923     1537.662     1418.377     1019.099        0.281        0.199       39.086       26.764        0.469      340.146       13.966      862.750
11/27/2014  18:59:00       -8.733      -33.430       -8.244       35.617       25.916       19.601     1268.544      671.621      384.185        0.179        0.116       34.552       22.866        0.438      339.499       12.874      862.700
11/27/2014  19:00:00      -51.696       37.685       -9.670       20.707       42.108       14.412      428.783     1773.059      207.711        0.330        0.120       63.973        9.031        0.020      340.763       15.008      862.664
11/27/2014  19:01:00      -54.013      -14.531       -8.654       24.205       21.986       13.790      585.900      483.386      190.155        0.223        0.063       55.933        9.842        0.031      340.329       14.275      862.674
11/27/2014  19:02:00      -97.159        2.426      -14.511       31.698       30.903       18.268     1004.795      954.995      333.715        0.597        0.115       97.189       17.548        0.033      340.162       13.994      862.637
11/27/2014  19:03:00     -109.623      -34.148      -14.338       43.904       37.837       13.982     1927.523     1431.670      195.510        0.847        0.178      114.819        8.938        0.006      339.766       13.327      862.601
11/27/2014  19:04:00     -191.375      -56.453      -10.422       56.971       58.781       31.132     3245.647     3455.246      969.231        2.379        0.384      199.528       23.262        0.014      339.039       12.098      862.624
11/27/2014  19:05:00     -140.136       33.939      -12.422       53.843       71.136       42.884     2899.122     5060.289     1839.002        1.537        0.490      144.187       34.366        0.057      339.322       12.575      862.673
11/27/2014  19:06:00     -184.085       62.257      -12.284       54.491       52.590       30.020     2969.253     2765.760      901.207        2.227        0.332      194.328       23.742        0.015      339.636       13.103      862.697
11/27/2014  19:07:00     -125.118       58.775      -18.772       48.468       41.510       33.222     2349.155     1723.063     1103.678        1.232        0.259      138.235       25.354        0.034      340.086       13.863      862.675
11/27/2014  19:08:00     -103.130      140.710      -29.927       47.940       41.543       24.276     2298.208     1725.860      589.342        1.797        0.231      174.456       22.317        0.016      340.736       14.962      862.645
11/27/2014  19:09:00      -83.507       24.734      -14.203       36.138       91.360       26.979     1305.977     8346.623      727.891        0.908        0.519       87.093       32.958        0.143      340.003       13.725      862.623
11/27/2014  19:10:00      -59.629      -27.126       -6.730       22.565       24.416       13.323      509.181      596.128      177.509        0.281        0.064       65.509        4.324        0.004      339.485       12.850      862.631
11/27/2014  19:11:00      -57.802      -36.855       -8.017       36.207       25.042       21.513     1310.976      627.109      462.808        0.358        0.120       68.551       19.351        0.080      339.297       12.533      862.650
11/27/2014  19:12:00     -103.718      -40.200      -12.888       55.753       52.125       24.068     3108.432     2717.062      579.248        0.947        0.320      111.236       14.630        0.017      339.153       12.292      862.685
11/27/2014  19:13:00     -251.095       77.605      -19.403       62.132       47.341       34.182     3860.407     2241.172     1168.432        3.836        0.364      262.814       27.277        0.011      339.753       13.299      862.673
11/27/2014  19:14:00     -219.673      103.659      -20.264       66.042       56.934       29.114     4361.509     3241.481      847.608        3.393        0.423      242.902       26.887        0.012      340.090       13.867      862.639
11/27/2014  19:15:00     -164.615      101.136      -25.896       44.287       48.605       26.740     1961.369     2362.490      715.054        2.152        0.252      193.201       20.826        0.012      340.464       14.501      862.615
11/27/2014  19:16:00     -130.110       15.855      -17.655       36.860       42.003       23.667     1358.645     1764.212      560.143        1.059        0.184      131.073       21.246        0.026      340.236       14.118      862.652
11/27/2014  19:17:00     -107.581       11.699      -16.759       47.293       31.177       22.051     2236.604      972.034      486.256        0.784        0.185      108.215       25.492        0.055      339.548       12.958      862.637
11/27/2014  19:18:00     -115.879      -37.936      -14.473       57.700       42.925       20.967     3329.316     1842.553      439.603        1.034        0.281      121.931       16.208        0.018      339.489       12.856      862.651
11/27/2014  19:19:00     -156.053       11.363      -12.365       68.502       64.831       36.544     4692.487     4203.038     1335.459        1.743        0.512      156.467       31.625        0.041      339.593       13.029      862.646
11/27/2014  19:20:00     -175.439      116.659      -31.223       37.618       59.264       34.551     1415.142     3512.281     1193.787        2.574        0.306      210.685       27.343        0.017      340.551       14.648      862.594
11/27/2014  19:21:00     -128.339      -40.657      -17.144       27.474       50.040       25.424      754.845     2504.049      646.380        1.116        0.195      134.625       17.566        0.017      339.507       12.887      862.582
11/27/2014  19:22:00      -80.249      -46.754       -5.169       52.710       32.798       21.187     2778.338     1075.715      448.908        0.648        0.215       92.875       26.904        0.084      340.064       13.827      862.606
11/27/2014  19:23:00     -117.207      -42.664       -9.332       44.761       32.025       24.791     2003.588     1025.622      614.581        0.964        0.182      124.730       24.941        0.040      339.312       12.559      862.644
11/27/2014  19:24:00     -207.607      -73.989       -7.562       59.341       44.441       27.297     3521.389     1975.022      745.153        2.744        0.312      220.397       26.287        0.014      339.045       12.106      862.687
11/27/2014  19:25:00     -194.931      -22.937       -7.953       74.725       55.650       40.394     5583.877     3096.969     1631.696        2.445        0.516      196.276       41.308        0.044      339.522       12.912      862.739
11/27/2014  19:26:00     -192.074       45.807      -15.696       81.550       55.042       34.443     6650.397     3029.589     1186.286        2.505        0.543      197.461       31.125        0.025      339.736       13.271      862.733
11/27/2014  19:27:00     -101.272       69.939       -1.808       66.541       50.980       37.560     4427.742     2598.931     1410.766        1.179        0.422      123.075       36.261        0.087      339.539       12.943      862.686
11/27/2014  19:28:00     -175.024      104.446      -28.084       28.194       61.094       26.510      794.912     3732.513      702.784        2.378        0.262      203.819       26.601        0.017      339.835       13.439      862.674
11/27/2014  19:29:00     -127.934       37.725       -8.229       37.094       35.917       25.064     1375.991     1290.060      628.225        1.058        0.165      133.380       14.738        0.012      339.796       13.374      862.686
11/27/2014  19:30:00     -130.724       23.318      -21.132       48.150       45.255       23.523     2318.403     2048.030      553.344        1.150        0.246      132.787       20.180        0.023      339.792       13.368      862.674
11/27/2014  19:31:00     -133.958       -3.504      -14.361       53.921       56.070       23.241     2907.453     3143.884      540.150        1.238        0.330      134.003       23.755        0.031      339.636       13.106      862.655
11/27/2014  19:32:00     -107.821      -19.089       -5.871       48.069       39.789       20.657     2310.646     1583.156      426.724        0.817        0.216      109.498        5.797        0.003      339.158       12.301      862.650
11/27/2014  19:33:00     -128.139       59.390      -14.823       44.907       37.858       24.720     2016.640     1433.215      611.100        1.211        0.203      141.233       21.317        0.023      339.937       13.613      862.656
11/27/2014  19:34:00     -153.466       37.501      -17.185       42.507       49.271       28.669     1806.808     2427.677      821.900        1.515        0.253      157.981       21.211        0.018      339.805       13.390      862.656
11/27/2014  19:35:00     -137.418       -3.714       -8.042       44.343       43.057       21.072     1966.265     1853.876      444.032        1.161        0.213      137.468       19.788        0.021      339.514       12.900      862.670
11/27/2014  19:36:00     -112.441       45.846        3.305       52.350       48.467       32.958     2740.522     2349.027     1086.259        1.046        0.309      121.428       19.893        0.027      339.818       13.411      862.672
11/27/2014  19:37:00     -120.742       90.572      -21.796       36.042       34.396       27.429     1299.054     1183.116      752.324        1.325        0.162      150.937       20.124        0.018      340.235       14.116      862.657
11/27/2014  19:38:00      -52.605       82.887      -19.202       51.112       36.199       22.952     2612.408     1310.384      526.800        0.723        0.222       98.171       20.089        0.042      340.144       13.961      862.674
11/27/2014  19:39:00      -50.711      -12.335       -9.988       34.417       47.236       15.191     1184.563     2231.197      230.765        0.323        0.182       52.189       13.433        0.066      339.706       13.224      862.712
11/27/2014  19:40:00     -117.467      -32.778      -21.867       16.838       22.934       13.799      283.507      525.968      190.412        0.818        0.050      121.955        8.868        0.005      339.451       12.793      862.700
11/27/2014  19:41:00      -72.032      -20.639       -8.118       48.435       34.420       22.656     2345.922     1184.748      513.280        0.486        0.202       74.930       24.333        0.105      339.399       12.706      862.671
11/27/2014  19:42:00      -23.297        1.217       -6.284       29.988       28.978       14.520      899.274      839.719      210.833        0.127        0.097       23.329       12.916        0.307      339.348       12.620      862.684
11/27/2014  19:43:00      -83.470       54.796      -10.537       24.800       33.713       19.630      615.041     1136.587      385.327        0.611        0.107       99.849       11.916        0.014      340.130       13.938      862.624
11/27/2014  19:44:00      -20.246       69.481       -0.506       37.756       30.245       23.734     1425.508      914.772      563.288        0.407        0.145       72.371       20.404        0.079      340.118       13.919      862.564
11/27/2014  19:45:00       -0.525       54.154       15.646       23.094       52.789       16.741      533.352     2786.664      280.265        0.339        0.180       54.157       13.182        0.059      340.331       14.278      862.585
11/27/2014  19:46:00      -70.377      -33.140       -1.325       66.426       37.589       21.495     4412.456     1412.906      462.031        0.617        0.314       77.789        7.885        0.010      339.366       12.650      862.701
11/27/2014  19:47:00     -133.134      -20.506        0.772       71.828       62.027       35.919     5159.257     3847.310     1290.155        1.422        0.515      134.704       28.860        0.046      339.182       12.340      862.728
11/27/2014  19:48:00     -150.352        5.251       -4.482       61.403       46.876       32.019     3770.316     2197.358     1025.231        1.482        0.350      150.444       27.938        0.034      339.480       12.841      862.735
11/27/2014  19:49:00     -184.284      -11.251      -13.520       72.977       51.794       33.022     5325.655     2682.651     1090.426        2.168        0.455      184.627       26.937        0.021      339.862       13.483      862.687
11/27/2014  19:50:00     -166.628       41.831      -12.008       57.476       67.542       35.918     3303.502     4561.982     1290.080        1.941        0.458      171.798       23.508        0.019      340.275       14.184      862.609
11/27/2014  19:51:00     -100.199       96.452       -8.031       42.887       49.148       30.313     1839.258     2415.494      918.885        1.229        0.259      139.079       27.383        0.039      340.578       14.695      862.566
11/27/2014  19:52:00      -74.401       18.493      -10.412       26.139       38.125       18.397      683.221     1453.505      338.438        0.423        0.124       76.665       16.932        0.049      340.638       14.796      862.570
11/27/2014  19:53:00       -2.105       25.669       -0.733       37.218       43.685       18.802     1385.197     1908.366      353.526        0.215        0.182       25.755       17.059        0.439      340.419       14.426      862.581
11/27/2014  19:54:00       36.430      -62.244       -3.514       27.944       47.994       24.538      780.884     2303.393      602.099        0.445        0.184       72.121       30.858        0.183      340.236       14.118      862.624
11/27/2014  19:55:00      -45.849       -9.492       -2.356       39.529       17.133       15.896     1562.557      293.530      252.696        0.215        0.105       46.821       19.517        0.174      340.236       14.118      862.639
11/27/2014  19:56:00      -58.239      -14.364       -7.757       29.076       26.474       17.308      845.420      700.893      299.563        0.275        0.092       59.984       10.310        0.030      340.892       15.227      862.619
11/27/2014  19:57:00     -107.778      -16.874       -4.447       30.819       33.029       23.068      949.784     1090.926      532.142        0.725        0.129      109.091       20.149        0.034      340.644       14.807      862.648
11/27/2014  19:58:00     -105.631      -23.726       -0.344       46.040       31.805       26.698     2119.699     1011.567      712.779        0.778        0.192      108.263       24.290        0.050      340.077       13.850      862.685
11/27/2014  19:59:00      -71.819      -27.987        9.110       54.031       37.673       24.503     2919.359     1419.241      600.412        0.548        0.247       77.079       25.115        0.106      340.406       14.405      862.676
11/27/2014  20:00:00        1.928       11.075        9.133       28.958       24.805       18.606      838.553      615.309      346.195        0.100        0.090       11.242       11.698        1.083      339.997       13.714      862.638
11/27/2014  20:01:00        8.704       22.116        2.364       22.466       13.061        9.956      504.734      170.594       99.123        0.067        0.039       23.767        3.816        0.026      340.346       14.303      862.608
11/27/2014  20:02:00      -89.951       12.357       -3.848       25.206       26.387       17.208      635.333      696.273      296.106        0.494        0.081       90.796       13.528        0.022      340.954       15.331      862.597
11/27/2014  20:03:00      -84.722      -12.100       -3.975       25.092       31.481       16.602      629.584      991.022      275.632        0.462        0.095       85.582       10.079        0.014      340.842       15.142      862.613
11/27/2014  20:04:00      -93.821      -19.547       -7.912       40.864       25.071       19.967     1669.830      628.546      398.668        0.597        0.135       95.836       21.268        0.049      340.530       14.614      862.631
11/27/2014  20:05:00      -88.230      -27.585       -9.913       36.839       36.574       21.763     1357.081     1337.658      473.638        0.591        0.158       92.442       23.104        0.062      340.819       15.103      862.632
11/27/2014  20:06:00      -37.947      -41.459        2.503       54.795       61.918       28.373     3002.461     3833.860      805.029        0.540        0.382       56.203       24.577        0.191      340.966       15.352      862.614
11/27/2014  20:07:00      -56.632      -43.739       -4.949       43.781       29.964       16.102     1916.775      897.821      259.285        0.411        0.154       71.556       19.199        0.072      340.797       15.064      862.612
11/27/2014  20:08:00      -74.421      -40.109       -5.578       37.329       32.720       21.253     1393.481     1070.594      451.708        0.505        0.146       84.541       25.033        0.088      340.680       14.869      862.636
11/27/2014  20:09:00     -132.104      -13.380      -12.086       34.512       30.307       17.224     1191.051      918.542      296.683        1.009        0.120      132.780       13.298        0.010      341.073       15.533      862.624
11/27/2014  20:10:00     -163.997      -14.496       -5.412       47.930       33.532       26.448     2297.249     1124.393      699.472        1.563        0.206      164.637       27.239        0.027      340.523       14.603      862.617
11/27/2014  20:11:00      -93.623      -14.843        5.133       51.494       41.667       26.558     2651.591     1736.115      705.342        0.705        0.255       94.792       24.440        0.066      340.694       14.893      862.616
11/27/2014  20:12:00      -16.850        0.008        2.540       29.784       27.962       17.220      887.115      781.897      296.540        0.113        0.098       16.850       19.660        1.361      340.761       15.005      862.580
11/27/2014  20:13:00      -17.253       35.822        8.926       28.401       34.716       18.587      806.614     1205.175      345.493        0.201        0.118       39.760       12.538        0.099      340.905       15.248      862.528
11/27/2014  20:14:00      -27.371      -37.850        1.715       19.775       23.311       13.587      391.045      543.422      184.614        0.165        0.056       46.710       12.976        0.077      340.706       14.913      862.501
11/27/2014  20:15:00      -49.252      -25.938        2.062       26.343       28.821       14.108      693.954      830.628      199.031        0.241        0.086       55.665       11.588        0.043      340.533       14.619      862.506
11/27/2014  20:16:00      -75.086      -11.986       -2.739       36.035       34.667       19.841     1298.492     1201.778      393.671        0.434        0.145       76.037       14.236        0.035      340.217       14.085      862.526
11/27/2014  20:17:00      -53.763      -43.013      -10.491       23.694       23.674       11.088      561.397      560.473      122.934        0.305        0.062       68.851        9.857        0.020      340.203       14.061      862.544
11/27/2014  20:18:00      -76.275       16.508      -18.512       56.610       29.839       12.503     3204.734      890.366      156.321        0.534        0.213       78.041       19.290        0.061      340.763       15.009      862.532
11/27/2014  20:19:00     -137.084       10.625      -11.873       40.383       43.497       23.873     1630.795     1892.006      569.916        1.157        0.205      137.495       23.523        0.029      340.841       15.141      862.549
11/27/2014  20:20:00      -67.599       -3.967        1.872       54.008       50.403       27.041     2916.910     2540.430      731.242        0.539        0.309       67.715       24.711        0.133      339.882       13.521      862.578
11/27/2014  20:21:00      -51.657       74.817       -3.383       31.062       33.134       20.142      964.868     1097.892      405.701        0.537        0.123       90.918       14.420        0.025      340.545       14.640      862.578
11/27/2014  20:22:00      -36.516       67.581       -9.260       26.575       24.916       19.136      706.222      620.832      366.179        0.384        0.085       76.816       14.983        0.038      340.664       14.839      862.587
11/27/2014  20:23:00       42.314       31.311       10.707       30.331       19.336       17.241      919.963      373.885      297.249        0.224        0.080       52.639       16.242        0.095      340.228       14.105      862.587
11/27/2014  20:24:00       48.521       87.723      -16.430       17.940       30.401       22.755      321.851      924.225      517.778        0.604        0.088      100.247       23.652        0.056      339.865       13.491      862.514
11/27/2014  20:25:00       36.384       73.825      -21.595       30.541       32.656       20.847      932.755     1066.406      434.587        0.484        0.122       82.304       19.135        0.054      339.979       13.684      862.470
11/27/2014  20:26:00      -73.272       51.213      -23.800       68.512       75.075       21.432     4693.903     5636.327      459.330        0.967        0.539       89.395       28.323        0.100      340.494       14.553      862.512
11/27/2014  20:27:00      -37.809      -15.376       -2.161       27.196       33.063       20.614      739.639     1093.153      424.936        0.196        0.113       40.816       19.997        0.240      339.609       13.060      862.609
11/27/2014  20:28:00      -40.750      -16.074       -1.976       59.835       21.491       16.369     3580.279      461.880      267.951        0.312        0.216       43.806       24.883        0.323      339.263       12.477      862.621
11/27/2014  20:29:00       15.339       47.684      -18.988       33.535       32.268       14.554     1124.615     1041.250      211.811        0.262        0.119       50.091       10.540        0.044      339.665       13.153      862.541
11/27/2014  20:30:00      -11.669        8.765       -4.061       22.955       28.588       14.804      526.942      817.274      219.157        0.090        0.078       14.594        9.554        0.429      340.249       14.139      862.546
11/27/2014  20:31:00       55.532       67.617       -0.454       31.701       26.479       16.916     1004.937      701.147      286.137        0.482        0.100       87.498       21.519        0.060      339.885       13.525      862.513
11/27/2014  20:32:00      -92.020        5.000      -18.920       37.015       40.883       18.025     1370.115     1671.394      324.911        0.611        0.168       92.156        9.454        0.011      339.835       13.440      862.521
11/27/2014  20:33:00      -70.662      -43.858        0.681       38.640       15.871       20.032     1493.088      251.875      401.288        0.453        0.107       83.166       22.406        0.073      338.859       11.798      862.555
11/27/2014  20:34:00      -19.002       34.010       -0.196       17.769       20.839       12.890      315.745      434.276      166.164        0.122        0.046       38.958        4.068        0.011      339.877       13.512      862.550
11/27/2014  20:35:00      -23.575       12.464       -3.012       20.393       30.623       12.047      415.884      937.762      145.120        0.111        0.075       26.667        9.250        0.120      339.683       13.185      862.566
11/27/2014  20:36:00      -52.487       20.093       -7.208       26.667       40.132       14.206      711.151     1610.545      201.803        0.287        0.126       56.201       14.419        0.066      339.898       13.547      862.579
11/27/2014  20:37:00      -34.730       14.510       -6.740       28.881       29.011       15.593      834.122      841.658      243.135        0.169        0.096       37.639       15.481        0.169      339.797       13.377      862.594
11/27/2014  20:38:00      -90.876      116.238      -17.383       29.805       33.949       22.593      888.343     1152.502      510.443        1.231        0.128      147.546       19.797        0.018      339.945       13.626      862.572
11/27/2014  20:39:00      -89.768       96.186      -10.584       44.720       36.043       29.456     1999.914     1299.107      867.685        1.079        0.208      131.568       27.734        0.044      340.492       14.551      862.519
11/27/2014  20:40:00     -104.303      110.159      -23.089       27.482       37.063       24.854      755.250     1373.667      617.706        1.315        0.137      151.704       20.255        0.018      340.190       14.039      862.504
11/27/2014  20:41:00     -124.125        8.338      -16.977       26.189       50.161       20.265      685.863     2516.132      410.687        0.969        0.181      124.405       11.765        0.009      339.560       12.978      862.559
11/27/2014  20:42:00     -106.267       -6.459      -15.405       30.857       31.652       18.809      952.183     1001.824      353.792        0.694        0.115      106.463       15.132        0.020      339.614       13.069      862.614
11/27/2014  20:43:00      -85.927        2.344       -7.772       37.184       28.912       21.363     1382.617      835.880      456.368        0.506        0.134       85.959       16.776        0.038      340.221       14.092      862.636
11/27/2014  20:44:00      -70.111       26.710       -6.042       25.329       36.724       18.906      641.553     1348.659      357.442        0.401        0.117       75.026       12.779        0.029      340.400       14.394      862.626
11/27/2014  20:45:00     -104.737       98.435      -21.257       26.058       30.096       20.586      679.012      905.755      423.788        1.156        0.100      143.733       17.489        0.015      340.525       14.607      862.592
11/27/2014  20:46:00      -99.588      103.372      -20.220       34.252       33.489       20.076     1173.190     1121.505      403.038        1.185        0.135      143.539       17.993        0.016      340.546       14.642      862.560
11/27/2014  20:47:00     -125.378       10.596      -16.896       33.856       38.022       24.553     1146.222     1445.677      602.842        0.966        0.160      125.825       18.317        0.021      339.927       13.597      862.537
11/27/2014  20:48:00     -109.343       67.443      -19.937       39.181       35.447       24.120     1535.115     1256.477      581.768        1.014        0.169      128.470       25.074        0.038      340.532       14.617      862.541
11/27/2014  20:49:00      -70.780       12.237        0.006       28.626       31.889       21.066      819.447     1016.900      443.767        0.372        0.114       71.830       14.457        0.041      340.482       14.534      862.574
11/27/2014  20:50:00      -77.572       18.372      -10.553       37.758       54.354       18.185     1425.691     2954.372      330.692        0.559        0.236       79.718       20.553        0.066      340.368       14.342      862.609
11/27/2014  20:51:00      -64.905       95.628      -18.623       17.705       17.717       14.047      313.480      313.900      197.329        0.726        0.041      115.574        6.977        0.004      340.372       14.347      862.547
11/27/2014  20:52:00      -90.139      111.050      -23.572       17.664       22.844       14.905      312.024      521.852      222.160        1.103        0.053      143.029        9.418        0.004      340.152       13.974      862.495
11/27/2014  20:53:00      -99.916       75.085       -8.812       43.677       41.007       28.403     1907.715     1681.558      806.733        1.005        0.220      124.984       28.564        0.052      339.973       13.674      862.487
11/27/2014  20:54:00     -150.298       31.703      -14.817       34.355       36.453       25.162     1180.261     1328.847      633.137        1.348        0.157      153.605       17.952        0.014      340.008       13.733      862.479
11/27/2014  20:55:00     -206.849      -12.901      -25.217       52.638       41.589       30.383     2770.719     1729.664      923.150        2.451        0.271      207.251       24.915        0.014      339.713       13.233      862.456
11/27/2014  20:56:00     -205.117      -18.124      -11.229       67.315       52.811       38.063     4531.364     2789.000     1448.824        2.565        0.438      205.916       35.275        0.029      339.922       13.584      862.438
11/27/2014  20:57:00     -160.062       18.455       -9.837       81.566       46.761       43.803     6653.029     2186.549     1918.742        1.841        0.538      161.122       22.648        0.020      340.666       14.842      862.443
11/27/2014  20:58:00     -159.899      -13.058        5.023       87.693       62.770       41.434     7690.051     3940.093     1716.740        1.955        0.667      160.431       48.468        0.091      340.412       14.413      862.508
11/27/2014  20:59:00     -191.508      -59.725       -0.160       73.083       56.437       32.710     5341.055     3185.166     1069.959        2.492        0.480      200.605       25.460        0.016      339.636       13.103      862.563
11/27/2014  21:00:00       -7.070       35.383       29.656       66.062       49.252       39.594     4364.177     2425.784     1567.710        0.527        0.418       36.082       37.010        1.052      339.719       13.245      862.562
11/27/2014  21:01:00     -113.513      104.710       -9.000       51.450       49.844       29.075     2647.122     2484.433      845.339        1.495        0.299      154.433       22.414        0.021      340.463       14.502      862.533
11/27/2014  21:02:00     -151.642       94.697      -25.036       43.754       41.795       34.082     1914.391     1746.805     1161.568        1.871        0.241      178.782       27.356        0.023      340.459       14.495      862.481
11/27/2014  21:03:00     -128.844      153.497      -38.562       37.392       45.697       22.496     1398.188     2088.206      506.049        2.282        0.200      200.405       18.796        0.009      340.427       14.438      862.421
11/27/2014  21:04:00      -99.840       74.809      -11.810       43.412       61.585       31.874     1884.607     3792.687     1015.925        1.120        0.335      124.758       38.375        0.095      340.611       14.751      862.403
11/27/2014  21:05:00      -96.174      -11.648      -16.685       36.705       47.950       18.525     1347.222     2299.192      343.169        0.683        0.199       96.877       12.854        0.018      339.973       13.676      862.450
11/27/2014  21:06:00     -100.054       13.208      -18.402       40.609       46.106       22.153     1649.091     2125.792      490.742        0.739        0.213      100.922       20.149        0.040      339.842       13.451      862.462
11/27/2014  21:07:00      -96.064       59.314       -3.503       50.273       49.824       37.599     2527.342     2482.456     1413.720        0.959        0.321      112.901       34.466        0.093      340.567       14.678      862.472
11/27/2014  21:08:00     -148.776        3.131      -13.731       52.100       39.281       30.730     2714.377     1543.007      944.329        1.377        0.260      148.809       25.218        0.029      340.450       14.478      862.500
11/27/2014  21:09:00     -114.345        9.089       -5.789       41.791       41.043       25.343     1746.459     1684.505      642.279        0.863        0.204      114.705       22.786        0.039      340.652       14.821      862.525
11/27/2014  21:10:00      -87.187       16.937       -7.368       39.225       40.915       23.153     1538.621     1674.010      536.073        0.584        0.187       88.817       21.409        0.058      340.398       14.392      862.515
11/27/2014  21:11:00      -74.337      118.175      -10.792       37.082       49.037       28.624     1375.079     2404.635      819.325        1.210        0.230      139.611       28.581        0.042      340.851       15.157      862.465
11/27/2014  21:12:00     -121.731      127.873      -34.745       37.466       28.563       18.538     1403.698      815.865      343.641        1.747        0.128      176.550       19.535        0.012      340.695       14.893      862.472
11/27/2014  21:13:00     -118.477       47.519      -15.523       41.806       49.641       21.552     1747.779     2464.201      464.487        1.061        0.234      127.652       19.521        0.023      340.435       14.454      862.509
11/27/2014  21:14:00      -94.945       78.478      -25.740       42.443       29.284       21.220     1801.406      857.533      450.295        0.947        0.155      123.180       19.447        0.025      340.660       14.835      862.498
11/27/2014  21:15:00      -29.263      103.908      -16.066       31.709       28.949       17.494     1005.490      838.063      306.045        0.703        0.107      107.950       14.399        0.018      340.849       15.153      862.442
11/27/2014  21:16:00      -61.639       15.440       -6.685       53.424       70.872       23.563     2854.107     5022.811      555.202        0.626        0.422       63.544       13.380        0.044      339.929       13.600      862.416
11/27/2014  21:17:00     -140.944      -32.931      -18.829       41.131       33.084       15.465     1691.762     1094.558      239.179        1.216        0.151      144.740       19.967        0.019      339.683       13.183      862.408
11/27/2014  21:18:00     -112.476      -23.262      -21.294       32.600       20.543       15.522     1062.757      422.021      240.925        0.769        0.086      114.857       14.899        0.017      340.403       14.399      862.408
11/27/2014  21:19:00      -64.937      -13.729      -11.703       20.834       14.722       14.801      434.056      216.736      219.071        0.271        0.043       66.372       13.075        0.039      340.523       14.603      862.414
11/27/2014  21:20:00       -3.105       64.107       10.613       30.920       37.937       22.269      956.052     1439.224      495.900        0.356        0.145       64.182       24.577        0.147      340.730       14.953      862.392
11/27/2014  21:21:00      -56.535      110.457      -25.324       50.319       41.032       13.270     2531.997     1683.598      176.085        1.021        0.220      124.084        8.808        0.005      340.680       14.868      862.358
11/27/2014  21:22:00     -168.337      -40.496      -19.677       42.585       36.132       22.095     1813.442     1305.497      488.171        1.699        0.180      173.140       20.866        0.015      339.747       13.292      862.406
11/27/2014  21:23:00     -125.008       61.656      -16.157       44.218       43.180       26.751     1955.264     1864.552      715.635        1.211        0.227      139.386       22.932        0.027      340.078       13.850      862.422
11/27/2014  21:24:00      -85.348       66.657      -22.554       62.613       70.644       25.503     3920.404     4990.572      650.384        1.090        0.478      108.293       28.516        0.069      340.322       14.263      862.419
11/27/2014  21:25:00      -40.726      -21.736       -7.918       45.891       31.008       19.450     2105.996      961.468      378.306        0.282        0.172       46.164       22.841        0.245      339.360       12.639      862.408
11/27/2014  21:26:00      -81.662      -26.392      -17.486       37.965       36.100       15.954     1441.327     1303.246      254.538        0.533        0.150       85.821       15.270        0.032      339.682       13.183      862.378
11/27/2014  21:27:00     -116.164       82.873      -27.801       34.849       48.426       20.306     1214.481     2345.052      412.322        1.255        0.199      142.696       12.713        0.008      340.321       14.261      862.363
11/27/2014  21:28:00     -125.339       38.559      -20.417       39.267       65.959       20.653     1541.923     4350.534      426.536        1.196        0.316      131.136       26.184        0.040      340.059       13.818      862.333
11/27/2014  21:29:00     -128.245       30.962      -13.627       57.287       75.025       29.743     3281.857     5628.734      884.643        1.369        0.490      131.930       26.752        0.041      340.196       14.049      862.312
11/27/2014  21:30:00     -200.736      -50.357      -13.325       60.150       48.464       35.059     3618.056     2348.733     1229.130        2.510        0.360      206.956       26.599        0.017      338.976       11.990      862.392
11/27/2014  21:31:00     -174.950       -9.390      -19.623       73.058       57.995       34.535     5337.413     3363.379     1192.696        2.049        0.495      175.202       33.934        0.038      339.447       12.785      862.386
11/27/2014  21:32:00     -113.677       26.090       -7.751       70.232       70.347       32.828     4932.506     4948.638     1077.663        1.231        0.548      116.633       27.706        0.056      339.714       13.236      862.342
11/27/2014  21:33:00      -94.809       59.231      -11.875       71.329       62.683       42.382     5087.756     3929.196     1796.250        1.172        0.541      111.790       43.894        0.154      339.408       12.720      862.340
11/27/2014  21:34:00     -130.049       31.550      -12.602       51.397       56.419       39.686     2641.667     3183.108     1575.011        1.273        0.370      133.822       30.870        0.053      339.570       12.994      862.353
11/27/2014  21:35:00     -119.939       62.395      -19.390       46.535       45.470       23.264     2165.521     2067.539      541.215        1.171        0.239      135.197       28.410        0.044      339.601       13.046      862.357
11/27/2014  21:36:00      -61.019      -28.186       -6.278       58.689       37.586       24.058     3444.372     1412.712      578.786        0.500        0.272       67.214       23.173        0.119      339.449       12.790      862.357
11/27/2014  21:37:00     -138.111       15.359      -15.094       62.861       50.950       27.679     3951.443     2595.854      766.140        1.342        0.366      138.962       31.917        0.053      340.431       14.447      862.360
11/27/2014  21:38:00      -60.997       42.164       -2.751       30.668       44.100       19.419      940.514     1944.766      377.112        0.438        0.163       74.152       17.154        0.054      340.464       14.503      862.341
11/27/2014  21:39:00      -21.361       30.113       -1.524       28.613       47.343       17.356      818.723     2241.395      301.241        0.236        0.168       36.920       19.986        0.293      340.516       14.590      862.271
11/27/2014  21:40:00      -58.319      -38.652      -17.017       41.837       17.761       18.888     1750.355      315.438      356.744        0.380        0.121       69.965       23.532        0.113      340.045       13.796      862.338
11/27/2014  21:41:00      -70.936       43.039       -3.818       36.267       27.621       24.217     1315.324      762.911      586.457        0.478        0.133       82.971       17.028        0.042      340.055       13.812      862.348
11/27/2014  21:42:00      -67.126       50.812       -8.505       28.658       39.608       19.405      821.262     1568.802      376.544        0.496        0.138       84.189        9.931        0.014      340.165       13.997      862.364
11/27/2014  21:43:00     -105.275        9.125      -23.502       29.187       45.587       16.812      851.863     2078.169      282.657        0.746        0.161      105.669       15.692        0.022      339.869       13.498      862.398
11/27/2014  21:44:00      -75.946       -5.798      -15.881       32.593       26.362       18.107     1062.336      694.980      327.876        0.407        0.104       76.167        7.049        0.009      339.777       13.343      862.383
11/27/2014  21:45:00      -34.876       44.214       -2.307       30.609       17.743       21.212      936.928      314.810      449.963        0.244        0.085       56.313       21.170        0.141      339.586       13.021      862.357
11/27/2014  21:46:00      -85.153       61.497      -29.454       16.070       19.138       12.389      258.252      366.253      153.484        0.634        0.039      105.038        8.993        0.007      339.863       13.487      862.333
11/27/2014  21:47:00      -89.094       -7.771      -14.259       21.994       27.033       14.009      483.723      730.772      196.242        0.481        0.071       89.432        8.937        0.010      339.311       12.560      862.316
11/27/2014  21:48:00     -161.245      -10.971      -20.905       56.597       25.414       23.451     3203.266      645.866      549.939        1.548        0.220      161.618       22.348        0.019      338.727       11.575      862.322
11/27/2014  21:49:00     -162.309       67.996      -24.643       60.597       47.358       32.299     3671.952     2242.761     1043.205        1.927        0.348      175.976       18.872        0.012      339.332       12.591      862.323
11/27/2014  21:50:00     -160.133       58.656      -23.422       58.605       55.817       38.696     3434.520     3115.588     1497.369        1.884        0.402      170.537       28.470        0.028      339.346       12.615      862.312
11/27/2014  21:51:00     -128.356       21.053       -7.226       45.752       53.270       35.166     2093.251     2837.654     1236.616        1.157        0.308      130.071       32.766        0.063      339.027       12.080      862.291
11/27/2014  21:52:00      -91.587       83.759      -14.237       46.893       31.996       28.716     2198.953     1023.770      824.615        0.983        0.202      124.112       23.847        0.037      339.352       12.626      862.276
11/27/2014  21:53:00      -71.686       -3.360       -5.817       36.900       64.676       19.876     1361.579     4183.023      395.046        0.556        0.297       71.765       15.167        0.045      339.209       12.385      862.302
11/27/2014  21:54:00     -129.084       11.638      -15.131       31.826       38.920       21.042     1012.911     1514.744      442.747        1.000        0.149      129.607       12.066        0.009      338.922       11.903      862.335
11/27/2014  21:55:00     -155.776       -3.979      -12.064       51.049       38.363       30.804     2606.011     1471.715      948.913        1.473        0.251      155.826       29.091        0.035      338.647       11.440      862.368
11/27/2014  21:56:00     -158.447       23.639       -7.678       53.085       41.452       29.736     2818.042     1718.276      884.232        1.557        0.271      160.201       27.216        0.029      338.906       11.876      862.350
11/27/2014  21:57:00     -209.920       79.577       -5.906       62.434       40.908       28.532     3897.966     1673.490      814.047        2.841        0.319      224.497       26.697        0.014      339.604       13.050      862.319
11/27/2014  21:58:00     -178.284       57.998      -13.558       36.505       36.797       26.976     1332.611     1354.036      727.683        1.937        0.171      187.481       20.735        0.012      339.727       13.257      862.332
11/27/2014  21:59:00     -104.015       65.298      -14.653       37.500       38.592       26.286     1406.248     1489.309      690.969        0.944        0.179      122.813       23.268        0.036      339.553       12.965      862.323
11/27/2014  22:00:00     -159.020      101.706      -25.649       32.191       27.759       24.708     1036.258      770.554      610.470        1.935        0.121      188.763       15.833        0.007      339.723       13.251      862.303
11/27/2014  22:01:00     -132.925      -11.929       -5.775       40.512       45.414       27.302     1641.230     2062.434      745.415        1.115        0.222      133.459       18.953        0.020      339.638       13.109      862.315
11/27/2014  22:02:00      -41.444      -15.950        3.207       53.658       25.107       20.458     2879.195      630.363      418.522        0.295        0.196       44.407       28.846        0.422      339.065       12.143      862.330
11/27/2014  22:03:00      -60.008        9.771       -8.272       40.563       37.576       19.601     1645.336     1411.959      384.197        0.360        0.172       60.798       20.482        0.113      339.371       12.659      862.297
11/27/2014  22:04:00      -32.175       -5.594      -14.992       25.721       26.149       13.910      661.566      683.774      193.489        0.141        0.077       32.657        8.609        0.069      339.185       12.345      862.274
11/27/2014  22:05:00      -91.323       79.517      -23.169       27.866       37.773       16.427      776.519     1426.793      269.858        0.884        0.124      121.091       13.779        0.013      339.686       13.190      862.232
11/27/2014  22:06:00     -142.494       53.479      -12.849       32.103       59.193       30.921     1030.611     3503.836      956.081        1.441        0.275      152.199       34.246        0.051      339.562       12.982      862.231
11/27/2014  22:07:00     -213.218       22.624      -27.483       58.684       58.338       37.110     3443.780     3403.379     1377.133        2.748        0.411      214.415       32.546        0.023      338.606       11.369      862.317
11/27/2014  22:08:00     -133.478       44.320      -18.182       56.351       53.587       26.544     3175.395     2871.593      704.599        1.343        0.338      140.644       26.260        0.035      338.938       11.929      862.348
11/27/2014  22:09:00     -104.962       82.551      -19.169       38.079       43.193       25.744     1450.007     1865.626      662.746        1.109        0.199      133.535       22.772        0.029      339.194       12.360      862.310
11/27/2014  22:10:00     -102.346       65.840      -21.830       38.201       36.982       26.035     1459.302     1367.668      677.797        0.939        0.175      121.695       17.774        0.021      339.150       12.287      862.278
11/27/2014  22:11:00     -115.260      123.772      -30.955       41.190       46.827       22.705     1696.596     2192.755      515.513        1.698        0.220      169.129       15.059        0.008      339.355       12.631      862.250
11/27/2014  22:12:00      -85.497      -10.782      -16.263       38.626       56.850       29.207     1491.963     3231.927      853.047        0.663        0.279       86.174       26.521        0.095      339.028       12.081      862.251
11/27/2014  22:13:00       13.271      -11.399        2.729       42.530       37.112       26.339     1808.784     1377.265      693.746        0.210        0.194       17.495       25.311        2.093      338.652       11.448      862.307
11/27/2014  22:14:00       44.371       57.746       -3.453       20.762       30.518       13.717      431.064      931.360      188.145        0.343        0.078       72.824        5.728        0.006      339.053       12.123      862.188
11/27/2014  22:15:00      -25.223       23.876       -4.669       48.821       38.090       10.776     2383.482     1450.854      116.117        0.259        0.198       34.731       10.834        0.097      339.582       13.014      862.190
11/27/2014  22:16:00     -127.938       -8.987      -20.290       35.550       43.192       16.521     1263.790     1865.519      272.954        1.013        0.170      128.254       13.206        0.011      338.766       11.642      862.255
11/27/2014  22:17:00      -74.546       -1.078      -18.673       28.364       44.117       14.547      804.537     1946.294      211.605        0.443        0.148       74.554       15.839        0.045      338.938       11.930      862.222
11/27/2014  22:18:00      -50.684      -21.845      -16.795       22.917       27.210       14.044      525.181      740.394      197.229        0.240        0.073       55.192       14.283        0.067      338.586       11.338      862.205
11/27/2014  22:19:00     -110.847      -13.140      -16.512       56.231       52.497       14.897     3161.879     2755.962      221.915        0.943        0.307      111.623       15.744        0.020      338.813       11.721      862.173
11/27/2014  22:20:00      -36.308        0.294      -17.630       79.388       69.463       13.340     6302.443     4825.158      177.964        0.647        0.565       36.309       19.465        0.287      338.801       11.699      862.232
11/27/2014  22:21:00       22.594      134.805      -27.073       72.000       91.782       29.429     5184.026     8423.929      866.087        1.694        0.724      136.686       29.253        0.046      339.512       12.897      862.070
11/27/2014  22:22:00     -161.188      -68.363      -22.821       50.695       30.788       25.728     2570.008      947.878      661.927        1.768        0.209      175.086       21.360        0.015      337.931       10.238      862.151
11/27/2014  22:23:00     -132.903      -29.491      -24.940       52.973       35.453       25.248     2806.154     1256.936      637.486        1.193        0.235      136.136       25.571        0.035      338.227       10.735      862.191
11/27/2014  22:24:00     -158.026      -15.683      -12.652       51.804       36.634       31.978     2683.666     1342.055     1022.570        1.521        0.252      158.802       30.750        0.037      338.440       11.093      862.237
11/27/2014  22:25:00     -147.221       24.836      -13.615       52.403       55.631       30.292     2746.049     3094.824      917.593        1.462        0.338      149.302       23.521        0.025      338.632       11.415      862.215
11/27/2014  22:26:00      -94.672      102.030       -7.820       47.905       42.794       32.557     2294.923     1831.299     1059.938        1.231        0.259      139.186       24.243        0.030      339.051       12.122      862.130
11/27/2014  22:27:00     -107.694      -13.831       -4.142       40.117       56.297       25.353     1609.392     3169.356      642.788        0.861        0.271      108.578       18.216        0.028      339.445       12.784      862.120
11/27/2014  22:28:00     -114.995      -48.268       -8.073       35.895       19.878       17.358     1288.439      395.116      301.310        0.880        0.099      124.715       19.766        0.025      338.756       11.623      862.147
11/27/2014  22:29:00     -144.721      -64.075      -13.354       48.911       28.974       18.385     2392.268      839.470      338.011        1.440        0.178      158.272       23.328        0.022      338.246       10.767      862.152
11/27/2014  22:30:00     -115.785      -23.946        4.390       57.625       57.503       34.380     3320.616     3306.598     1182.005        1.090        0.390      118.235       33.703        0.081      338.721       11.564      862.151
11/27/2014  22:31:00      -38.885       47.407        7.423       51.599       43.518       28.923     2662.481     1893.824      836.513        0.460        0.270       61.315       27.455        0.201      338.916       11.894      862.109
11/27/2014  22:32:00      -79.540      121.647      -18.259       45.016       37.862       26.097     2026.440     1433.568      681.073        1.280        0.207      145.343       28.397        0.038      339.508       12.888      862.040
11/27/2014  22:33:00     -137.608       11.916      -20.474       49.462       79.856       24.997     2446.505     6376.983      624.867        1.447        0.472      138.123       32.003        0.054      339.066       12.145      862.049
11/27/2014  22:34:00      -34.155       42.855        5.930       56.451       66.515       31.314     3186.753     4424.246      980.589        0.581        0.430       54.801       29.429        0.288      339.094       12.191      862.065
11/27/2014  22:35:00      -50.738      -48.238        6.257       97.954       46.432       34.171     9594.957     2155.975     1167.668        0.893        0.646       70.009       38.146        0.297      338.871       11.817      862.141
11/27/2014  22:36:00     -120.296       -1.201       -0.375       66.288       53.609       26.163     4394.132     2873.962      684.487        1.121        0.398      120.302       23.412        0.038      338.777       11.657      862.221
11/27/2014  22:37:00       33.150       11.261        3.306       35.605       12.708       18.332     1267.688      161.505      336.047        0.150        0.088       35.010        7.825        0.050      338.905       11.873      862.156
11/27/2014  22:38:00       89.222       34.318       26.780       50.523       32.521       39.708     2552.531     1057.602     1576.706        0.752        0.259       95.594       28.291        0.088      338.804       11.705      862.103
11/27/2014  22:39:00       -2.445        2.261       40.004       36.595       40.120       23.440     1339.160     1609.651      549.416        0.255        0.175        3.330       22.986       47.640      338.722       11.567      862.107
11/27/2014  22:40:00      -20.913       -5.588       -4.168       18.885       23.602       18.259      356.628      557.047      333.402        0.087        0.062       21.646       11.837        0.299      338.982       12.002      862.148
11/27/2014  22:41:00      -70.372       68.462      -27.367       29.717       21.145       14.093      883.075      447.103      198.613        0.596        0.076       98.179        9.231        0.009      339.499       12.874      862.143
11/27/2014  22:42:00      -90.382       74.375      -23.634       20.989       13.307       11.245      440.553      177.063      126.446        0.750        0.037      117.049        7.877        0.005      339.561       12.979      862.161
11/27/2014  22:43:00      -48.301       87.268       -8.516       28.339       18.558       16.478      803.124      344.403      271.510        0.572        0.071       99.743        7.877        0.006      339.648       13.125      862.149
11/27/2014  22:44:00      -11.390       95.522      -23.101       11.591       12.236        7.209      134.355      149.714       51.976        0.506        0.017       96.199        5.867        0.004      339.773       13.338      862.102
11/27/2014  22:45:00       12.882      116.649      -18.296       18.987       14.654        5.893      360.490      214.731       34.722        0.736        0.030      117.358        2.505        0.000      339.949       13.633      862.083
11/27/2014  22:46:00      -51.288       76.921      -20.461       37.063       25.028       17.925     1373.635      626.400      321.296        0.564        0.116       92.452       16.008        0.030      339.837       13.443      862.103
11/27/2014  22:47:00     -102.551      -23.056      -15.348       30.795       39.115       17.533      948.347     1530.003      307.422        0.703        0.139      105.110       13.335        0.016      338.593       11.352      862.148
11/27/2014  22:48:00     -137.193       10.062      -16.508       44.656       31.003       25.290     1994.162      961.199      639.606        1.139        0.180      137.562       25.877        0.035      338.758       11.628      862.151
11/27/2014  22:49:00     -126.340      -14.078      -25.080       55.855       32.657       24.916     3119.727     1066.484      620.799        1.080        0.240      127.122       27.412        0.046      338.712       11.550      862.177
11/27/2014  22:50:00      -32.764       14.190        4.171       49.451       39.346       24.105     2445.414     1548.094      581.041        0.293        0.229       35.705       24.423        0.468      339.157       12.298      862.156
11/27/2014  22:51:00      -43.907       17.606        1.529       23.676       29.805       16.435      560.552      888.344      270.099        0.198        0.086       47.305        4.813        0.010      339.693       13.201      862.162
11/27/2014  22:52:00      -10.121       45.434        5.510       24.687       30.795       20.965      609.440      948.351      439.550        0.210        0.100       46.548       16.163        0.121      340.070       13.836      862.159
11/27/2014  22:53:00      -34.012      -10.751        0.780       61.195       40.421       17.968     3744.818     1633.896      322.842        0.349        0.285       35.671       28.052        0.618      339.141       12.274      862.147
11/27/2014  22:54:00     -140.456      -23.464      -24.745       23.274       16.035       13.896      541.700      257.115      193.091        1.094        0.050      142.402        7.771        0.003      338.597       11.358      862.126
11/27/2014  22:55:00     -107.307        9.849      -20.818       59.655       27.293       21.399     3558.707      744.924      457.936        0.840        0.238      107.758       24.188        0.050      338.796       11.692      862.097
11/27/2014  22:56:00      -36.023        1.182      -14.154       19.082       25.461       17.134      364.119      648.242      293.566        0.140        0.065       36.042       15.133        0.176      339.379       12.672      862.091
11/27/2014  22:57:00      -34.810       23.925      -12.011       23.202       45.377       14.286      538.320     2059.028      204.092        0.236        0.140       42.239       15.747        0.139      339.716       13.239      862.080
11/27/2014  22:58:00      -62.875      -27.901      -12.659       42.245       21.940       18.124     1784.614      481.369      328.464        0.374        0.130       68.788       18.214        0.070      338.477       11.155      862.107
11/27/2014  22:59:00       38.408       18.302       -4.673       17.810       18.358       13.828      317.197      337.003      191.215        0.134        0.042       42.546       12.422        0.085      339.341       12.607      862.143
11/27/2014  23:00:00       33.497      -30.729       -2.896       13.252       19.931        8.429      175.622      397.256       71.043        0.136        0.032       45.457        8.889        0.038      339.010       12.050      862.163
11/27/2014  23:01:00       -6.154      -39.084       -4.315       25.209       21.121        8.555      635.473      446.095       73.182        0.137        0.058       39.565       11.812        0.089      339.347       12.620      862.149
11/27/2014  23:02:00      -68.845      -21.221       -8.037       38.789       15.466       16.136     1504.556      239.200      260.367        0.363        0.100       72.041       21.507        0.089      338.950       11.951      862.134
11/27/2014  23:03:00     -122.566      -32.975      -22.967       34.245       23.413       14.061     1172.707      548.188      197.702        0.928        0.096      126.925        9.839        0.006      338.655       11.456      862.121
11/27/2014  23:04:00     -101.282       13.717      -20.010       28.006       46.484       15.839      784.346     2160.756      250.867        0.702        0.160      102.206       12.723        0.015      339.305       12.550      862.058
11/27/2014  23:05:00     -149.539      -26.340      -15.587       29.453       39.768       21.383      867.479     1581.468      457.236        1.310        0.145      151.841       15.899        0.011      338.391       11.012      862.046
11/27/2014  23:06:00      -69.303      -56.554       13.214       80.046       40.286       31.933     6407.286     1622.924     1019.708        0.861        0.452       89.449       35.701        0.159      337.688        9.831      862.139
11/27/2014  23:07:00       13.229      -42.200        6.187       19.684       35.116       21.959      387.460     1233.123      482.178        0.205        0.105       44.225       19.866        0.202      338.463       11.131      862.155
11/27/2014  23:08:00      -12.891       12.602       46.418       27.056       33.872       29.636      732.003     1147.308      878.300        0.262        0.138       18.028       26.655        2.186      338.484       11.167      862.073
11/27/2014  23:09:00       62.778       57.634       39.421       39.218       20.291       28.310     1538.019      411.733      801.435        0.578        0.138       85.222       24.990        0.086      339.066       12.146      861.980
11/27/2014  23:10:00       -8.418       26.175      -17.507       43.799       20.885       11.832     1918.316      436.163      140.005        0.178        0.125       27.495       13.594        0.244      339.539       12.941      861.959
11/27/2014  23:11:00      -34.918      -34.743       -2.243       23.565       16.328       13.095      555.297      266.607      171.469        0.171        0.050       49.258       11.392        0.053      339.407       12.719      862.059
11/27/2014  23:12:00      -13.308      -52.175        6.708       21.061       27.347       18.157      443.552      747.838      329.665        0.223        0.076       53.845       13.685        0.065      338.543       11.266      862.146
11/27/2014  23:13:00      -60.202      -22.423       -0.191       17.278       44.661       12.494      298.532     1994.575      156.090        0.329        0.122       64.242       14.920        0.054      339.190       12.354      862.103
11/27/2014  23:14:00      -21.009      -14.425       -0.139       23.098       15.664       15.115      533.498      245.364      228.461        0.083        0.050       25.485       14.676        0.332      339.055       12.128      862.053
11/27/2014  23:15:00        7.139        6.482       -0.824       16.104       19.720       10.242      259.336      388.859      104.890        0.042        0.038        9.643        8.911        0.854      339.413       12.730      862.035
11/27/2014  23:16:00      -55.634      -21.003      -14.120       35.460       20.257       12.698     1257.430      410.343      161.243        0.278        0.091       59.467       15.802        0.071      338.842       11.769      862.044
11/27/2014  23:17:00       -1.834        6.791        2.417       12.669        9.768        9.715      160.496       95.405       94.386        0.020        0.018        7.035        6.185        0.773      338.731       11.582      862.064
11/27/2014  23:18:00        3.271        5.442        0.192       13.433        8.742       10.936      180.448       76.426      119.586        0.021        0.019        6.349        9.620        2.296      338.725       11.572      862.057
11/27/2014  23:19:00       43.215       48.315        6.846       18.564       18.220        8.733      344.630      331.959       76.259        0.250        0.038       64.822       12.567        0.038      338.910       11.883      862.019
11/27/2014  23:20:00      -36.410       29.088       -5.714       36.833       26.076       12.914     1356.680      679.967      166.780        0.220        0.110       46.602       10.618        0.052      339.045       12.110      861.984
11/27/2014  23:21:00      -45.267       70.283      -13.768       26.985       22.003       15.057      728.201      484.126      226.708        0.431        0.072       83.599       15.240        0.033      339.083       12.173      861.982
11/27/2014  23:22:00       58.003       75.510       33.029       50.615       34.395       46.616     2561.912     1183.019     2173.041        0.804        0.296       95.216       30.589        0.103      338.672       11.483      861.956
11/27/2014  23:23:00       99.747       76.048       59.805       89.833       46.243       46.982     8070.001     2138.378     2207.314        1.586        0.621      125.430       51.462        0.168      338.219       10.721      861.914
11/27/2014  23:24:00      -38.085      -17.403        7.389       56.906       38.081       30.033     3238.326     1450.174      901.992        0.370        0.280       41.873       31.219        0.556      338.598       11.359      862.020
11/27/2014  23:25:00     -111.549      -56.907       -5.949       39.281       39.443       20.296     1543.035     1555.785      411.927        0.961        0.176      125.226       23.697        0.036      339.248       12.452      862.098
11/27/2014  23:26:00      -47.599      -70.109        7.534       53.261       46.507       27.250     2836.738     2162.868      742.537        0.649        0.287       84.741       26.644        0.099      338.899       11.864      862.114
11/27/2014  23:27:00        6.444       24.481       12.281       42.132       26.471       20.888     1775.134      700.711      436.300        0.185        0.146       25.315        7.839        0.096      338.585       11.336      862.029
11/27/2014  23:28:00       21.817       44.634        9.629       33.596       16.574       19.288     1128.676      274.681      372.023        0.217        0.089       49.681       19.787        0.159      339.086       12.179      861.948
11/27/2014  23:29:00      -33.790       57.689       -0.634       27.977       38.740       21.633      782.701     1500.750      467.994        0.361        0.138       66.857       20.387        0.093      338.916       11.892      861.917
11/27/2014  23:30:00      -81.313       78.825      -13.000       34.294       34.059       20.507     1176.062     1159.996      420.539        0.787        0.138      113.248       18.883        0.028      338.875       11.824      861.946
11/27/2014  23:31:00     -132.141       27.623       -5.930       46.614       35.567       25.315     2172.837     1265.009      640.845        1.117        0.204      134.997       22.700        0.028      339.081       12.170      861.980
11/27/2014  23:32:00      -81.545      -41.088       -3.609       40.685       24.119       15.334     1655.294      581.713      235.122        0.541        0.124       91.311       16.306        0.032      339.082       12.172      862.013
11/27/2014  23:33:00      -81.064      -12.407       -6.313       15.246       31.250       17.929      232.438      976.572      321.438        0.415        0.077       82.008       18.123        0.049      339.400       12.707      861.952
11/27/2014  23:34:00      -46.282      -28.200       -2.717       15.767       15.821       14.661      248.587      250.316      214.951        0.183        0.036       54.196        9.322        0.030      339.353       12.630      861.913
11/27/2014  23:35:00     -118.634      -43.240      -15.345       26.005       16.968        9.996      676.277      287.907       99.930        0.862        0.053      126.268        8.585        0.005      339.346       12.617      861.946
11/27/2014  23:36:00      -44.187      -44.409       -4.736       34.705       14.206       13.860     1204.442      201.816      192.112        0.277        0.080       62.647        7.190        0.013      338.645       11.438      862.002
11/27/2014  23:37:00      -77.016      -35.770      -10.131       13.050       17.357        7.158      170.293      301.254       51.231        0.392        0.026       84.918        7.752        0.008      339.324       12.578      861.980
11/27/2014  23:38:00      -73.548       35.439       -9.462       27.365       41.953       13.719      748.823     1760.095      188.222        0.473        0.135       81.641       14.470        0.031      339.539       12.942      861.918
11/27/2014  23:39:00      -48.715       45.535       -5.488       18.828       44.076       12.788      354.483     1942.713      163.528        0.347        0.123       66.683        9.268        0.019      339.430       12.759      861.874
11/27/2014  23:40:00       -1.391      -25.548       -3.736       18.951       35.893       11.342      359.127     1288.326      128.643        0.122        0.089       25.586        8.502        0.110      338.906       11.876      861.880
11/27/2014  23:41:00      -21.278        3.938      -10.777       14.642       24.498        9.625      214.389      600.143       92.640        0.075        0.045       21.639        9.571        0.196      339.483       12.849      861.865
11/27/2014  23:42:00      -98.795      -76.622      -14.293       27.182       17.273       17.061      738.860      298.369      291.094        0.858        0.066      125.025       11.805        0.009      338.211       10.709      861.948
11/27/2014  23:43:00      -64.892      -31.752        3.043       24.624       19.944       16.365      606.358      397.752      267.798        0.325        0.064       72.244       13.926        0.037      338.221       10.726      861.977
11/27/2014  23:44:00      -41.101      -38.713       -5.548       23.990       13.279        7.078      575.511      176.343       50.094        0.201        0.040       56.462        4.484        0.006      339.238       12.434      861.944
11/27/2014  23:45:00      -89.799      -70.256       -9.988       39.191       37.021       17.172     1535.943     1370.565      294.892        0.815        0.160      114.017       16.519        0.021      339.303       12.544      861.906
11/27/2014  23:46:00       -2.659      -72.197       -2.272       50.083       47.575       32.830     2508.270     2263.362     1077.795        0.554        0.292       72.246       28.030        0.151      339.223       12.410      861.834
11/27/2014  23:47:00      -38.434       12.949       18.803       57.210       45.288       28.638     3273.026     2050.966      820.117        0.407        0.307       40.556       35.021        0.746      339.093       12.190      861.743
11/27/2014  23:48:00       17.492       -2.865       29.644       37.952       59.835       37.850     1440.325     3580.230     1432.615        0.382        0.323       17.725       38.743        4.778      338.757       11.625      861.764
11/27/2014  23:49:00      -71.826      -75.259       -1.342       62.828       92.510       28.630     3947.325     8558.076      819.703        1.207        0.666      104.033       28.773        0.076      338.823       11.735      861.788
11/27/2014  23:50:00     -143.019     -106.636        6.729      111.723       69.486       44.529    12481.959     4828.280     1982.839        2.558        0.965      178.398       31.689        0.032      339.257       12.465      861.810
11/27/2014  23:51:00     -213.500       -5.385       -5.515       88.887       65.423       50.320     7900.962     4280.186     2532.067        3.017        0.736      213.568       50.466        0.056      338.385       10.998      861.830
11/27/2014  23:52:00     -200.220      -42.060       -2.008       65.551       47.054       26.757     4296.979     2214.111      715.955        2.454        0.361      204.590       25.817        0.016      338.403       11.029      861.821
11/27/2014  23:53:00      -72.859      -66.312        8.602       52.038       32.216       26.730     2707.910     1037.871      714.489        0.712        0.223       98.517       23.684        0.058      338.306       10.867      861.869
11/27/2014  23:54:00      -67.237      -12.009        2.076       57.903       41.057       21.712     3352.797     1685.708      471.392        0.509        0.275       68.301       27.275        0.159      338.977       11.996      861.842
11/27/2014  23:55:00       80.405       24.283       -2.761       26.359       24.348       17.182      694.810      592.830      295.228        0.432        0.079       83.992        5.309        0.004      338.370       10.975      861.795
11/27/2014  23:56:00      -27.082       21.568       27.519       29.568       30.380       39.342      874.294      922.927     1547.824        0.265        0.167       34.621       30.154        0.759      338.442       11.096      861.779
11/27/2014  23:57:00      -78.629       22.044       -7.667       33.888       31.580       18.520     1148.384      997.275      342.977        0.461        0.124       81.660       17.231        0.045      339.142       12.273      861.818
11/27/2014  23:58:00      -96.608       34.390      -13.603       37.333       45.748       21.699     1393.721     2092.854      470.856        0.733        0.198      102.546       16.132        0.025      338.512       11.214      861.843
11/27/2014  23:59:00      -68.161      -28.602        0.773       53.205       40.840       25.291     2830.725     1667.907      639.620        0.530        0.257       73.919       21.480        0.084      338.430       11.076      861.897
